Date StartTime U_cm/s V_cm/s W_cm/s Ustd_cm/s Vstd_cm/s Wstd_cm/s Uvar_(cm/s)^2 Vvar_(cm/s)^2 Wvar_(cm/s)^2 KE_(m/s)^2 TurbulentKE_(m/s)^2 HorizWindSpeed_cm/s FrictionSpeec_cm/s DragCoef SpeedOfSound_m/s SonicTemperature_C Pressure_mb 
06/27/2013  00:00:00       50.489       35.294       13.165       25.364       22.212       19.414      643.357      493.390      376.902        0.274        0.076       61.602       12.569        0.042      344.221       20.885      864.891
06/27/2013  00:01:00       64.890       34.156       12.040       18.680       15.593       15.033      348.924      243.148      226.002        0.317        0.041       73.330        6.236        0.007      344.183       20.822      864.892
06/27/2013  00:02:00       21.898       20.888       15.865       16.311       20.591        9.844      266.046      423.989       96.907        0.098        0.039       30.263        3.014        0.010      344.244       20.926      864.910
06/27/2013  00:03:00        4.774       -1.118       16.113       23.967       23.818       10.336      574.433      567.285      106.843        0.077        0.062        4.903       10.148        4.284      344.325       21.064      864.926
06/27/2013  00:04:00       30.816       44.184       37.347       21.961       22.315       14.040      482.272      497.950      197.115        0.274        0.059       53.869        8.761        0.026      344.340       21.090      864.911
06/27/2013  00:05:00       88.490       47.348        4.863       21.918       14.733       18.168      480.416      217.063      330.082        0.556        0.051      100.360        9.407        0.009      344.356       21.118      864.896
06/27/2013  00:06:00       70.583       28.966       14.371       29.058       23.586       18.494      844.389      556.317      342.044        0.388        0.087       76.296       12.748        0.028      344.257       20.948      864.895
06/27/2013  00:07:00       96.191       45.661       10.587       24.129       25.316       20.436      582.190      640.914      417.650        0.654        0.082      106.479       11.581        0.012      344.271       20.973      864.911
06/27/2013  00:08:00       19.169       18.174       11.599       27.648       14.867       13.565      764.410      221.018      184.010        0.100        0.058       26.415       14.817        0.315      344.141       20.749      864.923
06/27/2013  00:09:00       27.944       18.528       10.742       23.372       15.489       12.620      546.258      239.904      159.267        0.109        0.047       33.528       10.721        0.102      344.188       20.828      864.929
06/27/2013  00:10:00       57.855       30.698       15.018       21.036       14.180       13.111      442.494      201.073      171.903        0.267        0.041       65.495       10.757        0.027      344.194       20.840      864.934
06/27/2013  00:11:00       75.664       50.062       24.358       28.983       15.173       14.274      839.994      230.221      203.739        0.505        0.064       90.726       13.434        0.022      344.203       20.855      864.934
06/27/2013  00:12:00      100.518       65.918       12.249       29.280       31.033       22.202      857.335      963.021      492.938        0.846        0.116      120.204       11.135        0.009      344.126       20.724      864.928
06/27/2013  00:13:00       41.211       25.717        2.689       22.831       24.164       16.191      521.250      583.876      262.136        0.187        0.068       48.577       11.434        0.055      344.029       20.557      864.951
06/27/2013  00:14:00       52.969       57.460        9.337       32.736       27.505       26.498     1071.644      756.524      702.154        0.436        0.127       78.149       19.681        0.063      344.164       20.789      864.981
06/27/2013  00:15:00       75.516       53.557       -2.646       17.989       21.920       15.540      323.599      480.465      241.505        0.481        0.052       92.580       12.305        0.018      344.161       20.785      864.988
06/27/2013  00:16:00       90.344       62.943        8.234       22.205       14.011       18.823      493.052      196.313      354.300        0.662        0.052      110.109       10.622        0.009      344.149       20.764      864.981
06/27/2013  00:17:00      107.540       57.456       15.323       26.431       26.332       25.437      698.597      693.400      647.060        0.857        0.102      121.926       14.230        0.014      344.059       20.609      864.962
06/27/2013  00:18:00      128.361       60.375       20.542       29.526       23.919       30.567      871.757      572.096      934.329        1.146        0.119      141.851       15.173        0.011      344.086       20.657      864.963
06/27/2013  00:19:00       65.728       30.145       21.156       25.444       29.207       23.289      647.418      853.064      542.377        0.386        0.102       72.311        8.038        0.012      344.003       20.514      864.981
06/27/2013  00:20:00       63.212       23.544        0.054       15.342       17.124       14.868      235.368      293.244      221.068        0.265        0.037       67.454        9.321        0.019      343.992       20.494      864.992
06/27/2013  00:21:00       87.512       68.765        9.346       17.946       13.974       14.044      322.064      195.261      197.243        0.659        0.036      111.297        6.941        0.004      343.939       20.405      864.982
06/27/2013  00:22:00       55.307       70.634       49.505       43.061       33.428       35.123     1854.228     1117.446     1233.591        0.735        0.210       89.711       29.037        0.105      343.906       20.349      864.979
06/27/2013  00:23:00        6.581       74.079       82.782       23.161       32.638       21.022      536.442     1065.223      441.943        0.721        0.102       74.371       17.413        0.055      343.936       20.399      864.991
06/27/2013  00:24:00       33.275       32.187       49.580       42.325       37.553       22.740     1791.435     1410.231      517.103        0.416        0.186       46.295       30.740        0.441      343.876       20.299      864.997
06/27/2013  00:25:00       43.702       10.617       24.528       34.060       27.503       21.381     1160.106      756.419      457.141        0.250        0.119       44.973       19.173        0.182      343.854       20.258      864.983
06/27/2013  00:26:00       15.568       19.953       33.279       23.317       21.548       21.007      543.679      464.309      441.277        0.160        0.072       25.308       17.449        0.475      343.819       20.198      864.967
06/27/2013  00:27:00       -0.597       -1.923        8.171        8.586        6.685        6.600       73.714       44.694       43.557        0.012        0.008        2.014        4.842        5.779      343.777       20.128      864.968
06/27/2013  00:28:00      -32.592        4.078       -7.888        9.652        8.245        7.543       93.156       67.973       56.904        0.068        0.011       32.846        5.339        0.026      343.685       19.972      864.973
06/27/2013  00:29:00      -21.316        9.207        0.662       12.677        6.526        7.602      160.718       42.584       57.794        0.040        0.013       23.219        3.916        0.028      343.741       20.064      864.981
06/27/2013  00:30:00       30.129       32.523       16.663       15.946       10.946        7.952      254.272      119.823       63.236        0.134        0.022       44.334        8.754        0.039      343.733       20.052      864.982
06/27/2013  00:31:00       75.035       35.454       20.159       11.599       11.749        9.427      134.547      138.037       88.869        0.383        0.018       82.990        4.531        0.003      343.870       20.288      864.983
06/27/2013  00:32:00       58.862       24.545       16.379       25.028       18.705       15.600      626.421      349.862      243.355        0.278        0.061       63.775       13.753        0.047      343.851       20.254      864.986
06/27/2013  00:33:00        4.112        1.196       18.252       16.679       12.924        9.257      278.186      167.029       85.696        0.044        0.027        4.282        7.176        2.808      343.791       20.153      864.986
06/27/2013  00:34:00       -6.027        1.071       26.670       14.807       24.058        9.997      219.233      578.780       99.941        0.082        0.045        6.121        8.514        1.935      343.944       20.412      864.991
06/27/2013  00:35:00       34.432       39.097       32.519       26.714       18.797       12.288      713.633      353.323      150.997        0.249        0.061       52.098        7.002        0.018      343.889       20.319      864.999
06/27/2013  00:36:00       61.323       41.155       19.786       24.451       16.333       18.889      597.829      266.778      356.800        0.353        0.061       73.853       10.395        0.020      343.757       20.093      864.996
06/27/2013  00:37:00       46.236       32.531       23.812       20.362       18.613       12.648      414.606      346.458      159.974        0.234        0.046       56.533        9.360        0.027      343.595       19.816      865.007
06/27/2013  00:38:00       41.420       35.335       31.885       24.978       16.651       13.152      623.910      277.250      172.965        0.253        0.054       54.444       12.462        0.052      343.610       19.843      865.024
06/27/2013  00:39:00       27.884       36.821       42.412       18.052       18.091        8.545      325.874      327.291       73.021        0.233        0.036       46.188        9.214        0.040      343.527       19.702      865.037
06/27/2013  00:40:00       52.227       24.314       16.666       19.805       19.069       16.681      392.245      363.643      278.267        0.232        0.052       57.609       11.929        0.043      343.629       19.876      865.027
06/27/2013  00:41:00       45.044       13.979       25.047       27.779       25.179       15.622      771.692      633.960      244.038        0.225        0.082       47.163       13.671        0.084      343.711       20.014      865.020
06/27/2013  00:42:00       46.860        3.609       15.416       22.617       15.837       13.703      511.521      250.798      187.769        0.170        0.048       46.998        6.566        0.020      343.878       20.300      865.020
06/27/2013  00:43:00       37.272       -7.956        3.671       21.440       10.130        7.473      459.693      102.607       55.851        0.104        0.031       38.111        7.841        0.042      343.986       20.484      865.020
06/27/2013  00:44:00       22.060      -13.431        6.231       17.528       17.721        6.182      307.233      314.028       38.218        0.068        0.033       25.828        9.330        0.131      344.006       20.519      865.021
06/27/2013  00:45:00        5.686      -30.906        8.767       11.741       11.815        9.890      137.862      139.586       97.813        0.072        0.019       31.425        8.440        0.072      344.000       20.508      865.023
06/27/2013  00:46:00      -19.667      -16.324        2.219        8.769        8.022        9.188       76.892       64.351       84.422        0.044        0.011       25.560        3.203        0.016      343.680       19.961      865.044
06/27/2013  00:47:00      -29.896      -14.125       -6.174        8.525        5.053        5.716       72.681       25.535       32.671        0.063        0.007       33.065        3.316        0.010      343.705       20.006      865.073
06/27/2013  00:48:00      -31.245        1.202       -5.515        3.969        9.253        3.224       15.753       85.624       10.393        0.056        0.006       31.268        2.179        0.005      343.684       19.968      865.078
06/27/2013  00:49:00      -52.951       18.282       -8.083       10.869        6.031        4.207      118.131       36.369       17.702        0.169        0.009       56.018        3.110        0.003      343.740       20.066      865.063
06/27/2013  00:50:00      -59.081       22.030      -12.211        8.753       12.041        6.098       76.608      144.997       37.183        0.219        0.013       63.055        4.098        0.004      343.734       20.054      865.045
06/27/2013  00:51:00      -68.278       29.333       -7.518       17.635       21.950        9.820      311.003      481.817       96.435        0.323        0.044       74.312        9.912        0.018      343.741       20.067      865.047
06/27/2013  00:52:00      -82.353      -34.363      -15.522       16.485       23.123       10.903      271.739      534.676      118.866        0.456        0.046       89.235        9.667        0.012      343.376       19.445      865.048
06/27/2013  00:53:00     -106.004      -59.161       -5.406       23.252       24.421       12.348      540.671      596.393      152.475        0.803        0.064      121.395       11.027        0.008      343.386       19.461      865.054
06/27/2013  00:54:00      -90.990      -34.814       -3.349       29.520       15.293       12.169      871.414      233.883      148.089        0.538        0.063       97.423       14.902        0.023      343.282       19.283      865.063
06/27/2013  00:55:00      -89.208      -16.233       -2.815       19.160       23.076       16.145      367.101      532.497      260.675        0.469        0.058       90.673       13.301        0.022      343.259       19.245      865.061
06/27/2013  00:56:00      -93.825       25.055       -0.568       48.130       37.965       28.799     2316.524     1441.377      829.401        0.701        0.229       97.113       26.512        0.075      343.168       19.088      865.053
06/27/2013  00:57:00     -132.410       77.122      -13.502       60.896       40.156       29.447     3708.354     1612.527      867.124        1.492        0.309      153.233       33.662        0.048      343.420       19.518      865.040
06/27/2013  00:58:00     -112.349       59.728      -12.642       35.789       32.299       24.456     1280.821     1043.255      598.073        0.964        0.146      127.238       18.153        0.020      343.343       19.388      865.034
06/27/2013  00:59:00     -135.295       18.996      -16.361       37.049       35.393       25.543     1372.593     1252.659      652.420        1.110        0.164      136.622       19.494        0.020      343.317       19.342      865.050
06/27/2013  01:00:00      -68.931      -39.933       -3.771       38.003       30.015       22.582     1444.203      900.888      509.944        0.461        0.143       79.663       10.411        0.017      343.271       19.267      865.082
06/27/2013  01:01:00      -96.199      -41.322       -5.883       30.407       20.144       12.805      924.584      405.785      163.959        0.624        0.075      104.698        9.387        0.008      343.116       19.002      865.111
06/27/2013  01:02:00      -74.337      -15.156        0.965       33.756       28.270       17.771     1139.446      799.208      315.809        0.401        0.113       75.867       16.589        0.048      343.045       18.879      865.112
06/27/2013  01:03:00      -97.154        3.002      -11.222       20.209       16.856       10.882      408.389      284.140      118.418        0.519        0.041       97.200        6.588        0.005      343.065       18.915      865.105
06/27/2013  01:04:00      -65.423       27.938      -11.221       23.965       35.304       13.797      574.333     1246.395      190.354        0.360        0.101       71.139       15.526        0.048      343.210       19.160      865.103
06/27/2013  01:05:00      -59.585       65.166      -14.032       16.505       16.272        9.971      272.431      264.776       99.414        0.432        0.032       88.301        7.994        0.008      343.542       19.728      865.125
06/27/2013  01:06:00      -48.723       18.192        0.360       18.894       38.070       14.172      356.973     1449.358      200.844        0.236        0.100       52.008       12.702        0.060      343.395       19.476      865.141
06/27/2013  01:07:00      -31.778      -15.923        4.686       14.983       18.433       15.348      224.480      339.784      235.564        0.104        0.040       35.544       14.543        0.167      343.530       19.705      865.157
06/27/2013  01:08:00      -32.701       12.639      -10.488       13.126       14.766        8.496      172.279      218.047       72.182        0.090        0.023       35.059        8.529        0.059      343.538       19.719      865.159
06/27/2013  01:09:00      -33.678      -11.359       -2.316       10.357       11.603        7.037      107.268      134.635       49.526        0.078        0.015       35.542        6.391        0.032      343.416       19.513      865.161
06/27/2013  01:10:00      -36.624       -6.692       -8.658        9.247        9.959        6.978       85.513       99.179       48.690        0.085        0.012       37.230        4.644        0.016      343.351       19.399      865.151
06/27/2013  01:11:00      -31.855        1.029       -7.712       15.289       12.737        8.431      233.756      162.237       71.074        0.077        0.023       31.872        3.319        0.011      343.424       19.525      865.140
06/27/2013  01:12:00      -36.904       -7.914       -7.385        8.667       10.776        6.268       75.112      116.125       39.284        0.085        0.012       37.743        5.987        0.025      343.369       19.432      865.148
06/27/2013  01:13:00      -59.629      -40.567       -9.182       14.381       15.998       10.503      206.815      255.937      110.305        0.293        0.029       72.120        6.499        0.008      343.199       19.142      865.163
06/27/2013  01:14:00      -96.842      -41.715      -17.056       13.362       18.353       13.135      178.543      336.847      172.538        0.605        0.034      105.444        8.013        0.006      342.968       18.749      865.175
06/27/2013  01:15:00     -106.302      -33.242      -19.389       31.507       19.214       14.421      992.704      369.172      207.977        0.718        0.078      111.378       15.877        0.020      342.925       18.676      865.187
06/27/2013  01:16:00      -88.525      -46.104      -10.366       19.807       19.282       13.769      392.331      371.778      189.578        0.551        0.048       99.811        4.361        0.002      343.032       18.858      865.206
06/27/2013  01:17:00      -78.737      -37.225       -8.176       15.087       17.278       13.607      227.607      298.537      185.160        0.418        0.036       87.093        9.057        0.011      343.029       18.852      865.209
06/27/2013  01:18:00      -80.360       -8.507      -13.609        9.468        8.243        5.535       89.637       67.944       30.638        0.345        0.009       80.809        4.044        0.003      343.031       18.857      865.211
06/27/2013  01:19:00      -71.247        5.471      -10.941        5.929        6.053        5.079       35.148       36.636       25.797        0.266        0.005       71.457        1.369        0.000      343.167       19.087      865.203
06/27/2013  01:20:00     -104.689        6.283      -17.200       19.187       16.402       16.278      368.139      269.020      264.977        0.610        0.045      104.877       12.089        0.013      343.027       18.850      865.197
06/27/2013  01:21:00      -58.684        7.552      -12.696       24.049       23.628       14.667      578.344      558.279      215.122        0.251        0.068       59.168       13.601        0.053      342.897       18.626      865.179
06/27/2013  01:22:00      -58.274       -6.395      -14.291       31.011       23.555       11.792      961.669      554.837      139.059        0.265        0.083       58.624        7.108        0.015      342.849       18.546      865.165
06/27/2013  01:23:00      -19.769        0.265       -9.889       11.248       12.162        7.006      126.507      147.925       49.083        0.041        0.016       19.771        4.697        0.056      342.964       18.743      865.161
06/27/2013  01:24:00      -26.013       10.002       -8.717       17.025       22.400       12.415      289.847      501.761      154.125        0.090        0.047       27.870       15.179        0.297      343.164       19.083      865.166
06/27/2013  01:25:00       -2.090       40.292       -3.581        8.917       23.050        7.640       79.521      531.312       58.364        0.115        0.033       40.346        9.097        0.051      343.381       19.454      865.153
06/27/2013  01:26:00       11.976       29.836       -1.508       16.590       29.828       12.085      275.214      889.716      146.048        0.117        0.066       32.150       14.802        0.212      343.371       19.437      865.142
06/27/2013  01:27:00      -15.301       62.444        5.986       27.818       38.673       18.551      773.823     1495.591      344.140        0.339        0.131       64.291       18.161        0.080      343.446       19.564      865.151
06/27/2013  01:28:00       -0.109       21.015       -4.312       14.649       14.419       17.355      214.588      207.907      301.212        0.059        0.036       21.015       10.309        0.241      343.272       19.266      865.155
06/27/2013  01:29:00       -3.754      -19.585      -12.839       10.199       17.596       14.029      104.027      309.628      196.821        0.059        0.031       19.942       12.638        0.402      343.188       19.124      865.155
06/27/2013  01:30:00      -12.911      -33.385       -8.583        9.078       16.507       12.266       82.413      272.487      150.458        0.093        0.025       35.795        9.307        0.068      343.204       19.150      865.168
06/27/2013  01:31:00      -15.987      -24.912       -2.154       10.342        6.504        8.229      106.950       42.305       67.723        0.055        0.011       29.601        3.919        0.018      343.303       19.319      865.172
06/27/2013  01:32:00      -46.580      -23.583       -8.535       15.639       10.487        5.203      244.567      109.967       27.072        0.159        0.019       52.209        4.160        0.006      343.344       19.389      865.174
06/27/2013  01:33:00      -64.241      -16.512      -11.567        5.122        6.479        3.576       26.235       41.974       12.787        0.231        0.004       66.329        2.712        0.002      343.176       19.103      865.174
06/27/2013  01:34:00      -84.567       -4.088      -14.243       11.627        7.856        7.390      135.181       61.718       54.618        0.381        0.013       84.666        3.875        0.002      343.008       18.815      865.182
06/27/2013  01:35:00     -102.366        3.812      -14.445       12.022        9.726        9.775      144.526       94.590       95.557        0.552        0.017      102.437        7.329        0.005      343.155       19.069      865.177
06/27/2013  01:36:00      -72.644       -7.712      -14.013       28.610       24.536       12.076      818.537      602.039      145.827        0.355        0.078       73.052       10.238        0.020      343.125       19.017      865.168
06/27/2013  01:37:00      -57.459        0.462       -2.778       15.901       11.236        6.015      252.836      126.255       36.180        0.186        0.021       57.461        3.029        0.003      343.145       19.052      865.169
06/27/2013  01:38:00       -8.614      -32.690       -8.706       18.427       11.688        8.628      339.557      136.602       74.451        0.088        0.028       33.806        4.448        0.017      343.159       19.074      865.190
06/27/2013  01:39:00      -34.583      -39.540       -2.211       12.635       11.137       12.006      159.654      124.040      144.141        0.160        0.021       52.530        7.596        0.021      343.086       18.949      865.201
06/27/2013  01:40:00      -52.892      -31.022       -2.854        9.280        6.597        5.835       86.126       43.527       34.052        0.197        0.008       61.318        1.957        0.001      343.132       19.028      865.202
06/27/2013  01:41:00      -38.776      -18.638       -5.376        7.517        6.309        5.192       56.502       39.804       26.954        0.100        0.006       43.023        3.863        0.008      343.039       18.867      865.209
06/27/2013  01:42:00      -19.791      -19.109        5.891        7.495        5.763        7.652       56.174       33.216       58.553        0.047        0.007       27.510        3.545        0.017      342.988       18.783      865.221
06/27/2013  01:43:00      -14.890      -20.352        3.892       13.085        8.478        8.242      171.230       71.876       67.937        0.048        0.016       25.218        7.573        0.090      343.018       18.834      865.226
06/27/2013  01:44:00      -10.280      -13.128        4.589       16.137        6.941        7.618      260.399       48.177       58.041        0.033        0.018       16.674        8.260        0.245      342.943       18.707      865.238
06/27/2013  01:45:00      -67.514      -42.165       -3.402       33.505       23.258       13.560     1122.559      540.947      183.868        0.410        0.092       79.599        8.207        0.011      342.937       18.696      865.245
06/27/2013  01:46:00      -75.087      -56.086       -2.197       28.925       19.211       15.907      836.680      369.076      253.023        0.512        0.073       93.721       13.768        0.022      342.770       18.412      865.263
06/27/2013  01:47:00      -59.869      -47.465       -4.935       20.307       17.114       14.521      412.355      292.880      210.854        0.339        0.046       76.402        9.389        0.015      342.805       18.471      865.256
06/27/2013  01:48:00      -70.852      -36.609       -3.748       16.109       13.113        9.802      259.494      171.956       96.080        0.345        0.026       79.751        5.031        0.004      342.828       18.510      865.258
06/27/2013  01:49:00      -87.590      -48.793       -5.650       18.618       12.141       12.893      346.625      147.415      166.225        0.537        0.033      100.264       11.111        0.012      342.728       18.340      865.260
06/27/2013  01:50:00      -76.572      -40.979       -4.204       25.078       20.724       16.375      628.887      429.499      268.144        0.444        0.066       86.848        9.818        0.013      342.625       18.166      865.290
06/27/2013  01:51:00      -76.846      -48.094       -0.875       21.745       26.916       19.493      472.839      724.474      379.973        0.490        0.079       90.655       15.466        0.029      342.478       17.917      865.307
06/27/2013  01:52:00      -83.206      -23.983       -9.210       14.007       14.307       10.447      196.200      204.703      109.144        0.405        0.026       86.594        5.511        0.004      342.541       18.023      865.309
06/27/2013  01:53:00      -60.462      -10.704       -6.485       11.542       10.415        8.973      133.229      108.465       80.522        0.207        0.016       61.402        4.724        0.006      342.536       18.015      865.291
06/27/2013  01:54:00      -55.831       -3.605       -9.410       14.743        6.359        7.309      217.346       40.433       53.429        0.176        0.016       55.947        4.346        0.006      342.568       18.069      865.266
06/27/2013  01:55:00      -99.890      -13.948      -13.706       15.390       15.301       11.665      236.859      234.134      136.083        0.548        0.030      100.859        7.010        0.005      342.530       18.004      865.263
06/27/2013  01:56:00      -86.751      -42.244       -0.060       31.067       25.679       21.090      965.142      659.409      444.801        0.569        0.103       96.490       18.713        0.038      342.414       17.806      865.285
06/27/2013  01:57:00      -89.091      -36.237       -5.748       38.111       26.947       17.220     1452.476      726.125      296.516        0.588        0.124       96.178       10.542        0.012      342.318       17.643      865.304
06/27/2013  01:58:00      -83.450      -35.956       -4.268       28.514       28.039       14.483      813.070      786.163      209.758        0.504        0.090       90.866       12.600        0.019      342.262       17.549      865.315
06/27/2013  01:59:00      -70.988      -43.632        0.512       20.738       22.400       14.810      430.074      501.739      219.335        0.405        0.058       83.325       11.422        0.019      342.366       17.725      865.316
06/27/2013  02:00:00      -93.456      -36.692       -7.253       24.516       25.033       12.967      601.044      626.672      168.141        0.576        0.070      100.401       11.803        0.014      342.374       17.738      865.328
06/27/2013  02:01:00     -149.417      -31.134       -9.696       49.337       33.408       19.517     2434.123     1116.087      380.916        1.366        0.197      152.626       15.725        0.011      342.301       17.613      865.334
06/27/2013  02:02:00     -147.181      -36.419       -5.716       52.679       45.068       26.062     2775.043     2031.125      679.253        1.425        0.274      151.620       27.275        0.032      342.179       17.407      865.341
06/27/2013  02:03:00     -139.658        1.251      -18.581       38.803       29.488       23.851     1505.677      869.559      568.858        1.140        0.147      139.664       21.783        0.024      342.168       17.390      865.336
06/27/2013  02:04:00     -149.521      -13.760      -16.712       43.362       37.135       18.326     1880.247     1378.999      335.831        1.321        0.180      150.153       16.973        0.013      342.182       17.413      865.335
06/27/2013  02:05:00     -102.659       14.527       -4.416       35.012       38.125       26.938     1225.838     1453.495      725.670        0.709        0.170      103.682       17.932        0.030      342.187       17.421      865.326
06/27/2013  02:06:00     -162.194       40.976       -9.717       46.596       27.827       24.740     2171.199      774.350      612.043        1.582        0.178      167.290       22.367        0.018      342.299       17.611      865.325
06/27/2013  02:07:00     -146.577       18.025      -24.553       37.254       33.903       24.505     1387.824     1149.381      600.472        1.277        0.157      147.681       13.312        0.008      342.294       17.604      865.337
06/27/2013  02:08:00     -160.704      -27.912      -15.649       37.046       28.278       25.816     1372.374      799.666      666.449        1.484        0.142      163.110       21.300        0.017      342.258       17.541      865.364
06/27/2013  02:09:00     -149.965       -9.410       -8.515       51.831       39.782       23.636     2686.437     1582.603      558.680        1.374        0.241      150.260       24.324        0.026      342.174       17.399      865.385
06/27/2013  02:10:00     -146.022       -8.234      -10.843       41.447       38.608       18.689     1717.846     1490.548      349.288        1.253        0.178      146.254       17.152        0.014      342.256       17.538      865.391
06/27/2013  02:11:00     -102.914      -46.461      -10.293       50.479       32.860       25.378     2548.095     1079.758      644.023        0.856        0.214      112.916       26.262        0.054      342.287       17.591      865.410
06/27/2013  02:12:00     -114.764        5.182       -7.705       42.940       40.235       22.009     1843.840     1618.876      484.405        0.860        0.197      114.881       13.854        0.015      342.292       17.598      865.397
06/27/2013  02:13:00     -161.414       26.095      -18.856       30.693       46.624       30.407      942.087     2173.796      924.604        1.556        0.202      163.510       26.251        0.026      342.451       17.869      865.389
06/27/2013  02:14:00     -123.537       24.636       -6.520       38.156       52.840       27.339     1455.900     2792.033      747.410        1.045        0.250      125.969       27.493        0.048      342.519       17.987      865.389
06/27/2013  02:15:00      -81.941       16.108       -8.665       34.759       25.457       20.819     1208.169      648.048      433.424        0.467        0.114       83.509       11.872        0.020      342.514       17.977      865.389
06/27/2013  02:16:00      -77.415        9.352      -13.552       35.082       35.661       21.701     1230.719     1271.714      470.935        0.462        0.149       77.978       19.055        0.060      342.583       18.095      865.397
06/27/2013  02:17:00      -95.726       73.113      -12.013       25.535       26.029       18.098      652.058      677.517      327.538        0.815        0.083      120.453       13.685        0.013      342.585       18.098      865.425
06/27/2013  02:18:00      -84.640       28.883       -8.432       21.106       33.719       18.400      445.456     1136.965      338.557        0.499        0.096       89.433        5.490        0.004      342.583       18.093      865.434
06/27/2013  02:19:00      -79.360       20.861       -7.328       49.762       44.014       20.348     2476.212     1937.267      414.036        0.581        0.241       82.057       26.539        0.105      342.534       18.010      865.440
06/27/2013  02:20:00     -182.977       54.462      -15.192       27.274       27.810       23.108      743.855      773.409      533.994        1.936        0.103      190.910       14.882        0.006      342.517       17.981      865.448
06/27/2013  02:21:00     -140.610       53.191       -3.405       55.972       30.528       27.136     3132.818      931.965      736.368        1.371        0.240      150.335       27.061        0.032      342.445       17.859      865.443
06/27/2013  02:22:00      -85.260       14.390      -10.013       43.545       33.891       19.746     1896.129     1148.580      389.920        0.550        0.172       86.466       10.299        0.014      342.474       17.908      865.433
06/27/2013  02:23:00      -30.306      -10.523       -2.819       14.816       22.551       12.422      219.524      508.548      154.298        0.096        0.044       32.081       11.055        0.119      342.419       17.815      865.442
06/27/2013  02:24:00       -2.102      -13.886       -7.569       12.353       18.279        6.662      152.591      334.105       44.382        0.039        0.027       14.044        4.153        0.087      342.486       17.931      865.447
06/27/2013  02:25:00      -27.053      -25.717       -3.125       16.127       15.654        9.369      260.078      245.033       87.780        0.100        0.030       37.326        9.056        0.059      342.428       17.832      865.453
06/27/2013  02:26:00      -57.804      -25.950        0.129       15.911       14.732       12.520      253.173      217.018      156.738        0.232        0.031       63.362        6.369        0.010      342.349       17.695      865.458
06/27/2013  02:27:00      -65.613      -13.887       -7.797       11.589       12.853        9.779      134.301      165.189       95.629        0.248        0.020       67.066        7.631        0.013      342.276       17.572      865.465
06/27/2013  02:28:00      -79.459       -7.581      -11.650       20.625       12.277       10.186      425.383      150.713      103.760        0.359        0.034       79.820        8.399        0.011      342.164       17.382      865.466
06/27/2013  02:29:00      -54.319       12.304       -7.621       12.950       13.978        8.612      167.702      195.379       74.170        0.180        0.022       55.695        7.258        0.017      342.215       17.469      865.474
06/27/2013  02:30:00      -35.502       -0.099       -4.101       12.864       13.259       11.340      165.488      175.799      128.605        0.087        0.023       35.502       10.606        0.089      342.423       17.822      865.473
06/27/2013  02:31:00      -31.852      -10.381       -2.803       20.316       13.263       10.785      412.741      175.909      116.324        0.092        0.035       33.501        8.065        0.058      342.497       17.949      865.480
06/27/2013  02:32:00      -49.271      -33.870       -8.762       20.689       16.605       18.598      428.032      275.729      345.878        0.235        0.052       59.790       12.835        0.046      342.316       17.640      865.503
06/27/2013  02:33:00      -82.347      -44.344       -9.560       16.890       13.644        8.153      285.271      186.172       66.476        0.469        0.027       93.528        4.358        0.002      342.186       17.419      865.509
06/27/2013  02:34:00     -105.381      -42.357      -13.749       11.894        8.707        9.097      141.475       75.813       82.756        0.669        0.015      113.575        4.653        0.002      342.183       17.414      865.511
06/27/2013  02:35:00      -86.366      -26.453       -8.125       14.224       14.333        7.856      202.327      205.440       61.718        0.435        0.023       90.326        1.462        0.000      342.196       17.438      865.527
06/27/2013  02:36:00      -60.225       -3.806       -9.052        8.908       10.438        6.301       79.348      108.943       39.706        0.198        0.011       60.345        3.189        0.003      342.188       17.423      865.542
06/27/2013  02:37:00      -44.966       -5.098      -10.124        8.445        8.758        4.692       71.325       76.710       22.013        0.116        0.009       45.254        1.763        0.002      342.163       17.380      865.542
06/27/2013  02:38:00      -36.023      -24.865       -8.470       16.109       13.438        9.170      259.511      180.572       84.091        0.126        0.026       43.771        7.253        0.027      342.254       17.536      865.532
06/27/2013  02:39:00      -53.604      -36.951       -9.589       18.344       25.085       15.552      336.497      629.261      241.857        0.277        0.060       65.106       14.364        0.049      342.197       17.438      865.529
06/27/2013  02:40:00      -93.315      -43.593      -12.639       14.916       23.026       11.806      222.489      530.220      139.371        0.583        0.045      102.995        9.856        0.009      342.174       17.400      865.536
06/27/2013  02:41:00      -97.048      -42.526      -18.442       19.946       16.770       10.807      397.854      281.226      116.782        0.618        0.040      105.957        6.363        0.004      342.112       17.294      865.540
06/27/2013  02:42:00      -92.109      -44.046      -10.177       15.112       25.437       17.306      228.387      647.032      299.501        0.585        0.059      102.098       13.967        0.019      342.084       17.246      865.537
06/27/2013  02:43:00      -69.237      -18.038      -12.372       16.674       13.359        7.345      278.018      178.457       53.954        0.289        0.026       71.548        4.324        0.004      342.014       17.127      865.539
06/27/2013  02:44:00      -31.755      -10.504       -4.691       18.435       14.033        8.264      339.846      196.939       68.300        0.087        0.030       33.447        8.608        0.066      342.088       17.254      865.547
06/27/2013  02:45:00      -28.988        9.470       -4.430       13.771       15.716       10.596      189.640      246.981      112.281        0.075        0.027       30.496        8.947        0.086      342.239       17.511      865.545
06/27/2013  02:46:00       -6.997       -8.469       -2.697        9.580       12.779        9.703       91.769      163.303       94.155        0.024        0.017       10.986        7.499        0.466      342.339       17.680      865.533
06/27/2013  02:47:00      -22.627        2.620       -3.559       10.863       13.377       12.782      118.015      178.938      163.381        0.050        0.023       22.778        9.066        0.158      342.508       17.967      865.523
06/27/2013  02:48:00      -21.480       -2.535       -5.594        9.700       10.276        7.109       94.083      105.595       50.538        0.037        0.013       21.629        4.933        0.052      342.585       18.097      865.516
06/27/2013  02:49:00      -24.323      -12.447      -11.498       12.720       10.406        8.242      161.790      108.278       67.930        0.061        0.017       27.323        2.919        0.011      342.560       18.055      865.510
06/27/2013  02:50:00      -80.215      -36.437       -8.221       18.639       14.734        8.804      347.415      217.085       77.509        0.424        0.032       88.102        3.790        0.002      342.137       17.337      865.523
06/27/2013  02:51:00      -96.683      -40.407      -14.353       17.733       19.942       14.685      314.461      397.703      215.642        0.606        0.046      104.787        6.581        0.004      342.064       17.211      865.537
06/27/2013  02:52:00     -104.336      -34.324      -15.412       12.689       11.556        6.647      160.998      133.541       44.184        0.632        0.017      109.837        4.143        0.001      342.115       17.299      865.536
06/27/2013  02:53:00      -79.629      -15.131      -14.324       11.820       15.732        7.468      139.703      247.495       55.769        0.361        0.022       81.054        4.698        0.003      342.169       17.392      865.519
06/27/2013  02:54:00      -46.788      -10.068       -6.248       12.502       18.226       10.629      156.301      332.195      112.971        0.147        0.030       47.859        6.523        0.019      342.359       17.715      865.503
06/27/2013  02:55:00      -52.574       62.159      -15.258       13.322       20.760        9.887      177.482      430.985       97.746        0.378        0.035       81.411        6.297        0.006      342.916       18.660      865.505
06/27/2013  02:56:00      -35.385        5.571       -8.821       15.913       11.650        8.553      253.222      135.733       73.149        0.091        0.023       35.821        8.265        0.053      342.734       18.351      865.518
06/27/2013  02:57:00      -27.565      -18.110       -5.916        7.650       12.558        7.074       58.526      157.702       50.045        0.069        0.013       32.982        4.495        0.019      342.682       18.261      865.528
06/27/2013  02:58:00      -46.175      -24.110       -9.738        8.794        7.602        7.410       77.339       57.789       54.903        0.150        0.010       52.091        5.304        0.010      342.436       17.842      865.531
06/27/2013  02:59:00      -56.254      -23.628      -10.412        7.118        6.161        5.722       50.662       37.953       32.736        0.198        0.006       61.015        3.783        0.004      342.327       17.659      865.536
06/27/2013  03:00:00      -69.578      -20.034      -12.045        6.091       10.216        6.057       37.095      104.371       36.681        0.278        0.009       72.405        4.779        0.004      342.278       17.575      865.529
06/27/2013  03:01:00      -98.281       -1.339      -15.140       13.465       11.291        9.375      181.307      127.492       87.892        0.514        0.020       98.290        5.302        0.003      342.188       17.423      865.547
06/27/2013  03:02:00      -72.912      -28.615       -4.434       29.802       18.359       14.420      888.131      337.068      207.941        0.379        0.072       78.326       16.528        0.045      342.020       17.138      865.555
06/27/2013  03:03:00      -96.660      -42.149      -10.496       22.339       15.593       11.123      499.011      243.130      123.724        0.605        0.043      105.450        9.758        0.009      342.064       17.210      865.564
06/27/2013  03:04:00     -112.377      -52.603      -13.106       21.998       16.699       12.475      483.930      278.868      155.622        0.824        0.046      124.080        8.747        0.005      342.057       17.198      865.578
06/27/2013  03:05:00     -127.337      -33.918      -12.460       14.691       16.426       11.025      215.820      269.821      121.558        0.906        0.030      131.776        8.399        0.004      342.045       17.179      865.586
06/27/2013  03:06:00     -103.954      -21.336       -7.515       17.274       12.535        9.799      298.404      157.134       96.015        0.593        0.028      106.121        7.006        0.004      342.071       17.224      865.588
06/27/2013  03:07:00      -55.794      -34.672       -7.821       14.755       17.625       10.003      217.701      310.627      100.064        0.250        0.031       65.690        8.096        0.015      342.087       17.252      865.606
06/27/2013  03:08:00      -45.428      -25.422       -9.799       11.290       12.104        9.806      127.462      146.502       96.152        0.159        0.019       52.058        7.314        0.020      342.164       17.381      865.616
06/27/2013  03:09:00      -48.940      -22.093      -11.057       13.525       19.504        7.527      182.929      380.387       56.654        0.181        0.031       53.695        3.968        0.005      342.203       17.450      865.622
06/27/2013  03:10:00      -36.606      -21.511       -8.569       15.386       14.804        9.262      236.734      219.161       85.785        0.121        0.027       42.458        7.860        0.034      342.271       17.562      865.622
06/27/2013  03:11:00      -38.612      -20.619       -9.022       11.711       12.199        7.755      137.157      148.810       60.146        0.117        0.017       43.772        6.721        0.024      342.323       17.652      865.621
06/27/2013  03:12:00      -65.544      -32.006      -12.755       12.100        9.827        9.818      146.420       96.563       96.402        0.291        0.017       72.941        6.840        0.009      342.152       17.362      865.603
06/27/2013  03:13:00      -88.917      -47.492      -14.801       15.274       15.719       12.129      233.289      247.099      147.107        0.550        0.031      100.806        8.845        0.008      342.022       17.141      865.594
06/27/2013  03:14:00      -93.310      -82.381      -14.410       20.209       18.226       14.009      408.404      332.191      196.243        0.832        0.047      124.472        7.998        0.004      341.906       16.944      865.601
06/27/2013  03:15:00      -73.084      -42.267        3.832       46.586       21.312       20.914     2170.301      454.201      437.399        0.510        0.153       84.426       23.033        0.074      341.771       16.715      865.599
06/27/2013  03:16:00      -73.697      -27.845       -5.604       25.371       15.475       14.193      643.666      239.463      201.445        0.366        0.054       78.782       10.939        0.019      341.765       16.705      865.582
06/27/2013  03:17:00      -70.803      -43.094       -5.408       22.261       21.484       15.595      495.559      461.549      243.193        0.405        0.060       82.886       11.619        0.020      341.830       16.815      865.562
06/27/2013  03:18:00      -97.727      -30.390       -8.725       29.253       24.941       22.559      855.761      622.058      508.902        0.627        0.099      102.343       10.106        0.010      341.932       16.988      865.548
06/27/2013  03:19:00      -76.071      -21.952       -8.562       27.723       21.226       15.748      768.557      450.538      247.990        0.390        0.073       79.175       11.107        0.020      341.853       16.853      865.545
06/27/2013  03:20:00      -62.176      -48.333      -18.411       34.877       18.731       16.453     1216.404      350.866      270.717        0.419        0.092       78.752        9.515        0.015      341.929       16.983      865.551
06/27/2013  03:21:00      -46.783      -30.890       -8.080       39.063       24.176       23.389     1525.922      584.468      547.025        0.293        0.133       56.061       14.845        0.070      341.877       16.893      865.554
06/27/2013  03:22:00      -78.250      -52.139      -12.005       33.924       25.134       18.099     1150.847      631.730      327.567        0.555        0.106       94.030       12.856        0.019      341.845       16.840      865.549
06/27/2013  03:23:00     -104.711      -51.646      -14.757       19.926       23.312       15.605      397.046      543.458      243.509        0.752        0.059      116.755       14.075        0.015      341.835       16.823      865.535
06/27/2013  03:24:00     -105.355      -53.068      -13.029       22.659       20.933       18.778      513.450      438.181      352.620        0.769        0.065      117.966       11.134        0.009      341.821       16.800      865.527
06/27/2013  03:25:00     -116.222      -56.559       -7.465       23.123       23.244       16.312      534.672      540.287      266.089        0.905        0.067      129.254       13.078        0.010      341.766       16.706      865.529
06/27/2013  03:26:00     -142.302      -59.840      -13.741       26.924       28.322       16.567      724.912      802.123      274.466        1.291        0.090      154.372        9.968        0.004      341.786       16.740      865.540
06/27/2013  03:27:00     -127.542      -39.054       -7.179       25.327       30.720       18.343      641.452      943.701      336.452        0.988        0.096      133.388       13.716        0.011      341.723       16.634      865.552
06/27/2013  03:28:00     -112.230      -17.876       -3.944       44.585       21.977       20.606     1987.812      482.988      424.625        0.791        0.145      113.644       23.517        0.043      341.756       16.690      865.562
06/27/2013  03:29:00     -126.957      -16.698       -8.078       33.175       27.988       21.489     1100.601      783.355      461.797        0.940        0.117      128.051       17.200        0.018      341.906       16.944      865.570
06/27/2013  03:30:00     -111.532      -53.042       -8.492        9.216       11.945        7.506       84.937      142.678       56.333        0.780        0.014      123.502        4.024        0.001      341.859       16.863      865.583
06/27/2013  03:31:00     -111.097      -60.716       -5.972       14.676       12.609       10.433      215.394      158.975      108.839        0.827        0.024      126.605        8.436        0.004      341.883       16.904      865.597
06/27/2013  03:32:00      -88.681      -65.948       -0.067       33.993       30.111       24.087     1155.526      906.660      580.167        0.743        0.132      110.515       12.139        0.012      341.862       16.868      865.609
06/27/2013  03:33:00      -96.521     -106.104        8.072       67.536       63.404       30.091     4561.110     4020.099      905.488        1.506        0.474      143.438       35.079        0.060      341.882       16.903      865.635
06/27/2013  03:34:00     -121.632      -71.691       -3.314       52.101       45.429       29.902     2714.554     2063.750      894.123        1.281        0.284      141.188       28.617        0.041      341.827       16.810      865.660
06/27/2013  03:35:00     -134.959      -32.420      -10.339       29.518       35.277       16.417      871.337     1244.494      269.511        1.088        0.119      138.799       10.560        0.006      342.026       17.148      865.658
06/27/2013  03:36:00     -102.260      -27.894      -13.228       22.301       26.080       18.954      497.323      680.188      359.238        0.647        0.077      105.997       15.017        0.020      342.145       17.349      865.659
06/27/2013  03:37:00      -69.705      -41.855        0.186       17.216       23.246       17.022      296.397      540.354      289.749        0.387        0.056       81.306        8.710        0.011      342.074       17.229      865.647
06/27/2013  03:38:00      -85.065      -32.242       -6.037       14.855       12.761        9.516      220.673      162.845       90.556        0.439        0.024       90.971        9.082        0.010      342.088       17.252      865.655
06/27/2013  03:39:00      -73.189      -33.394       -2.255       12.619       12.917        8.954      159.230      166.856       80.166        0.344        0.020       80.447        7.037        0.008      342.096       17.268      865.645
06/27/2013  03:40:00      -89.789      -34.773       -7.924       11.936       13.947        9.238      142.468      194.518       85.343        0.488        0.021       96.287        8.083        0.007      342.061       17.205      865.637
06/27/2013  03:41:00      -83.054      -62.778       -5.167       37.980       29.270       23.380     1442.488      856.727      546.611        0.686        0.142      104.111       17.856        0.029      341.988       17.083      865.622
06/27/2013  03:42:00     -116.547      -68.986        2.820       44.542       26.365       19.064     1983.990      695.118      363.445        1.070        0.152      135.434       13.992        0.011      341.900       16.935      865.619
06/27/2013  03:43:00     -146.202      -28.581       -9.082       41.959       46.581       22.105     1760.553     2169.774      488.632        1.335        0.221      148.970       18.210        0.015      341.808       16.777      865.616
06/27/2013  03:44:00      -86.054       22.252       -8.883       49.103       27.340       22.753     2411.136      747.503      517.695        0.583        0.184       88.885       18.873        0.045      341.860       16.866      865.611
06/27/2013  03:45:00      -88.502       27.333       -8.098       44.641       30.935       24.536     1992.840      956.998      602.008        0.610        0.178       92.626       19.839        0.046      342.042       17.174      865.604
06/27/2013  03:46:00     -116.026       -0.630      -12.867       30.074       28.564       16.556      904.452      815.921      274.117        0.781        0.100      116.028       16.489        0.020      342.352       17.701      865.605
06/27/2013  03:47:00     -115.785        5.465       -9.839       27.574       34.827       15.137      760.313     1212.953      229.118        0.787        0.110      115.913       11.895        0.011      342.053       17.193      865.610
06/27/2013  03:48:00      -89.625       -8.316       -5.877       30.566       18.063       14.400      934.308      326.267      207.355        0.480        0.073       90.010       17.030        0.036      342.089       17.255      865.621
06/27/2013  03:49:00      -22.389      -22.426        3.441       25.610       13.850       11.854      655.856      191.819      140.517        0.100        0.049       31.689       11.465        0.131      341.983       17.074      865.622
06/27/2013  03:50:00        4.813      -37.094       -9.004       19.168       16.389       12.834      367.421      268.598      164.700        0.114        0.040       37.404        8.687        0.054      342.128       17.321      865.621
06/27/2013  03:51:00       11.524      -17.379       -9.777       14.952       14.156       11.180      223.574      200.398      124.988        0.054        0.027       20.852       10.302        0.244      342.238       17.508      865.620
06/27/2013  03:52:00      -63.431      -30.250       -8.550       25.617       13.761        7.593      656.248      189.375       57.654        0.296        0.045       70.275        4.781        0.005      342.024       17.145      865.634
06/27/2013  03:53:00     -105.917      -57.187       -6.055       18.358       13.167        9.512      337.020      173.368       90.472        0.756        0.030      120.370        5.967        0.002      341.884       16.905      865.637
06/27/2013  03:54:00      -95.121      -50.759        0.148       57.240       27.377       19.792     3276.442      749.517      391.712        0.802        0.221      107.817       25.241        0.055      341.758       16.694      865.638
06/27/2013  03:55:00      -98.265      -72.445        3.614       41.100       34.455       20.469     1689.211     1187.121      418.978        0.911        0.165      122.083       16.303        0.018      341.796       16.758      865.645
06/27/2013  03:56:00     -114.219      -68.291       -5.125       34.266       31.056       19.409     1174.165      964.505      376.691        1.013        0.126      133.078       16.745        0.016      341.859       16.865      865.649
06/27/2013  03:57:00     -102.390      -50.462       -7.847       19.021       16.732       10.661      361.814      279.948      113.649        0.692        0.038      114.150        7.399        0.004      341.798       16.762      865.657
06/27/2013  03:58:00      -86.539      -52.774       -3.432       29.655       20.859       17.507      879.425      435.093      306.509        0.595        0.081      101.361        9.787        0.009      341.728       16.643      865.681
06/27/2013  03:59:00     -114.690      -77.473       -0.631       36.808       27.047       19.222     1354.793      731.518      369.498        1.081        0.123      138.405       13.804        0.010      341.730       16.645      865.695
06/27/2013  04:00:00     -118.556     -113.593        0.013       80.249       83.649       48.471     6439.892     6997.219     2349.402        2.137        0.789      164.191       48.378        0.087      341.697       16.587      865.713
06/27/2013  04:01:00     -130.618      -31.439       -9.002       55.398       38.899       25.905     3068.938     1513.112      671.046        1.169        0.263      134.348       29.390        0.048      341.686       16.570      865.727
06/27/2013  04:02:00     -176.758       13.333      -18.750       48.792       31.341       21.814     2380.618      982.238      475.835        1.781        0.192      177.261       16.395        0.009      341.665       16.534      865.722
06/27/2013  04:03:00     -106.676      -29.836       -2.448       38.946       31.804       23.417     1516.788     1011.499      548.375        0.768        0.154      110.770       22.042        0.040      341.684       16.568      865.702
06/27/2013  04:04:00      -61.690      -27.468        1.861       32.171       22.724       17.063     1034.979      516.365      291.142        0.320        0.092       67.528       17.892        0.070      341.951       17.022      865.679
06/27/2013  04:05:00      -47.482       -8.058       -0.703       27.802       15.508       12.095      772.950      240.498      146.293        0.174        0.058       48.161       10.732        0.050      341.960       17.036      865.664
06/27/2013  04:06:00      -28.804      -17.529       -0.841       18.991       15.324       11.197      360.640      234.819      125.381        0.093        0.036       33.719        9.643        0.082      341.952       17.021      865.664
06/27/2013  04:07:00       -7.792      -17.624       -2.985       13.521       14.071        6.745      182.823      197.983       45.491        0.040        0.021       19.270        4.807        0.062      342.022       17.141      865.675
06/27/2013  04:08:00        8.324       12.606       -0.173        4.240        6.525        3.916       17.978       42.578       15.337        0.015        0.004       15.107        2.523        0.028      342.122       17.311      865.682
06/27/2013  04:09:00       21.788       19.114       19.389       11.751       12.038       11.982      138.075      144.908      143.566        0.082        0.021       28.983        9.892        0.116      341.990       17.086      865.687
06/27/2013  04:10:00       39.918       31.430       15.735       11.086        8.055       13.440      122.894       64.886      180.632        0.160        0.018       50.806        6.495        0.016      341.852       16.852      865.694
06/27/2013  04:11:00       19.324       21.224        0.999       11.534        9.922       11.758      133.043       98.449      138.249        0.060        0.018       28.704        8.683        0.092      341.804       16.770      865.713
06/27/2013  04:12:00      -70.189        1.840      -11.641       46.689       15.536       10.049     2179.840      241.358      100.983        0.379        0.126       70.213       14.793        0.044      341.727       16.639      865.730
06/27/2013  04:13:00     -120.471        0.495      -10.413       46.227       32.265       24.263     2136.966     1041.008      588.714        0.919        0.188      120.472       22.611        0.035      341.446       16.164      865.741
06/27/2013  04:14:00      -74.711      -26.351       -5.912       40.715       20.318       18.503     1657.719      412.834      342.371        0.436        0.121       79.222       24.677        0.097      341.777       16.725      865.749
06/27/2013  04:15:00      -36.227      -31.644       -0.340       14.598       14.569       10.168      213.093      212.258      103.398        0.142        0.026       48.101        5.904        0.015      341.751       16.682      865.744
06/27/2013  04:16:00      -61.727      -13.124       -2.634       23.560       15.523       11.879      555.058      240.978      141.105        0.246        0.047       63.107       12.502        0.039      341.751       16.681      865.744
06/27/2013  04:17:00      -32.642       -2.085       -2.101       14.539       12.672        8.159      211.380      160.590       66.571        0.076        0.022       32.708        6.079        0.035      341.710       16.612      865.754
06/27/2013  04:18:00      -14.238        8.893       -3.668        3.494        5.465        3.537       12.208       29.862       12.512        0.017        0.003       16.787        3.078        0.034      341.808       16.778      865.754
06/27/2013  04:19:00      -23.408       -9.852       -4.295        8.635        4.017        2.382       74.555       16.140        5.672        0.038        0.005       25.396        1.194        0.002      342.142       17.341      865.756
06/27/2013  04:20:00      -41.967      -22.868       -7.368        9.355       16.552        6.878       87.513      273.985       47.300        0.137        0.020       47.793        6.201        0.017      341.996       17.097      865.768
06/27/2013  04:21:00      -63.439        1.105       -8.416       12.301        5.585        6.707      151.306       31.192       44.989        0.216        0.011       63.449        1.188        0.000      341.742       16.664      865.777
06/27/2013  04:22:00      -68.561      -21.962       -7.044       14.707       14.579        6.952      216.287      212.546       48.327        0.285        0.024       71.992        5.445        0.006      341.629       16.476      865.796
06/27/2013  04:23:00      -63.591       -6.400      -10.398        6.714       14.032        6.226       45.080      196.884       38.768        0.224        0.014       63.912        2.750        0.002      341.629       16.475      865.808
06/27/2013  04:24:00      -73.339       19.289      -10.861        6.378        8.916        5.252       40.683       79.500       27.585        0.301        0.007       75.834        4.025        0.003      341.810       16.782      865.804
06/27/2013  04:25:00      -64.556        7.865       -8.603       13.120       13.849        6.441      172.137      191.788       41.489        0.235        0.020       65.033        4.544        0.005      341.934       16.990      865.786
06/27/2013  04:26:00      -70.425      -27.485       -3.317       17.228       21.452        8.882      296.791      460.184       78.889        0.328        0.042       75.598        6.271        0.007      341.707       16.608      865.779
06/27/2013  04:27:00      -34.928      -29.511        2.974       32.328       25.994       18.524     1045.119      675.682      343.127        0.208        0.103       45.726       12.534        0.075      341.552       16.344      865.782
06/27/2013  04:28:00      -12.006      -23.226       12.472       23.779       14.488       14.510      565.432      209.914      210.541        0.091        0.049       26.145       12.165        0.216      341.558       16.353      865.790
06/27/2013  04:29:00       13.294      -15.706        7.869       13.591       10.583       11.673      184.727      112.004      136.249        0.046        0.022       20.577        6.761        0.108      341.627       16.471      865.805
06/27/2013  04:30:00        3.165       12.522       12.015        8.647       13.234       13.512       74.774      175.127      182.569        0.037        0.022       12.916        8.781        0.462      341.547       16.335      865.827
06/27/2013  04:31:00        0.424        9.184       16.897       11.769       10.897       10.714      138.519      118.744      114.800        0.037        0.019        9.194        4.288        0.218      341.527       16.299      865.846
06/27/2013  04:32:00       43.357      -56.621       -2.078       36.566       27.038       16.817     1337.089      731.046      282.798        0.372        0.118       71.315       16.181        0.051      341.697       16.590      865.850
06/27/2013  04:33:00      -10.384      -20.889       -4.780       32.264       25.269       19.463     1040.954      638.539      378.807        0.131        0.103       23.327       20.797        0.795      341.645       16.501      865.854
06/27/2013  04:34:00      -23.096      -18.541        9.179       22.837       18.925       12.697      521.542      358.141      161.219        0.100        0.052       29.618       11.018        0.138      341.580       16.390      865.862
06/27/2013  04:35:00      -52.002      -38.755       -1.807       20.527       20.997       10.125      421.357      440.878      102.524        0.259        0.048       64.855       11.727        0.033      341.597       16.422      865.867
06/27/2013  04:36:00      -82.206      -33.477       -3.593       15.263       15.115       11.128      232.952      228.455      123.824        0.424        0.029       88.761        6.190        0.005      341.653       16.518      865.869
06/27/2013  04:37:00      -67.567      -44.735       -0.523       19.448       11.937       13.529      378.217      142.484      183.040        0.364        0.035       81.034        9.736        0.014      341.640       16.493      865.867
06/27/2013  04:38:00      -63.352      -60.520       -2.413       36.336       23.228       16.521     1320.340      539.553      272.938        0.491        0.107       87.613        9.911        0.013      341.683       16.567      865.871
06/27/2013  04:39:00      -32.430      -45.687       14.907       43.128       23.449       27.631     1860.017      549.840      763.467        0.327        0.159       56.026       29.714        0.281      341.618       16.456      865.882
06/27/2013  04:40:00      -71.866      -58.048        4.444       45.246       37.213       21.503     2047.165     1384.823      462.383        0.622        0.195       92.382       25.119        0.074      341.515       16.282      865.890
06/27/2013  04:41:00      -73.546      -25.772        2.590       43.027       28.675       23.620     1851.346      822.242      557.905        0.466        0.162       77.930       26.182        0.113      341.516       16.283      865.896
06/27/2013  04:42:00      -63.916       -9.465       -2.928       22.335       16.960       13.494      498.864      287.633      182.088        0.258        0.048       64.613       10.526        0.027      341.543       16.330      865.899
06/27/2013  04:43:00      -91.876        0.961       -6.730       20.709       20.521       11.251      428.863      421.121      126.581        0.473        0.049       91.881        8.280        0.008      341.486       16.231      865.907
06/27/2013  04:44:00      -84.919       17.416       -5.115       30.911       21.314       15.076      955.483      454.282      227.271        0.459        0.082       86.686       12.321        0.020      341.318       15.948      865.921
06/27/2013  04:45:00      -91.987      -21.739       -4.439       37.497       31.925       18.865     1406.012     1019.190      355.903        0.587        0.139       94.521       18.450        0.038      341.287       15.894      865.943
06/27/2013  04:46:00      -97.234      -47.701       -1.112       26.077       24.750       15.453      680.015      612.573      238.808        0.663        0.077      108.305       11.412        0.011      341.355       16.010      865.957
06/27/2013  04:47:00      -91.916      -22.033       -4.846       23.415       28.483       18.733      548.250      811.258      350.934        0.533        0.086       94.519       16.172        0.029      341.381       16.053      865.970
06/27/2013  04:48:00      -64.647      -13.482        1.014       13.247       13.673        8.750      175.495      186.961       76.566        0.240        0.022       66.038        6.750        0.010      341.356       16.013      865.986
06/27/2013  04:49:00      -42.863       -9.461        0.549       22.712       18.581       10.676      515.825      345.248      113.987        0.145        0.049       43.894        7.638        0.030      341.366       16.028      865.996
06/27/2013  04:50:00      -22.649       -5.481       -3.803       10.753        9.369       11.928      115.627       87.787      142.282        0.045        0.017       23.303        9.372        0.162      341.344       15.992      866.004
06/27/2013  04:51:00      -30.185       -3.202       -2.787       11.970        5.675        5.486      143.269       32.209       30.095        0.057        0.010       30.354        3.968        0.017      341.368       16.031      866.020
06/27/2013  04:52:00      -53.648      -19.571       -8.083        8.882        9.397        5.583       78.882       88.312       31.169        0.176        0.010       57.106        1.204        0.000      341.412       16.106      866.028
06/27/2013  04:53:00      -62.257      -25.347      -11.639       13.001        8.634        6.552      169.025       74.553       42.931        0.247        0.014       67.219        4.780        0.005      341.400       16.088      866.029
06/27/2013  04:54:00      -79.612      -21.602      -14.343        9.408       10.512        6.373       88.518      110.503       40.613        0.363        0.012       82.491        2.826        0.001      341.326       15.961      866.028
06/27/2013  04:55:00      -78.447      -21.125      -13.608       11.218       11.912        8.175      125.844      141.888       66.836        0.356        0.017       81.241        4.010        0.002      341.230       15.799      866.024
06/27/2013  04:56:00      -67.291      -27.740      -12.196       13.302       12.672       10.248      176.933      160.591      105.020        0.294        0.022       72.785        8.879        0.015      341.201       15.751      866.014
06/27/2013  04:57:00      -62.140      -23.763      -14.684       15.059       15.291       12.915      226.770      233.815      166.810        0.263        0.031       66.528        8.402        0.016      341.171       15.699      866.016
06/27/2013  04:58:00      -63.943      -31.254      -13.571       20.337       16.636       12.909      413.608      276.743      166.635        0.305        0.043       71.172       12.803        0.032      341.097       15.575      866.028
06/27/2013  04:59:00      -87.762      -19.702      -12.210       11.448       12.182        9.311      131.048      148.410       86.691        0.430        0.018       89.946        6.288        0.005      341.033       15.465      866.038
06/27/2013  05:00:00     -103.843      -22.805      -12.233       17.387       12.663        9.668      302.311      160.343       93.467        0.600        0.028      106.317        8.107        0.006      340.981       15.378      866.053
06/27/2013  05:01:00     -101.047      -14.474      -10.896       21.854       19.567       14.365      477.583      382.883      206.348        0.580        0.053      102.078       10.880        0.011      340.990       15.390      866.065
06/27/2013  05:02:00      -99.351      -25.535      -14.065        9.530       15.179        7.408       90.823      230.410       54.876        0.555        0.019      102.580        3.653        0.001      340.981       15.374      866.068
06/27/2013  05:03:00      -80.947      -33.941      -11.724       11.520       15.395       10.112      132.715      237.021      102.248        0.416        0.024       87.775        3.434        0.002      341.008       15.421      866.070
06/27/2013  05:04:00      -87.835      -34.536      -14.011       12.489       11.721       10.284      155.987      137.384      105.759        0.475        0.020       94.381        4.821        0.003      340.974       15.366      866.073
06/27/2013  05:05:00      -78.545      -39.127      -13.923       21.221       11.676        9.926      450.325      136.330       98.529        0.429        0.034       87.751        8.492        0.009      340.958       15.337      866.081
06/27/2013  05:06:00      -78.872      -27.869      -14.718       10.338       13.197        5.530      106.878      174.164       30.580        0.376        0.016       83.651        3.872        0.002      341.008       15.421      866.082
06/27/2013  05:07:00      -61.673       -1.413      -10.915        6.962       10.154        6.541       48.474      103.097       42.784        0.206        0.010       61.689        5.546        0.008      341.008       15.424      866.086
06/27/2013  05:08:00      -47.992        5.743      -14.756       13.629        9.037        8.625      185.760       81.674       74.385        0.145        0.017       48.334        5.270        0.012      341.254       15.839      866.088
06/27/2013  05:09:00      -50.510       -9.580       -9.607        8.561       12.540        7.620       73.289      157.240       58.060        0.151        0.014       51.410        5.316        0.011      341.178       15.710      866.107
06/27/2013  05:10:00      -44.429      -25.468      -11.387       18.362       15.564       11.617      337.159      242.236      134.948        0.173        0.036       51.211        3.089        0.004      341.217       15.777      866.133
06/27/2013  05:11:00      -89.075      -56.913       -9.201       32.710       18.089       15.244     1069.946      327.201      232.384        0.644        0.081      105.705       10.556        0.010      341.014       15.433      866.155
06/27/2013  05:12:00     -144.904      -31.307      -17.859        8.903       13.445        8.743       79.268      180.780       76.445        1.132        0.017      148.247        4.674        0.001      340.978       15.370      866.170
06/27/2013  05:13:00     -115.198      -35.218      -17.665       17.748       17.194       11.732      314.978      295.630      137.649        0.779        0.037      120.462        5.869        0.002      340.892       15.226      866.173
06/27/2013  05:14:00     -111.781      -52.652       -7.676       17.650       18.198       11.770      311.524      331.175      138.536        0.805        0.039      123.561        9.117        0.005      340.903       15.246      866.187
06/27/2013  05:15:00     -120.029      -48.156       -4.816       29.782       13.730       13.913      886.945      188.515      193.582        0.901        0.063      129.329       13.195        0.010      340.919       15.271      866.203
06/27/2013  05:16:00     -110.409      -59.396       -7.388       19.374       18.101       12.345      375.364      327.633      152.402        0.831        0.043      125.372       10.383        0.007      340.945       15.317      866.207
06/27/2013  05:17:00     -110.792      -24.106       -7.271       30.081       23.940       15.796      904.867      573.113      249.506        0.732        0.086      113.384       17.016        0.023      340.912       15.260      866.213
06/27/2013  05:18:00      -74.434      -12.382       -0.562       19.757       16.173       11.645      390.332      261.565      135.612        0.324        0.039       75.457        9.116        0.015      340.904       15.247      866.218
06/27/2013  05:19:00      -67.731      -22.523       -5.555       11.802       15.952        9.464      139.281      254.470       89.562        0.280        0.024       71.378        4.962        0.005      340.976       15.369      866.224
06/27/2013  05:20:00      -71.255       -8.286       -8.505       15.702       11.139        9.699      246.557      124.078       94.072        0.284        0.023       71.735        9.210        0.016      341.008       15.422      866.233
06/27/2013  05:21:00      -73.952      -15.424       -7.139       10.973       12.547        7.516      120.408      157.417       56.490        0.305        0.017       75.544        4.893        0.004      341.091       15.564      866.235
06/27/2013  05:22:00      -63.581      -23.811       -9.443       10.852       10.250        6.760      117.761      105.065       45.694        0.248        0.013       67.894        2.147        0.001      341.086       15.554      866.236
06/27/2013  05:23:00      -62.933      -29.990       -9.589       10.750        9.675        9.596      115.552       93.603       92.086        0.263        0.015       69.713        3.904        0.003      341.122       15.616      866.240
06/27/2013  05:24:00      -48.512      -30.934       -3.203       20.703       14.486       13.340      428.626      209.833      177.964        0.207        0.041       57.535       10.401        0.033      341.136       15.638      866.252
06/27/2013  05:25:00      -17.713      -29.986        1.713       24.623       16.508       15.582      606.305      272.516      242.804        0.117        0.056       34.826       10.920        0.098      340.994       15.401      866.260
06/27/2013  05:26:00      -30.635      -41.450        3.466       42.199       38.488       16.853     1780.749     1481.327      284.028        0.311        0.177       51.543       19.212        0.139      341.039       15.477      866.259
06/27/2013  05:27:00      -41.882      -48.999       -5.548       43.608       38.873       21.522     1901.669     1511.124      463.197        0.403        0.194       64.459       11.709        0.033      341.113       15.601      866.255
06/27/2013  05:28:00      -21.910      -21.251       -3.015       22.550       20.357       17.573      508.517      414.388      308.804        0.109        0.062       30.523       11.541        0.143      341.079       15.544      866.254
06/27/2013  05:29:00      -55.597      -50.617        0.808       30.899       23.034       14.149      954.747      530.577      200.191        0.367        0.084       75.187        9.672        0.017      341.069       15.526      866.259
06/27/2013  05:30:00      -94.578      -81.701       -4.912       47.420       45.569       26.030     2248.656     2076.532      677.572        1.032        0.250      124.980       26.808        0.046      340.995       15.402      866.267
06/27/2013  05:31:00      -86.143      -51.101       -7.453       79.511       44.533       34.179     6321.962     1983.145     1168.190        0.978        0.474      100.159       37.828        0.143      340.896       15.233      866.269
06/27/2013  05:32:00     -122.066      -81.601      -13.385       33.624       34.098       22.267     1130.548     1162.658      495.834        1.226        0.139      146.830       10.033        0.005      340.915       15.265      866.272
06/27/2013  05:33:00     -116.917      -62.511       -2.785       33.929       31.145       24.807     1151.162      969.995      615.368        1.016        0.137      132.579       20.677        0.024      340.853       15.160      866.281
06/27/2013  05:34:00     -134.104      -63.857       -0.680       25.679       24.435       18.999      659.389      597.048      360.958        1.184        0.081      148.532       16.675        0.013      340.851       15.158      866.290
06/27/2013  05:35:00     -130.759      -64.424       -4.358       36.033       25.726       19.928     1298.404      661.811      397.110        1.181        0.118      145.768       19.017        0.017      340.827       15.116      866.298
06/27/2013  05:36:00     -149.430      -57.006        0.107       27.803       25.177       17.672      773.009      633.873      312.314        1.365        0.086      159.934       12.252        0.006      340.826       15.114      866.299
06/27/2013  05:37:00     -149.783      -38.052      -10.690       20.872       20.388       16.443      435.649      415.679      270.379        1.256        0.056      154.541        7.350        0.002      340.807       15.082      866.299
06/27/2013  05:38:00     -160.130      -49.454       -4.060       32.377       22.464       20.017     1048.271      504.612      400.685        1.503        0.098      167.593       19.688        0.014      340.771       15.023      866.301
06/27/2013  05:39:00     -167.101      -35.000       -7.398       33.808       24.159       20.447     1142.970      583.665      418.069        1.567        0.107      170.728       19.858        0.014      340.724       14.942      866.309
06/27/2013  05:40:00     -146.244      -23.718       -9.505       43.459       36.621       27.406     1888.709     1341.122      751.064        1.301        0.199      148.154       28.322        0.037      340.804       15.078      866.322
06/27/2013  05:41:00     -170.304      -34.499      -16.842       31.773       26.539       21.362     1009.543      704.331      456.354        1.632        0.109      173.763       19.393        0.012      340.632       14.786      866.316
06/27/2013  05:42:00     -164.859      -56.239      -11.074       42.037       33.955       21.218     1767.141     1152.920      450.185        1.692        0.169      174.188       19.226        0.012      340.656       14.826      866.305
06/27/2013  05:43:00     -104.089      -60.960      -10.809       58.372       29.511       22.481     3407.272      870.872      505.395        0.972        0.239      120.626       17.478        0.021      340.631       14.785      866.309
06/27/2013  05:44:00      -72.501      -52.626       -5.312       70.346       42.572       27.480     4948.522     1812.346      755.166        0.778        0.376       89.587       41.389        0.213      340.613       14.754      866.313
06/27/2013  05:45:00     -106.492      -66.165       -8.556       17.438       18.910       13.888      304.094      357.597      192.887        0.832        0.043      125.373        7.582        0.004      340.625       14.776      866.323
06/27/2013  05:46:00     -102.286      -53.511       -8.835       29.595       40.968       19.521      875.880     1678.353      381.071        0.817        0.147      115.437       15.556        0.018      340.634       14.790      866.334
06/27/2013  05:47:00     -129.670      -31.423       -8.922       17.801       25.154       15.179      316.877      632.742      230.393        0.953        0.059      133.423       14.483        0.012      340.670       14.849      866.354
06/27/2013  05:48:00     -103.112      -53.981       -7.361       41.231       21.940       17.204     1699.986      481.373      295.970        0.804        0.124      116.388       18.040        0.024      340.747       14.982      866.378
06/27/2013  05:49:00     -118.153      -47.259       -5.714       30.165       23.319       14.530      909.943      543.773      211.114        0.895        0.083      127.254       14.796        0.014      340.747       14.983      866.400
06/27/2013  05:50:00      -89.120      -60.545       -7.578       25.677       22.758       16.324      659.289      517.911      266.468        0.655        0.072      107.741       11.553        0.011      340.709       14.917      866.420
06/27/2013  05:51:00      -96.615      -63.751       -6.524       27.209       24.420       17.393      740.339      596.352      302.505        0.754        0.082      115.752       11.447        0.010      340.699       14.899      866.433
06/27/2013  05:52:00     -111.215      -33.584      -12.148       37.741       22.186       22.306     1424.409      492.228      497.576        0.803        0.121      116.175       19.013        0.027      340.868       15.186      866.444
06/27/2013  05:53:00     -141.872      -20.379      -15.348       33.561       38.495       23.414     1126.328     1481.834      548.234        1.197        0.158      143.328       15.282        0.011      340.848       15.151      866.445
06/27/2013  05:54:00     -145.333      -11.264       -7.752       36.975       42.947       24.653     1367.149     1844.448      607.747        1.256        0.191      145.768       22.818        0.025      340.854       15.161      866.437
06/27/2013  05:55:00     -127.392      -38.407       -4.400       38.481       49.430       19.505     1480.755     2443.345      380.452        1.101        0.215      133.056       14.629        0.012      340.839       15.138      866.446
06/27/2013  05:56:00     -116.928      -41.147       -3.793       45.834       48.768       27.346     2100.723     2378.302      747.809        1.030        0.261      123.956       26.189        0.045      340.803       15.076      866.456
06/27/2013  05:57:00     -167.996      -32.590      -17.526       39.135       39.925       24.270     1531.519     1594.005      589.036        1.665        0.186      171.128       20.811        0.015      340.797       15.066      866.466
06/27/2013  05:58:00     -105.576        8.454       -8.804       51.155       45.330       29.078     2616.802     2054.809      845.506        0.841        0.276      105.914       28.268        0.071      340.931       15.291      866.472
06/27/2013  05:59:00      -67.569        0.410        5.977       44.297       34.812       25.934     1962.242     1211.841      672.593        0.422        0.192       67.570       20.985        0.096      341.101       15.580      866.471
06/27/2013  06:00:00      -78.867       13.832      -11.476       40.504       37.845       21.730     1640.597     1432.262      472.183        0.504        0.177       80.071       12.316        0.024      341.165       15.688      866.479
06/27/2013  06:01:00      -79.602      -31.054       -6.633       41.668       32.752       23.962     1736.257     1072.684      574.172        0.536        0.169       85.444       19.659        0.053      341.108       15.592      866.490
06/27/2013  06:02:00      -91.564      -37.883       -2.128       42.797       37.431       26.448     1831.594     1401.063      699.510        0.688        0.197       99.091       21.739        0.048      341.046       15.486      866.514
06/27/2013  06:03:00     -107.474      -26.010       -3.978       35.080       40.443       19.675     1230.624     1635.600      387.125        0.775        0.163      110.577       16.672        0.023      341.000       15.409      866.533
06/27/2013  06:04:00      -87.779      -39.055       -0.115       45.986       29.778       20.689     2114.671      886.717      428.017        0.633        0.171       96.075       20.728        0.047      341.014       15.432      866.549
06/27/2013  06:05:00      -87.299      -24.120       -0.755       52.909       39.258       20.499     2799.413     1541.171      420.200        0.648        0.238       90.570       23.090        0.065      341.078       15.541      866.558
06/27/2013  06:06:00      -93.490      -15.102        1.834       33.722       40.225       27.023     1137.153     1618.019      730.253        0.623        0.174       94.702       19.778        0.044      341.126       15.624      866.564
06/27/2013  06:07:00      -71.701      -10.964       -2.218       51.430       42.631       25.127     2645.001     1817.403      631.368        0.518        0.255       72.535       29.049        0.160      341.173       15.703      866.575
06/27/2013  06:08:00      -42.772      -24.436        3.761       31.611       42.709       21.818      999.285     1824.055      476.005        0.287        0.165       49.260       12.491        0.064      341.210       15.764      866.577
06/27/2013  06:09:00     -109.535      -13.195        2.383       56.290       29.023       29.247     3168.522      842.360      855.378        0.852        0.243      110.327       35.019        0.101      341.146       15.657      866.595
06/27/2013  06:10:00      -98.289      -47.317        3.367       32.958       27.354       20.766     1086.214      748.216      431.215        0.709        0.113      109.086       17.396        0.025      341.078       15.541      866.612
06/27/2013  06:11:00      -93.245      -19.273        1.692       40.953       36.504       25.491     1677.147     1332.514      649.815        0.636        0.183       95.216       22.034        0.054      341.217       15.777      866.635
06/27/2013  06:12:00      -79.705       -4.662        6.598       43.854       32.898       24.831     1923.185     1082.267      616.579        0.502        0.181       79.842       24.013        0.090      341.347       15.998      866.650
06/27/2013  06:13:00      -88.250       -4.008       -1.592       34.888       36.323       24.794     1217.184     1319.352      614.729        0.548        0.158       88.341        9.640        0.012      341.442       16.157      866.639
06/27/2013  06:14:00      -67.022      -13.049        3.010       54.019       33.209       29.342     2918.058     1102.815      860.946        0.478        0.244       68.281       25.973        0.145      341.385       16.061      866.645
06/27/2013  06:15:00      -68.142        0.416        0.701       54.627       32.860       25.754     2984.100     1079.775      663.251        0.468        0.236       68.143       26.950        0.156      341.485       16.230      866.649
06/27/2013  06:16:00     -127.415       -7.253      -10.504       30.323       24.469       21.535      919.508      598.718      463.754        0.919        0.099      127.622       16.460        0.017      341.483       16.226      866.641
06/27/2013  06:17:00      -37.286       -2.899       12.159       55.389       30.864       24.309     3067.979      952.561      590.914        0.308        0.231       37.399       30.760        0.676      341.571       16.376      866.631
06/27/2013  06:18:00        8.917       -3.018       13.520       13.884       20.545       16.833      192.754      422.094      283.348        0.058        0.045        9.414        7.478        0.631      341.713       16.616      866.634
06/27/2013  06:19:00        9.010      -23.391       11.603       11.874       21.751       12.840      141.000      473.103      164.856        0.077        0.039       25.066        6.283        0.063      341.549       16.339      866.638
06/27/2013  06:20:00      -32.960      -25.425       12.313       39.910       29.093       23.369     1592.788      846.378      546.118        0.243        0.149       41.627       25.814        0.385      341.494       16.245      866.638
06/27/2013  06:21:00      -38.669      -29.697        3.802       35.852       17.735       14.332     1285.365      314.539      205.412        0.210        0.090       48.757       13.093        0.072      341.450       16.170      866.650
06/27/2013  06:22:00      -44.655      -31.995        2.707       23.388       15.081       13.189      547.016      227.447      173.950        0.199        0.047       54.934        8.969        0.027      341.390       16.068      866.654
06/27/2013  06:23:00      -45.255      -35.338       -1.725       14.809       11.980        8.251      219.318      143.516       68.074        0.187        0.022       57.418        7.518        0.017      341.484       16.229      866.653
06/27/2013  06:24:00      -74.059      -25.675       -1.177       10.577       15.403       10.699      111.868      237.239      114.462        0.330        0.023       78.383        5.384        0.005      341.537       16.317      866.671
06/27/2013  06:25:00      -64.983      -25.827       -3.695       16.700       15.102        8.850      278.891      228.080       78.326        0.274        0.029       69.927        6.295        0.008      341.484       16.226      866.686
06/27/2013  06:26:00       -4.648      -37.605       12.560       29.006       23.617       15.737      841.371      557.751      247.640        0.162        0.082       37.891       16.706        0.194      341.573       16.379      866.703
06/27/2013  06:27:00      -11.513      -54.669        4.316       17.394       26.129       12.630      302.567      682.709      159.511        0.214        0.057       55.868        8.461        0.023      341.529       16.303      866.708
06/27/2013  06:28:00      -10.793      -14.590        7.954       11.536       12.867       18.556      133.075      165.549      344.318        0.052        0.032       18.149       10.903        0.361      341.837       16.828      866.692
06/27/2013  06:29:00        9.223      -31.967       -3.934       15.090       20.147       22.116      227.708      405.913      489.135        0.112        0.056       33.271       16.632        0.250      341.481       16.224      866.689
06/27/2013  06:30:00      -13.755      -19.792        4.926       23.288       19.233       19.163      542.334      369.910      367.233        0.094        0.064       24.102       12.875        0.285      341.657       16.522      866.703
06/27/2013  06:31:00      -18.859      -38.879        4.338       36.030       18.607       12.829     1298.175      346.212      164.593        0.185        0.090       43.212        9.970        0.053      341.606       16.436      866.726
06/27/2013  06:32:00      -30.522      -56.995       -8.865       20.346       26.590       11.342      413.950      707.042      128.649        0.275        0.062       64.653        8.924        0.019      341.477       16.215      866.749
06/27/2013  06:33:00      -47.550      -49.204       -6.182       14.857       18.305       11.428      220.719      335.059      130.593        0.270        0.034       68.426        7.774        0.013      341.515       16.280      866.759
06/27/2013  06:34:00      -20.986      -21.980        0.673       19.121       12.239       11.451      365.594      149.804      131.134        0.079        0.032       30.389        5.061        0.028      341.586       16.401      866.779
06/27/2013  06:35:00        0.349      -21.707        5.779       20.836       21.265       19.553      434.120      452.204      382.335        0.089        0.063       21.710       14.831        0.467      341.716       16.623      866.802
06/27/2013  06:36:00      -46.436      -61.295        1.987       39.608       40.712       23.193     1568.759     1657.474      537.896        0.484        0.188       76.898       19.285        0.063      341.498       16.251      866.819
06/27/2013  06:37:00       -9.492       -5.350       17.398       19.027       34.201       21.590      362.028     1169.731      466.118        0.121        0.100       10.896       22.879        4.409      341.777       16.726      866.817
06/27/2013  06:38:00      -13.316        8.054       18.538       18.690       13.921       12.752      349.305      193.798      162.602        0.065        0.035       15.562       10.265        0.435      341.810       16.782      866.811
06/27/2013  06:39:00        7.154      -26.622       11.611       29.325       37.522       18.965      859.931     1407.881      359.680        0.176        0.131       27.567       24.328        0.779      341.825       16.808      866.815
06/27/2013  06:40:00      -14.722      -26.698       -7.795       29.368       15.731       12.421      862.484      247.459      154.290        0.113        0.063       30.488       15.314        0.252      341.559       16.356      866.831
06/27/2013  06:41:00      -28.005      -52.407       -0.672       18.615       24.729       14.086      346.518      611.506      198.409        0.234        0.058       59.421       10.261        0.030      341.616       16.451      866.834
06/27/2013  06:42:00       -9.252      -23.448        3.675       12.201       13.780       13.535      148.874      189.876      183.205        0.059        0.026       25.208        7.267        0.083      341.699       16.590      866.833
06/27/2013  06:43:00       -6.774       10.343       22.589       19.199       19.814       14.586      368.601      392.604      212.758        0.082        0.049       12.364       13.090        1.121      341.906       16.945      866.829
06/27/2013  06:44:00        2.415      -13.019        4.253       16.118       19.008       19.966      259.806      361.309      398.624        0.061        0.051       13.241        9.847        0.553      341.879       16.898      866.841
06/27/2013  06:45:00       14.120      -12.834       12.222       38.560       19.968       23.928     1486.905      398.725      572.569        0.149        0.123       19.081       10.273        0.290      341.592       16.412      866.853
06/27/2013  06:46:00      -13.421      -23.638        1.148       17.768       13.184       12.532      315.693      173.806      157.047        0.069        0.032       27.183        9.885        0.132      341.876       16.894      866.861
06/27/2013  06:47:00      -51.887      -42.710       -0.351       28.109       27.313       13.873      790.141      746.010      192.452        0.312        0.086       67.204       13.317        0.039      341.748       16.675      866.874
06/27/2013  06:48:00      -50.404      -47.295       -4.518       16.300       24.840       15.630      265.683      617.014      244.295        0.296        0.056       69.119        9.878        0.020      341.757       16.692      866.872
06/27/2013  06:49:00      -19.425      -25.064        5.730       17.050       25.412       12.273      290.708      645.776      150.618        0.106        0.054       31.710       11.505        0.132      341.891       16.919      866.872
06/27/2013  06:50:00      -20.733        7.364       10.232       11.179        8.839       12.906      124.975       78.136      166.558        0.048        0.018       22.002        8.893        0.163      342.155       17.369      866.891
06/27/2013  06:51:00       -4.165      -13.065       17.875        9.354       14.579        9.659       87.488      212.540       93.300        0.045        0.020       13.713        8.018        0.342      342.476       17.912      866.913
06/27/2013  06:52:00      -12.438      -26.872        3.544       16.502       15.190       12.529      272.312      230.739      156.972        0.077        0.033       29.610        8.313        0.079      342.075       17.230      866.927
06/27/2013  06:53:00      -37.387      -41.415        2.465       17.858       13.663       13.864      318.922      186.686      192.208        0.191        0.035       55.794        9.746        0.031      341.941       17.002      866.937
06/27/2013  06:54:00      -21.768       -6.197       12.896       25.247       18.370       18.681      637.435      337.470      348.966        0.100        0.066       22.633       18.813        0.691      342.333       17.669      866.924
06/27/2013  06:55:00      -21.411       19.382        9.125       20.247       19.414       11.208      409.928      376.907      125.611        0.091        0.046       28.881        8.470        0.086      342.044       17.178      866.923
06/27/2013  06:56:00      -20.304       16.724        0.325       15.571       16.444       19.353      242.455      270.415      374.546        0.079        0.044       26.304        5.139        0.038      342.105       17.282      866.919
06/27/2013  06:57:00       23.835       -7.952        3.994       40.461       18.281       21.050     1637.096      334.210      443.091        0.153        0.121       25.126       20.579        0.671      342.136       17.335      866.908
06/27/2013  06:58:00       24.561      -10.650        7.376       18.290       21.688       18.456      334.533      470.361      340.632        0.096        0.057       26.770       14.673        0.300      342.161       17.377      866.908
06/27/2013  06:59:00        7.456      -31.859        3.844       13.422       24.023       14.875      180.140      577.096      221.251        0.103        0.049       32.720        7.206        0.049      342.005       17.113      866.912
06/27/2013  07:00:00      -25.827       -5.923       -3.021       15.205       16.738       15.857      231.200      280.175      251.460        0.074        0.038       26.498        7.589        0.082      342.019       17.136      866.921
06/27/2013  07:01:00      -19.091       15.560        9.826       16.575       15.468       19.420      274.739      239.273      377.143        0.080        0.045       24.629        8.137        0.109      342.171       17.393      866.921
06/27/2013  07:02:00      -23.525      -16.009      -11.474       31.031       21.349       17.196      962.916      455.773      295.701        0.133        0.086       28.455        6.422        0.051      342.063       17.210      866.929
06/27/2013  07:03:00        1.257      -10.338       15.403       30.762       18.193       12.857      946.301      330.987      165.294        0.089        0.072       10.415       11.651        1.252      342.419       17.814      866.932
06/27/2013  07:04:00       15.711       20.656        5.183       20.550       15.876       25.400      422.313      252.034      645.154        0.101        0.066       25.952       10.336        0.159      342.312       17.633      866.944
06/27/2013  07:05:00       23.723       36.921        2.633       21.625       17.013       27.218      467.639      289.433      740.822        0.172        0.075       43.885       10.645        0.059      342.191       17.429      866.952
06/27/2013  07:06:00       27.883       21.534       34.898       19.786       14.300       11.987      391.503      204.489      143.685        0.160        0.037       35.231        4.304        0.015      342.510       17.970      866.966
06/27/2013  07:07:00       55.338       33.049       20.663       36.175       23.224       19.316     1308.655      539.371      373.114        0.340        0.111       64.456       14.153        0.048      342.529       18.001      866.977
06/27/2013  07:08:00       57.228       45.430       14.650       22.958       24.370       20.301      527.084      593.887      412.132        0.354        0.077       73.068        8.054        0.012      342.489       17.936      866.979
06/27/2013  07:09:00        2.599        9.324       39.484       17.070       22.428       12.590      291.398      502.998      158.509        0.130        0.048        9.679        3.493        0.130      343.007       18.817      866.994
06/27/2013  07:10:00       19.573       34.757       23.932       26.307       24.944       27.659      692.046      622.199      765.006        0.212        0.104       39.889       20.967        0.276      342.671       18.243      867.002
06/27/2013  07:11:00       28.352       22.111        8.276       26.345       24.141       22.978      694.057      582.782      527.971        0.158        0.090       35.955       16.497        0.211      342.786       18.440      867.009
06/27/2013  07:12:00       30.388        8.933       10.951       26.017       26.084       22.752      676.870      680.383      517.674        0.150        0.094       31.673       13.187        0.173      342.743       18.367      867.021
06/27/2013  07:13:00       37.423       44.115        9.514       25.804       29.234       23.821      665.872      854.619      567.425        0.276        0.104       57.850       17.124        0.088      342.632       18.177      867.021
06/27/2013  07:14:00       67.728       35.256       17.989       27.153       33.495       27.011      737.289     1121.926      729.596        0.437        0.129       76.355       14.775        0.037      342.492       17.938      867.035
06/27/2013  07:15:00       48.903       34.125        9.847       26.097       27.760       25.371      681.054      770.608      643.707        0.287        0.105       59.632       14.770        0.061      342.583       18.094      867.042
06/27/2013  07:16:00       61.302       25.550        3.579       25.478       15.918       13.918      649.148      253.391      193.725        0.276        0.055       66.414        8.249        0.015      342.474       17.908      867.049
06/27/2013  07:17:00       30.050        9.699       15.637       21.584       16.292       19.841      465.887      265.433      393.673        0.118        0.056       31.576       15.299        0.235      342.793       18.453      867.059
06/27/2013  07:18:00       32.488       37.311       11.975       23.449       16.668       26.762      549.879      277.806      716.214        0.207        0.077       49.473       14.266        0.083      342.352       17.701      867.059
06/27/2013  07:19:00       48.815       16.192       -0.567       32.155       37.561       22.862     1033.919     1410.832      522.664        0.281        0.148       51.430       14.876        0.084      342.331       17.666      867.064
06/27/2013  07:20:00       42.538      -25.339       17.733       27.767       42.674       25.971      770.993     1821.087      674.510        0.302        0.163       49.513       18.701        0.143      342.470       17.901      867.075
06/27/2013  07:21:00       30.035        7.755       15.478       23.279       17.145       25.676      541.911      293.959      659.261        0.135        0.075       31.020       19.050        0.377      342.734       18.351      867.080
06/27/2013  07:22:00       10.243        7.417       25.181       20.949       14.345       14.658      438.853      205.787      214.859        0.083        0.043       12.647       12.758        1.018      343.271       19.266      867.096
06/27/2013  07:23:00       17.171       21.122       17.814       16.965       16.720       15.468      287.808      279.574      239.271        0.093        0.040       27.221       10.583        0.151      343.102       18.977      867.092
06/27/2013  07:24:00       30.621       -2.356       15.440       30.984       39.300       27.953      960.015     1544.512      781.361        0.223        0.164       30.712       19.826        0.417      342.928       18.681      867.089
06/27/2013  07:25:00       15.457       19.043       29.275       21.284       26.921       18.796      452.990      724.734      353.306        0.149        0.077       24.527       14.359        0.343      343.166       19.087      867.083
06/27/2013  07:26:00       18.313       19.189       18.175       20.934       24.384       16.431      438.223      594.558      269.976        0.117        0.065       26.525       10.003        0.142      342.999       18.801      867.094
06/27/2013  07:27:00       19.417      -21.626       19.800       26.075       22.711       22.742      679.927      515.802      517.207        0.147        0.086       29.064       13.155        0.205      343.040       18.871      867.096
06/27/2013  07:28:00       18.492       -0.490       10.200       26.141       20.979       32.311      683.355      440.122     1044.021        0.131        0.108       18.498       21.422        1.341      343.135       19.035      867.094
06/27/2013  07:29:00       34.723      -12.361       15.050       37.171       27.245       24.036     1381.651      742.298      577.714        0.214        0.135       36.857       22.607        0.376      343.030       18.856      867.099
06/27/2013  07:30:00       18.071       -5.442       20.723       22.785       18.870       25.412      519.165      356.077      645.751        0.115        0.076       18.872       17.659        0.876      343.459       19.586      867.100
06/27/2013  07:31:00       36.794       -5.061       11.325       24.340       19.084       27.426      592.435      364.192      752.173        0.161        0.085       37.140        5.540        0.022      342.925       18.676      867.100
06/27/2013  07:32:00        3.608      -19.121        4.275       25.500       26.234       28.589      650.232      688.218      817.358        0.128        0.108       19.459       17.326        0.793      343.119       19.008      867.100
06/27/2013  07:33:00        3.118      -17.414        5.665       22.007       20.856       24.589      484.328      434.961      604.601        0.093        0.076       17.691       18.488        1.092      343.420       19.520      867.107
06/27/2013  07:34:00        2.305       -3.480       25.779       24.559       17.757       19.504      603.140      315.308      380.390        0.099        0.065        4.174       16.054       14.794      343.705       20.006      867.118
06/27/2013  07:35:00       34.725      -16.165        8.976       40.049       21.014       25.833     1603.898      441.608      667.325        0.213        0.136       38.303       19.770        0.266      343.119       19.008      867.126
06/27/2013  07:36:00      -10.476       12.482       17.798       19.286       16.383       12.279      371.941      268.402      150.764        0.069        0.040       16.295        5.463        0.112      343.324       19.356      867.148
06/27/2013  07:37:00       20.229       17.677        4.962       22.766       19.342       23.240      518.298      374.111      540.112        0.109        0.072       26.865       12.858        0.229      343.168       19.090      867.158
06/27/2013  07:38:00        0.342        7.924       28.675       11.860       21.274       20.304      140.648      452.571      412.255        0.095        0.050        7.932       12.980        2.678      343.949       20.422      867.178
06/27/2013  07:39:00       43.071      -17.097        8.990       32.533       22.563       25.328     1058.376      509.085      641.487        0.222        0.110       46.340       19.559        0.178      342.983       18.774      867.188
06/27/2013  07:40:00      -19.030       -0.847        3.676       17.680       11.880       13.911      312.567      141.136      193.510        0.051        0.032       19.048        5.746        0.091      343.118       19.005      867.191
06/27/2013  07:41:00      -23.705        2.296        6.911       10.696        6.147        9.152      114.412       37.782       83.765        0.043        0.012       23.815        3.124        0.017      343.134       19.033      867.204
06/27/2013  07:42:00      -24.713       23.379        9.738       23.897       17.976       21.180      571.073      323.130      448.602        0.130        0.067       34.019       17.356        0.260      343.400       19.487      867.205
06/27/2013  07:43:00        4.729      -34.350       18.040       29.559       32.204       23.334      873.729     1037.093      544.472        0.199        0.123       34.674       11.216        0.105      343.171       19.095      867.221
06/27/2013  07:44:00       -2.735        0.812       28.731       15.507       19.408       17.718      240.469      376.654      313.928        0.088        0.047        2.853       14.272       25.027      344.359       21.122      867.237
06/27/2013  07:45:00       44.947       23.012       18.235       28.401       20.115       25.270      806.607      404.630      638.590        0.237        0.092       50.495       23.992        0.226      343.690       19.981      867.251
06/27/2013  07:46:00       33.695       32.610       25.630       21.952       24.847       21.392      481.910      617.378      457.605        0.221        0.078       46.891       14.882        0.101      343.364       19.423      867.264
06/27/2013  07:47:00       35.763       37.735       10.583       19.184       14.708       21.724      368.029      216.314      471.935        0.194        0.053       51.990       14.182        0.074      343.312       19.336      867.276
06/27/2013  07:48:00       51.907       35.501        9.688       21.312       14.929       23.842      454.182      222.881      568.425        0.265        0.062       62.886       10.609        0.028      343.226       19.188      867.281
06/27/2013  07:49:00       50.846       20.741       12.119       23.537       25.781       21.730      554.003      664.660      472.211        0.243        0.085       54.914       13.303        0.059      343.347       19.397      867.296
06/27/2013  07:50:00        5.340       13.617       29.170       14.521       19.209       16.191      210.863      368.983      262.156        0.095        0.042       14.627        6.996        0.229      344.214       20.876      867.307
06/27/2013  07:51:00      -13.061      -18.154       12.307       20.141       16.282       14.919      405.648      265.108      222.589        0.077        0.045       22.365       13.509        0.365      343.593       19.815      867.322
06/27/2013  07:52:00      -22.667      -10.371        8.402       22.533       17.111       16.147      507.747      292.770      260.733        0.088        0.053       24.927       12.242        0.241      343.601       19.829      867.327
06/27/2013  07:53:00      -43.959      -23.732       -4.430       14.840        6.327        7.641      220.232       40.028       58.380        0.142        0.016       49.956        6.694        0.018      343.212       19.165      867.324
06/27/2013  07:54:00      -11.949        6.144        7.496       19.340       19.555       19.972      374.054      382.412      398.896        0.070        0.058       13.436       12.791        0.906      343.748       20.078      867.337
06/27/2013  07:55:00      -25.591       22.645        9.836       21.641       19.759       19.674      468.322      390.417      387.058        0.125        0.062       34.172       14.685        0.185      343.723       20.037      867.333
06/27/2013  07:56:00      -33.329       -2.547        7.626       17.924       17.530       18.769      321.281      307.298      352.287        0.108        0.049       33.427       14.993        0.201      343.753       20.088      867.341
06/27/2013  07:57:00       -5.886      -20.381        4.236       20.810       21.772       15.918      433.043      474.011      253.378        0.081        0.058       21.213       11.064        0.272      343.567       19.771      867.349
06/27/2013  07:58:00       -1.890      -11.151       31.512       10.644       19.142       13.789      113.288      366.425      190.129        0.090        0.033       11.310       11.181        0.977      344.745       21.783      867.348
06/27/2013  07:59:00      -14.809       29.846       52.804       15.093       21.934       19.306      227.784      481.080      372.706        0.249        0.054       33.318       13.285        0.159      344.306       21.032      867.361
06/27/2013  08:00:00      -36.468       -0.209        6.647        9.185        9.769        9.146       84.370       95.438       83.646        0.082        0.013       36.469        6.156        0.028      343.445       19.561      867.356
06/27/2013  08:01:00      -30.984       13.152       11.291       15.444       13.261       13.547      238.521      175.844      183.518        0.093        0.030       33.660        9.428        0.078      343.749       20.081      867.359
06/27/2013  08:02:00      -52.130      -23.529        7.793       29.072       26.457       19.430      845.172      699.958      377.515        0.263        0.096       57.194       19.657        0.118      343.848       20.250      867.361
06/27/2013  08:03:00      -48.627       -3.391        4.165       16.560       14.125       11.546      274.238      199.519      133.307        0.150        0.030       48.745        8.547        0.031      343.424       19.526      867.361
06/27/2013  08:04:00      -48.878       15.632        4.900       13.166       14.254        6.724      173.354      203.183       45.206        0.154        0.021       51.317        7.225        0.020      343.399       19.482      867.354
06/27/2013  08:05:00      -62.902       10.664        3.285       14.352       17.806        9.145      205.983      317.068       83.624        0.234        0.030       63.799        5.428        0.007      343.438       19.549      867.334
06/27/2013  08:06:00      -53.364        6.248       -0.678       15.670        9.675        9.462      245.554       93.613       89.528        0.166        0.021       53.728        8.163        0.023      343.487       19.631      867.327
06/27/2013  08:07:00      -78.717      -19.764       -3.755       15.936       23.350       12.523      253.955      545.240      156.825        0.378        0.048       81.160        3.526        0.002      343.525       19.698      867.317
06/27/2013  08:08:00      -58.182      -17.754       -2.446       26.212       18.881       13.270      687.058      356.492      176.087        0.246        0.061       60.830        9.887        0.026      343.649       19.908      867.308
06/27/2013  08:09:00      -27.520      -16.043        3.863       30.168       30.886       20.478      910.079      953.922      419.368        0.166        0.114       31.855       19.067        0.358      344.053       20.598      867.315
06/27/2013  08:10:00      -29.852      -14.300        7.308       21.757       23.109       15.013      473.367      534.015      225.376        0.119        0.062       33.101       12.432        0.141      344.142       20.751      867.324
06/27/2013  08:11:00       -2.651        3.125       27.046        9.717       10.982       10.212       94.423      120.611      104.285        0.053        0.016        4.098        5.128        1.565      345.535       23.135      867.328
06/27/2013  08:12:00      -22.354       16.861        9.389       12.200       15.978       24.171      148.852      255.296      584.219        0.093        0.049       28.000       13.003        0.216      344.435       21.253      867.335
06/27/2013  08:13:00      -18.693       -4.707        8.535       14.239       11.231       18.248      202.752      126.137      332.978        0.055        0.033       19.276       11.035        0.328      344.670       21.656      867.336
06/27/2013  08:14:00      -40.842      -21.502       -0.013       13.766       14.815        8.785      189.494      219.490       77.171        0.131        0.024       46.157        6.084        0.017      343.878       20.301      867.338
06/27/2013  08:15:00      -26.793      -37.743        2.771       20.802       16.451       13.321      432.705      270.642      177.454        0.152        0.044       46.286        7.231        0.024      343.909       20.352      867.344
06/27/2013  08:16:00      -54.362      -59.402        8.042       25.542       26.389       19.134      652.377      696.361      366.106        0.413        0.086       80.522       17.922        0.050      343.890       20.321      867.353
06/27/2013  08:17:00      -19.234      -24.355        8.101       22.048       26.087       17.797      486.097      680.510      316.733        0.126        0.074       31.034       17.032        0.301      344.221       20.887      867.363
06/27/2013  08:18:00      -25.852       18.934       31.424       16.746       18.230       19.950      280.439      332.332      398.012        0.151        0.051       32.044       12.223        0.146      345.068       22.339      867.371
06/27/2013  08:19:00      -21.225       12.118       23.735       14.707       24.222       23.939      216.283      586.714      573.089        0.127        0.069       24.441       17.543        0.515      344.757       21.806      867.377
06/27/2013  08:20:00      -10.985       16.660       59.737       15.136       21.920       13.839      229.108      480.470      191.527        0.243        0.045       19.956        9.158        0.211      345.021       22.255      867.390
06/27/2013  08:21:00      -66.656        2.902        1.301       25.982       13.538       19.297      675.040      183.268      372.378        0.284        0.062       66.719       20.835        0.098      344.076       20.637      867.397
06/27/2013  08:22:00      -55.392       -3.980        6.144       25.025       18.328       15.093      626.263      335.932      227.803        0.216        0.059       55.535       16.157        0.085      344.340       21.090      867.401
06/27/2013  08:23:00      -16.076       -2.125        7.220       22.997       27.263       26.393      528.846      743.250      696.615        0.114        0.098       16.215       24.262        2.239      344.416       21.221      867.399
06/27/2013  08:24:00      -46.348      -27.898       -4.540       23.050       24.345       12.750      531.311      592.698      162.569        0.212        0.064       54.096       10.866        0.040      344.210       20.869      867.397
06/27/2013  08:25:00      -21.412      -60.659        6.008       26.749       18.759       16.689      715.505      351.898      278.522        0.276        0.067       64.327       15.043        0.055      344.234       20.908      867.390
06/27/2013  08:26:00      -25.173       11.366        7.262       28.310       26.178       28.668      801.430      685.311      821.870        0.156        0.115       27.620       20.620        0.557      344.658       21.633      867.389
06/27/2013  08:27:00      -22.958        9.387       22.496       21.278       15.569       15.825      452.774      242.402      250.441        0.103        0.047       24.803        8.208        0.110      345.123       22.432      867.388
06/27/2013  08:28:00      -48.956       18.064        3.362       13.497       16.816       18.063      182.160      282.773      326.274        0.176        0.040       52.182       13.230        0.064      344.392       21.178      867.381
06/27/2013  08:29:00      -36.266       19.330        9.991       21.162       14.374       20.412      447.835      206.622      416.665        0.143        0.054       41.096       14.041        0.117      344.797       21.873      867.379
06/27/2013  08:30:00       -8.781       18.824       37.199       25.462       22.575       19.301      648.310      509.613      372.513        0.167        0.077       20.772       17.361        0.699      345.290       22.715      867.376
06/27/2013  08:31:00       -2.819       27.223       37.851       36.885       36.593       24.702     1360.520     1339.057      610.205        0.275        0.165       27.369        5.827        0.045      344.786       21.853      867.373
06/27/2013  08:32:00       36.500       57.038       36.186       30.003       27.203       20.636      900.161      740.024      425.828        0.398        0.103       67.717       13.945        0.042      344.836       21.937      867.361
06/27/2013  08:33:00       29.331       37.147       14.303       26.232       27.343       28.786      688.122      747.617      828.660        0.235        0.113       47.330       19.931        0.177      345.026       22.265      867.363
06/27/2013  08:34:00        3.214       18.535       57.534       24.265       27.006       14.614      588.795      729.340      213.562        0.260        0.077       18.811       12.501        0.442      345.693       23.406      867.358
06/27/2013  08:35:00        9.116      -36.490       21.191       28.218       48.095       25.382      796.242     2313.092      644.264        0.281        0.188       37.611       27.513        0.535      345.198       22.559      867.349
06/27/2013  08:36:00        9.274      -17.083       22.503       23.274       43.293       34.672      541.659     1874.244     1202.137        0.225        0.181       19.438       30.339        2.436      345.314       22.757      867.343
06/27/2013  08:37:00       23.292       -0.007       51.470       31.117       34.197       27.717      968.248     1169.414      768.205        0.305        0.145       23.292       19.868        0.728      345.416       22.934      867.338
06/27/2013  08:38:00       38.787       32.594       49.079       37.613       30.117       28.713     1414.740      907.017      824.415        0.406        0.157       50.664       26.172        0.267      345.082       22.359      867.323
06/27/2013  08:39:00       10.886       30.008       25.903       23.374       29.265       21.102      546.355      856.466      445.309        0.177        0.092       31.922        5.673        0.032      345.164       22.500      867.306
06/27/2013  08:40:00       16.051       15.358       18.518       28.922       26.440       25.542      836.458      699.077      652.369        0.151        0.109       22.215       17.637        0.630      345.193       22.549      867.293
06/27/2013  08:41:00       16.447       29.876       15.311       33.160       24.276       24.536     1099.575      589.315      602.004        0.184        0.115       34.104       17.783        0.272      345.359       22.833      867.278
06/27/2013  08:42:00        7.342       22.287       32.706       21.492       27.477       18.989      461.927      755.010      360.576        0.160        0.079       23.465       11.605        0.245      345.545       23.152      867.265
06/27/2013  08:43:00      -25.484        3.306       16.403       38.274       18.478       15.498     1464.930      341.440      240.174        0.149        0.102       25.698       18.441        0.515      344.989       22.199      867.252
06/27/2013  08:44:00      -23.204       -5.866       12.203       26.591       19.970       18.541      707.076      398.785      343.779        0.109        0.072       23.934       18.462        0.595      345.408       22.919      867.247
06/27/2013  08:45:00        9.102        0.446       36.680       18.002       10.978       13.609      324.073      120.510      185.200        0.103        0.031        9.112        8.147        0.799      345.962       23.867      867.244
06/27/2013  08:46:00       -3.172      -11.983       50.618       19.581       33.289       16.245      383.417     1108.129      263.903        0.224        0.088       12.396       14.725        1.411      345.836       23.652      867.229
06/27/2013  08:47:00       23.287       32.277       50.027       36.255       52.796       33.814     1314.455     2787.460     1143.356        0.466        0.262       39.800       33.104        0.692      345.564       23.186      867.229
06/27/2013  08:48:00       32.544       25.525       30.734       35.390       30.042       27.946     1252.420      902.528      780.966        0.279        0.147       41.360       11.178        0.073      345.367       22.848      867.225
06/27/2013  08:49:00        9.481       18.847       41.031       27.426       29.496       24.871      752.204      870.028      618.589        0.218        0.112       21.098       17.479        0.686      345.600       23.247      867.227
06/27/2013  08:50:00       31.944       31.077       -5.863       28.488       35.354       19.969      811.579     1249.939      398.753        0.224        0.123       44.567       17.330        0.151      344.948       22.128      867.221
06/27/2013  08:51:00       -3.764       18.516       54.974       27.320       31.951       39.726      746.373     1020.879     1578.139        0.336        0.167       18.895       26.475        1.963      345.832       23.646      867.228
06/27/2013  08:52:00       30.457       32.594       44.151       40.973       31.623       37.395     1678.788     1000.019     1398.390        0.401        0.204       44.609       28.718        0.414      345.165       22.502      867.233
06/27/2013  08:53:00       86.628       43.406       10.078       35.161       26.832       31.658     1236.320      719.966     1002.222        0.622        0.148       96.894       19.449        0.040      345.193       22.550      867.231
06/27/2013  08:54:00       63.614       23.741       24.986       42.763       36.008       29.572     1828.659     1296.598      874.490        0.462        0.200       67.900       15.170        0.050      345.318       22.762      867.240
06/27/2013  08:55:00      149.338       71.599       21.342       42.365       37.990       38.752     1794.761     1443.238     1501.725        1.631        0.237      165.615       25.603        0.024      344.914       22.071      867.230
06/27/2013  08:56:00      124.308       81.196       17.810       43.539       35.022       28.893     1895.686     1226.518      834.818        1.316        0.198      148.476       11.487        0.006      344.896       22.040      867.237
06/27/2013  08:57:00      127.110       93.149       23.237       33.104       35.774       32.887     1095.857     1279.773     1081.558        1.441        0.173      157.587       23.709        0.023      345.024       22.258      867.240
06/27/2013  08:58:00      107.976       79.724       16.731       27.469       26.292       21.210      754.561      691.290      449.884        1.009        0.095      134.219       12.068        0.008      344.708       21.720      867.239
06/27/2013  08:59:00       78.219       62.159        5.278       55.476       40.744       28.983     3077.544     1660.072      840.009        0.779        0.279       99.910       19.979        0.040      345.171       22.510      867.241
06/27/2013  09:00:00      153.338       85.086       14.078       53.159       50.647       36.580     2825.875     2565.134     1338.117        1.884        0.336      175.363        9.126        0.003      344.950       22.132      867.236
06/27/2013  09:01:00      135.000       72.427       14.346       56.526       45.872       43.896     3195.147     2104.280     1926.892        1.545        0.361      153.201       32.052        0.044      345.264       22.670      867.228
06/27/2013  09:02:00       37.319       14.761       35.500       54.515       47.667       33.759     2971.916     2272.141     1139.675        0.463        0.319       40.133       14.585        0.132      345.871       23.711      867.221
06/27/2013  09:03:00       80.363       71.081       20.594       61.941       40.088       42.302     3836.712     1607.017     1789.448        0.958        0.362      107.288       36.556        0.116      345.577       23.206      867.221
06/27/2013  09:04:00       74.883       42.118        5.165       41.675       27.291       34.107     1736.807      744.773     1163.301        0.553        0.182       85.915       15.049        0.031      345.609       23.261      867.216
06/27/2013  09:05:00      123.458       87.190       23.003       62.706       40.249       43.865     3932.064     1619.993     1924.168        1.542        0.374      151.142       23.594        0.024      345.410       22.921      867.218
06/27/2013  09:06:00       86.463       70.609       18.084       48.706       32.710       36.521     2372.309     1069.957     1333.795        0.878        0.239      111.631       20.841        0.035      345.439       22.971      867.213
06/27/2013  09:07:00       55.934       48.240       51.806       53.089       46.689       35.813     2818.479     2179.866     1282.601        0.721        0.314       73.863       26.623        0.130      345.789       23.572      867.212
06/27/2013  09:08:00      126.042      110.455       36.133       48.605       40.882       37.937     2362.401     1671.337     1439.207        1.743        0.274      167.592       32.098        0.037      345.413       22.925      867.194
06/27/2013  09:09:00      125.840       88.767       17.836       38.327       33.375       36.339     1468.986     1113.920     1320.499        1.397        0.195      153.997       23.995        0.024      345.288       22.711      867.202
06/27/2013  09:10:00       64.719       35.026       29.803       41.289       35.708       35.528     1704.771     1275.075     1262.271        0.527        0.212       73.590       21.724        0.087      345.586       23.221      867.198
06/27/2013  09:11:00       45.490       63.000        7.114       46.369       35.009       40.054     2150.043     1225.640     1604.311        0.553        0.249       77.707       28.108        0.131      345.479       23.040      867.198
06/27/2013  09:12:00       34.704       90.373        0.682       40.552       37.887       26.299     1644.426     1435.395      691.646        0.657        0.189       96.807       19.956        0.042      345.583       23.217      867.192
06/27/2013  09:13:00       56.329       54.763       13.863       36.783       38.124       29.677     1353.022     1453.461      880.738        0.502        0.184       78.562       20.411        0.068      345.632       23.302      867.189
06/27/2013  09:14:00       37.695       73.968       16.637       63.142       47.025       34.870     3986.909     2211.378     1215.895        0.729        0.371       83.019       28.319        0.116      345.766       23.532      867.171
06/27/2013  09:15:00       74.607       42.887       30.560       57.475       45.468       38.435     3303.319     2067.324     1477.214        0.759        0.342       86.056       30.232        0.123      346.034       23.992      867.159
06/27/2013  09:16:00      114.206       68.419       42.934       62.045       57.385       41.209     3849.551     3292.994     1698.142        1.420        0.442      133.133       22.728        0.029      345.628       23.295      867.149
06/27/2013  09:17:00       69.418       62.459       40.164       48.816       45.768       37.863     2382.999     2094.674     1433.618        0.812        0.296       93.381       19.079        0.042      345.703       23.422      867.144
06/27/2013  09:18:00       24.417       17.006       18.062       32.500       28.603       29.191     1056.238      818.137      852.111        0.197        0.136       29.755       14.125        0.225      345.756       23.513      867.142
06/27/2013  09:19:00       23.460       42.334        3.204       26.391       30.741       22.885      696.488      944.980      523.746        0.226        0.108       48.400       16.386        0.115      345.615       23.271      867.136
06/27/2013  09:20:00       -8.832       37.934        3.185       22.977       32.672       26.842      527.953     1067.480      720.489        0.192        0.116       38.949       22.434        0.332      345.996       23.927      867.118
06/27/2013  09:21:00      -39.166       17.576        1.189       27.364       22.444       20.158      748.771      503.735      406.353        0.175        0.083       42.929       10.691        0.062      345.805       23.599      867.110
06/27/2013  09:22:00      -19.043       41.447       16.844       22.187       34.524       24.231      492.261     1191.873      587.160        0.232        0.114       45.613       20.586        0.204      346.454       24.715      867.103
06/27/2013  09:23:00        1.725       11.752       26.582       18.309       19.054       17.393      335.204      363.073      302.521        0.092        0.050       11.878       10.381        0.764      346.977       25.613      867.093
06/27/2013  09:24:00       29.963       13.889       21.586       20.471       17.580       24.073      419.082      309.073      579.521        0.143        0.065       33.026        8.814        0.071      346.378       24.583      867.082
06/27/2013  09:25:00       45.888       40.606       15.382       45.622       32.831       24.178     2081.385     1077.849      584.594        0.387        0.187       61.274       13.284        0.047      346.078       24.067      867.075
06/27/2013  09:26:00       92.738       56.732       16.066       47.206       42.297       43.633     2228.384     1789.016     1903.824        0.900        0.296      108.715       28.858        0.070      345.885       23.736      867.063
06/27/2013  09:27:00       96.159       70.440       15.361       52.605       35.308       30.927     2767.296     1246.685      956.492        0.971        0.249      119.199       18.170        0.023      345.883       23.732      867.050
06/27/2013  09:28:00       64.546       45.522        3.998       45.528       33.450       28.362     2072.785     1118.929      804.431        0.512        0.200       78.984       21.048        0.071      345.970       23.882      867.046
06/27/2013  09:29:00       25.123       34.511       12.052       45.000       32.416       32.829     2025.003     1050.796     1077.714        0.306        0.208       42.687       25.588        0.359      346.444       24.697      867.037
06/27/2013  09:30:00       23.212       49.261       17.001       42.708       40.210       32.821     1823.938     1616.810     1077.205        0.389        0.226       54.456       19.801        0.132      346.517       24.823      867.038
06/27/2013  09:31:00       -0.184       66.541        3.798       31.883       42.053       32.137     1016.547     1768.468     1032.784        0.413        0.191       66.541       25.339        0.145      346.450       24.708      867.040
06/27/2013  09:32:00       50.680       53.066       25.744       67.877       34.986       36.716     4607.344     1223.994     1348.063        0.661        0.359       73.379       17.116        0.054      346.333       24.506      867.041
06/27/2013  09:33:00       67.224       30.625       27.963       37.155       62.628       43.042     1380.496     3922.275     1852.594        0.670        0.358       73.872       41.449        0.315      345.676       23.376      867.055
06/27/2013  09:34:00       86.922       77.076       27.713       33.195       33.155       41.068     1101.941     1099.258     1686.540        0.908        0.194      116.173       29.352        0.064      345.545       23.151      867.059
06/27/2013  09:35:00      104.717       66.511       17.979       56.945       39.615       42.256     3242.739     1569.383     1785.544        1.115        0.330      124.054       26.417        0.045      346.018       23.963      867.062
06/27/2013  09:36:00       83.485       53.517       17.832       50.830       30.424       34.052     2583.643      925.615     1159.536        0.741        0.233       99.166       19.141        0.037      346.352       24.537      867.052
06/27/2013  09:37:00       84.545       85.917        2.363       35.152       25.101       36.765     1235.677      630.084     1351.698        0.888        0.161      120.539       13.559        0.013      345.964       23.871      867.064
06/27/2013  09:38:00       41.126       70.821        0.925       27.421       32.625       30.965      751.893     1064.365      958.804        0.474        0.139       81.896       25.393        0.096      346.074       24.060      867.059
06/27/2013  09:39:00       27.265       23.495       16.708       22.502       41.135       26.930      506.356     1692.051      725.251        0.225        0.146       35.991       29.514        0.672      346.236       24.340      867.059
06/27/2013  09:40:00       31.149       44.607       11.602       39.555       29.424       25.745     1564.598      865.800      662.795        0.309        0.155       54.406        9.567        0.031      346.350       24.535      867.064
06/27/2013  09:41:00       50.518       52.352       47.393       50.867       30.314       39.765     2587.407      918.954     1581.252        0.631        0.254       72.752       22.734        0.098      346.111       24.126      867.061
06/27/2013  09:42:00       34.453       53.136       36.749       24.802       19.950       16.440      615.132      398.004      270.272        0.332        0.064       63.328       10.679        0.028      346.047       24.015      867.066
06/27/2013  09:43:00       41.463       57.727       -0.873       29.552       28.909       26.825      873.308      835.757      719.607        0.374        0.121       71.075       14.244        0.040      346.056       24.029      867.050
06/27/2013  09:44:00       26.786       48.822       15.300       29.183       30.323       31.521      851.653      919.481      993.563        0.305        0.138       55.687       23.727        0.182      346.412       24.641      867.045
06/27/2013  09:45:00       10.729       29.382       17.256       26.745       39.023       25.549      715.297     1522.831      652.762        0.208        0.145       31.279       26.183        0.701      346.638       25.030      867.036
06/27/2013  09:46:00       27.046       12.971       19.300       40.778       29.248       21.318     1662.855      855.468      454.441        0.212        0.149       29.996       17.344        0.334      346.629       25.015      867.026
06/27/2013  09:47:00       13.498      -11.641       25.396       29.119       26.163       24.120      847.894      684.497      581.794        0.154        0.106       17.824       17.565        0.971      346.825       25.353      867.017
06/27/2013  09:48:00       71.547       40.787       27.697       56.341       45.960       33.009     3174.343     2112.365     1089.595        0.696        0.319       82.357       27.793        0.114      346.255       24.372      867.005
06/27/2013  09:49:00       67.761       35.672        5.736       66.342       35.032       31.332     4401.297     1227.275      981.694        0.625        0.331       76.577       15.727        0.042      346.601       24.967      867.002
06/27/2013  09:50:00       19.059      -17.543       20.660       56.599       53.274       33.200     3203.435     2838.143     1102.235        0.412        0.357       25.904       38.644        2.225      346.824       25.352      866.990
06/27/2013  09:51:00       24.130       36.407       67.371       39.835       58.657       38.021     1586.807     3440.652     1445.614        0.646        0.324       43.677       28.558        0.428      346.617       24.994      866.995
06/27/2013  09:52:00       49.907       74.225       70.228       35.683       24.613       25.627     1273.250      605.787      656.744        0.773        0.127       89.444       15.263        0.029      346.232       24.333      866.994
06/27/2013  09:53:00       76.713       84.161       17.454       47.831       22.896       40.944     2287.820      524.227     1676.424        0.888        0.224      113.877       35.713        0.098      345.974       23.890      867.002
06/27/2013  09:54:00       33.133       41.410        9.168       34.399       43.990       31.810     1183.293     1935.145     1011.865        0.351        0.207       53.034       27.529        0.269      346.425       24.662      866.992
06/27/2013  09:55:00      -37.140       12.879       12.044       24.098       19.645       22.206      580.699      385.920      493.112        0.157        0.073       39.310       13.430        0.117      346.583       24.936      866.996
06/27/2013  09:56:00       -9.504        6.124       41.309       17.229       23.652       16.704      296.838      559.430      279.012        0.148        0.057       11.306       10.614        0.881      347.564       26.627      866.988
06/27/2013  09:57:00       67.479       53.674       36.170       55.034       41.848       39.523     3028.713     1751.268     1562.031        0.754        0.317       86.222       19.884        0.053      347.189       25.978      866.993
06/27/2013  09:58:00       39.613       72.917       -4.179       38.358       37.811       23.596     1471.357     1429.675      556.767        0.518        0.173       82.982       17.948        0.047      346.446       24.698      866.981
06/27/2013  09:59:00       32.430       47.052       22.159       51.412       41.375       36.928     2643.232     1711.930     1363.647        0.474        0.286       57.146       21.022        0.135      346.799       25.307      866.986
06/27/2013  10:00:00       39.328       64.279       71.770       41.782       39.214       35.250     1745.732     1537.717     1242.568        0.768        0.226       75.355       33.221        0.194      346.645       25.041      866.980
06/27/2013  10:01:00       56.900        9.856       23.107       46.622       47.870       33.451     2173.641     2291.532     1118.970        0.473        0.279       57.747       14.168        0.060      346.655       25.058      866.987
06/27/2013  10:02:00      -12.815      -65.567       -7.980       27.723       27.725       19.896      768.564      768.679      395.850        0.323        0.097       66.808       13.797        0.043      346.211       24.296      866.984
06/27/2013  10:03:00      -19.492       -2.711        0.885        8.485        7.883        9.726       71.993       62.139       94.603        0.031        0.011       19.680        3.278        0.028      346.555       24.888      866.977
06/27/2013  10:04:00      -13.757       -2.671       13.310       26.897       34.345       29.470      723.447     1179.583      868.457        0.157        0.139       14.014       26.113        3.472      347.099       25.823      866.967
06/27/2013  10:05:00       29.713     -112.801       -7.135       53.782       50.566       41.874     2892.543     2556.964     1753.412        1.043        0.360      116.649       26.829        0.053      346.973       25.606      866.970
06/27/2013  10:06:00       57.384      -46.068       15.567       63.739       85.345       54.084     4062.626     7283.846     2925.085        0.996        0.714       73.588       64.486        0.768      347.109       25.840      866.977
06/27/2013  10:07:00       69.298     -128.902      -22.562       48.156       63.939       38.356     2319.021     4088.158     1471.146        1.490        0.394      146.349       25.135        0.029      346.852       25.397      866.972
06/27/2013  10:08:00       53.271      -14.940       26.541       34.503       43.327       36.016     1190.472     1877.231     1297.133        0.406        0.218       55.326       34.152        0.381      347.172       25.950      866.988
06/27/2013  10:09:00       13.488       35.870       59.573       34.203       31.395       28.906     1169.825      985.668      835.560        0.400        0.150       38.322       21.476        0.314      347.464       26.454      866.985
06/27/2013  10:10:00       25.299       31.086        8.776       35.428       22.321       30.361     1255.162      498.234      921.812        0.218        0.134       40.080       27.613        0.475      347.106       25.837      866.980
06/27/2013  10:11:00      -10.323       29.246       43.599       24.972       23.687       22.186      623.583      561.088      492.237        0.227        0.084       31.014       16.861        0.296      347.530       26.568      866.978
06/27/2013  10:12:00      -10.254        7.835       21.371       27.186       27.232       18.843      739.080      741.557      355.076        0.123        0.092       12.904       10.221        0.627      347.538       26.581      866.985
06/27/2013  10:13:00       17.043       44.784       -1.842       35.019       58.367       24.663     1226.362     3406.758      608.273        0.377        0.262       47.917       24.521        0.262      347.311       26.189      866.967
06/27/2013  10:14:00       -4.812       30.258        9.070       23.461       46.539       27.017      550.436     2165.842      729.944        0.223        0.172       30.638       28.153        0.844      347.574       26.642      866.956
06/27/2013  10:15:00        6.957       40.877       24.513       24.699       34.617       23.769      610.033     1198.352      564.975        0.235        0.119       41.465       21.368        0.266      347.970       27.327      866.945
06/27/2013  10:16:00        2.088       85.426        4.619       36.376       52.664       33.359     1323.222     2773.541     1112.833        0.627        0.260       85.451       24.746        0.084      347.637       26.753      866.941
06/27/2013  10:17:00       25.437       50.419       15.759       38.611       38.717       27.528     1490.848     1499.006      757.803        0.359        0.187       56.472       21.713        0.148      347.984       27.350      866.930
06/27/2013  10:18:00       50.800       40.203       13.473       44.278       25.152       25.394     1960.543      632.647      644.856        0.381        0.162       64.784       13.546        0.044      347.263       26.107      866.937
06/27/2013  10:19:00        5.168      110.921       -9.778       37.287       65.527       31.776     1390.297     4293.803     1009.716        0.956        0.335      111.042       32.688        0.087      346.982       25.623      866.938
06/27/2013  10:20:00      -67.056       65.983      -26.905       44.091       33.162       24.276     1944.047     1099.732      589.334        0.660        0.182       94.076       13.725        0.021      346.854       25.402      866.952
06/27/2013  10:21:00      -13.404       16.779       34.147       58.861       19.696       26.896     3464.565      387.933      723.400        0.310        0.229       21.476       33.607        2.449      347.628       26.736      866.956
06/27/2013  10:22:00        7.130       12.216       36.145       19.449       17.085       17.812      378.277      291.906      317.271        0.125        0.049       14.144        5.836        0.170      348.492       28.229      866.968
06/27/2013  10:23:00       22.131       11.414       26.299       42.887       48.731       22.927     1839.297     2374.725      525.625        0.302        0.237       24.901       21.807        0.767      347.670       26.809      866.967
06/27/2013  10:24:00       76.977     -108.409      -15.753       76.664       56.351       36.411     5877.403     3175.428     1325.759        1.415        0.519      132.959       23.006        0.030      347.222       26.034      866.974
06/27/2013  10:25:00       71.526      -45.815       15.381       62.459       74.061       49.955     3901.113     5485.084     2495.517        0.966        0.594       84.941       51.479        0.367      347.450       26.427      866.971
06/27/2013  10:26:00       57.573      -42.416       22.435       51.815       38.041       38.395     2684.762     1447.087     1474.177        0.561        0.280       71.511       31.843        0.198      347.318       26.202      866.975
06/27/2013  10:27:00       34.851       -9.345       29.683       28.473       32.098       26.867      810.695     1030.312      721.841        0.237        0.128       36.082       22.875        0.402      347.448       26.426      866.974
06/27/2013  10:28:00       19.374      -30.477       -4.895       23.203       18.328       24.872      538.393      335.921      618.622        0.141        0.075       36.114       12.428        0.118      347.217       26.026      866.961
06/27/2013  10:29:00       37.973       25.706       32.624       25.794       50.144       38.070      665.327     2514.464     1449.340        0.390        0.231       45.856       36.627        0.638      347.357       26.268      866.944
06/27/2013  10:30:00      -22.870      -11.728       20.102       34.955       45.881       32.085     1221.886     2105.039     1029.416        0.271        0.218       25.702       34.165        1.767      347.664       26.798      866.935
06/27/2013  10:31:00       -8.881      -24.196       20.007       42.495       35.250       28.058     1805.837     1242.595      787.230        0.245        0.192       25.774       19.042        0.546      347.790       27.017      866.936
06/27/2013  10:32:00      -57.625       -3.864        6.057       41.496       24.022       17.066     1721.915      577.047      291.265        0.298        0.130       57.754       19.365        0.112      347.220       26.032      866.934
06/27/2013  10:33:00      -22.935       -1.298       19.414       14.167       17.150       18.481      200.696      294.108      341.555        0.087        0.042       22.972       12.460        0.294      347.640       26.755      866.933
06/27/2013  10:34:00       39.128       29.202       31.522       40.379       30.802       33.188     1630.468      948.741     1101.426        0.353        0.184       48.824       14.392        0.087      347.989       27.359      866.933
06/27/2013  10:35:00        1.551       55.953       20.006       38.665       45.581       38.087     1494.978     2077.582     1450.639        0.428        0.251       55.974       34.842        0.387      348.061       27.484      866.936
06/27/2013  10:36:00       25.888      101.938        0.738       41.581       52.061       39.166     1728.973     2710.300     1533.946        0.852        0.299      105.173       36.202        0.118      347.740       26.929      866.930
06/27/2013  10:37:00        8.460       46.897       22.206       26.432       41.446       39.923      698.629     1717.791     1593.844        0.339        0.201       47.654       30.195        0.401      348.125       27.594      866.930
06/27/2013  10:38:00        8.831       18.821       31.874       18.178       18.123       19.734      330.427      328.454      389.446        0.125        0.052       20.790        7.638        0.135      348.296       27.889      866.930
06/27/2013  10:39:00        8.117       22.226       28.300       34.675       35.940       23.724     1202.345     1291.649      562.845        0.221        0.153       23.662       13.418        0.322      348.205       27.732      866.920
06/27/2013  10:40:00       55.787       88.066        0.363       49.312       47.659       31.943     2431.652     2271.388     1020.327        0.829        0.286      104.249       30.642        0.086      348.070       27.498      866.904
06/27/2013  10:41:00       22.849       26.949       31.011       68.573       41.181       31.774     4702.247     1695.875     1009.579        0.481        0.370       35.332       31.536        0.797      348.120       27.585      866.894
06/27/2013  10:42:00      116.088       42.527       26.271       54.635       53.366       36.690     2985.009     2847.977     1346.144        1.158        0.359      123.632       15.455        0.016      347.682       26.829      866.877
06/27/2013  10:43:00       88.771       75.288       26.272       59.897       48.548       41.044     3587.696     2356.922     1684.634        1.093        0.381      116.398       15.138        0.017      347.594       26.676      866.871
06/27/2013  10:44:00       54.679       -8.718        8.245       50.844       70.130       37.555     2585.104     4918.234     1410.360        0.602        0.446       55.369       37.636        0.462      347.621       26.724      866.870
06/27/2013  10:45:00       59.840     -105.934        0.203       39.499       49.812       35.823     1560.198     2481.205     1283.318        1.006        0.266      121.667       29.020        0.057      347.629       26.738      866.856
06/27/2013  10:46:00        4.081      -23.379       36.528       49.754       78.544       45.535     2475.435     6169.184     2073.440        0.631        0.536       23.732       44.127        3.457      348.159       27.652      866.839
06/27/2013  10:47:00       74.644      -11.353       35.737       70.883      125.345       74.251     5024.359    15711.378     5513.198        1.661        1.312       75.502       83.378        1.220      347.987       27.355      866.845
06/27/2013  10:48:00        8.616      -35.351       32.727       68.726       68.836       44.259     4723.296     4738.393     1958.868        0.691        0.571       36.385       38.045        1.093      347.572       26.640      866.828
06/27/2013  10:49:00      -39.123      -31.819        6.985       23.892       47.485       29.984      570.836     2254.795      899.062        0.316        0.186       50.428       21.273        0.178      347.858       27.134      866.832
06/27/2013  10:50:00      -43.230     -113.935       -6.718       32.085       60.645       22.817     1029.439     3677.875      520.600        1.006        0.261      121.861       12.469        0.010      347.336       26.233      866.840
06/27/2013  10:51:00      -86.061      -57.305       -2.596       37.247       35.789       20.175     1387.331     1280.858      407.024        0.689        0.154      103.394       16.279        0.025      347.335       26.231      866.845
06/27/2013  10:52:00      -47.758       -9.418       18.153       46.519       31.891       26.727     2164.042     1017.046      714.359        0.330        0.195       48.678       30.105        0.382      348.237       27.790      866.834
06/27/2013  10:53:00      -24.734      -15.043       23.449       32.664       28.522       28.666     1066.925      813.499      821.732        0.204        0.135       28.950       24.704        0.728      348.482       28.213      866.837
06/27/2013  10:54:00      -73.595      -42.819       -4.429       45.725       39.913       30.089     2090.817     1593.039      905.376        0.593        0.229       85.145       26.485        0.097      347.795       27.024      866.827
06/27/2013  10:55:00      -59.229      -12.327       13.646       48.730       41.570       33.359     2374.604     1728.092     1112.854        0.453        0.261       60.498       33.117        0.300      347.977       27.339      866.825
06/27/2013  10:56:00      -86.718       16.770        1.907       25.922       29.754       23.297      671.954      885.322      542.765        0.495        0.105       88.325       20.242        0.053      347.715       26.884      866.813
06/27/2013  10:57:00      -10.513       -0.385       38.898       27.300       23.390       21.777      745.294      547.102      474.250        0.169        0.088       10.520       20.087        3.646      348.977       29.068      866.811
06/27/2013  10:58:00      -28.207       35.443       16.435       57.994       38.378       52.818     3363.262     1472.851     2789.767        0.497        0.381       45.297       37.955        0.702      347.983       27.349      866.810
06/27/2013  10:59:00       14.804        3.710       41.915       32.312       27.724       22.922     1044.088      768.644      525.427        0.216        0.117       15.262        9.890        0.420      348.464       28.180      866.806
06/27/2013  11:00:00       14.467      -17.068       43.692       36.324       45.139       37.944     1319.428     2037.569     1439.748        0.360        0.240       22.374       24.473        1.196      348.386       28.044      866.797
06/27/2013  11:01:00       62.688      -19.842       61.107       70.161      140.379       82.346     4922.628    19706.356     6780.902        1.973        1.570       65.753       97.977        2.220      348.184       27.694      866.788
06/27/2013  11:02:00        3.237       32.940       58.523       31.127       52.467       38.469      968.888     2752.803     1479.892        0.486        0.260       33.099       27.755        0.703      348.388       28.049      866.805
06/27/2013  11:03:00       21.555       -0.262       32.045       38.359       46.084       32.434     1471.444     2123.748     1051.950        0.307        0.232       21.556       33.605        2.430      348.474       28.198      866.789
06/27/2013  11:04:00      -11.492       12.545       29.129       46.104       42.324       23.874     2125.584     1791.348      569.975        0.281        0.224       17.013       20.228        1.414      348.386       28.046      866.776
06/27/2013  11:05:00        3.022      -21.315       26.526       20.610       25.180       25.709      424.774      634.009      660.972        0.144        0.086       21.528       18.352        0.727      348.840       28.831      866.766
06/27/2013  11:06:00      -56.431       -7.757        3.936       32.228       28.008       25.841     1038.623      784.453      667.764        0.287        0.125       56.961       25.063        0.194      348.215       27.749      866.755
06/27/2013  11:07:00      -38.007      -23.362        4.863       36.151       35.346       28.148     1306.908     1249.317      792.295        0.268        0.167       44.613       20.661        0.214      348.446       28.150      866.753
06/27/2013  11:08:00       -7.965      -13.744       21.192       44.456       59.591       45.112     1976.297     3551.051     2035.071        0.413        0.378       15.885       42.336        7.103      348.312       27.917      866.741
06/27/2013  11:09:00     -108.147     -144.860      -11.453       46.347       82.600       31.416     2148.005     6822.717      986.942        2.138        0.498      180.776       38.794        0.046      347.858       27.129      866.754
06/27/2013  11:10:00      -62.920      -31.322       -1.108       29.142       43.746       20.444      849.234     1913.693      417.968        0.406        0.159       70.285       22.904        0.106      348.040       27.448      866.753
06/27/2013  11:11:00      -87.192      -38.933        1.048       46.648       41.192       31.328     2176.030     1696.745      981.442        0.699        0.243       95.489       24.792        0.067      348.128       27.598      866.758
06/27/2013  11:12:00      -81.377      -60.115        4.681       33.513       52.646       21.637     1123.094     2771.566      468.152        0.731        0.218      101.173       17.311        0.029      348.023       27.416      866.761
06/27/2013  11:13:00      -70.424      -66.659      -24.094       33.500       37.791       19.565     1122.255     1428.148      382.799        0.646        0.147       96.969       17.123        0.031      347.723       26.898      866.767
06/27/2013  11:14:00       -8.310      -26.367       -5.168       22.086       26.975       31.058      487.779      727.633      964.593        0.149        0.109       27.646       13.677        0.245      348.223       27.763      866.759
06/27/2013  11:15:00      -45.096      -29.485       -2.585       49.819       23.751       26.960     2481.974      564.133      726.866        0.334        0.189       53.880       25.263        0.220      348.129       27.600      866.757
06/27/2013  11:16:00      -57.936      -94.585        8.273       97.548       72.799       50.547     9515.559     5299.628     2554.956        1.487        0.869      110.918       52.078        0.220      348.014       27.400      866.743
06/27/2013  11:17:00     -128.803       40.860      -34.074       95.544       74.983       31.330     9128.564     5622.447      981.564        1.757        0.787      135.129       37.641        0.078      347.704       26.866      866.747
06/27/2013  11:18:00       58.140       72.161        5.494       43.878       36.757       41.511     1925.254     1351.090     1723.158        0.681        0.250       92.669       22.728        0.060      348.302       27.898      866.739
06/27/2013  11:19:00      104.921       82.674       18.256       43.976       40.126       33.172     1933.917     1610.076     1100.382        1.141        0.232      133.579       22.079        0.027      348.212       27.744      866.718
06/27/2013  11:20:00        9.586        9.598       13.484       36.709       30.550       23.868     1347.564      933.298      569.678        0.161        0.143       13.565       19.482        2.063      348.646       28.496      866.721
06/27/2013  11:21:00       14.450       18.119       13.612       29.371       37.625       32.403      862.651     1415.666     1049.935        0.202        0.166       23.176       10.905        0.221      348.589       28.397      866.708
06/27/2013  11:22:00      -22.280       -4.128       -3.128       35.062       18.250       24.895     1229.310      333.058      619.769        0.135        0.109       22.659       14.518        0.411      348.220       27.758      866.705
06/27/2013  11:23:00       43.467       16.488       28.092       53.945       26.924       36.177     2910.093      724.879     1308.789        0.395        0.247       46.489       13.515        0.085      348.738       28.654      866.704
06/27/2013  11:24:00      -32.488      -98.211        2.075       72.832       49.077       31.532     5304.515     2408.544      994.240        0.970        0.435      103.445       12.282        0.014      347.944       27.281      866.712
06/27/2013  11:25:00     -122.152        8.788      -23.375       27.790       45.281       23.164      772.289     2050.406      536.591        0.945        0.168      122.467       19.274        0.025      347.920       27.239      866.686
06/27/2013  11:26:00     -119.034       80.838      -25.401       29.556       49.145       26.632      873.561     2415.239      709.260        1.267        0.200      143.888       10.352        0.005      348.067       27.493      866.690
06/27/2013  11:27:00      -59.211       51.860      -15.960       45.953       36.094       30.461     2111.719     1302.798      927.884        0.540        0.217       78.711       30.651        0.152      348.489       28.223      866.692
06/27/2013  11:28:00      -81.844      -37.641       -5.273       45.406       41.853       35.638     2061.695     1751.661     1270.090        0.661        0.254       90.085       36.856        0.167      348.392       28.055      866.681
06/27/2013  11:29:00       15.757       36.447       16.606       37.739       27.645       31.567     1424.269      764.242      996.505        0.252        0.159       39.707       15.314        0.149      348.757       28.687      866.675
06/27/2013  11:30:00       67.480       61.251       11.259       78.442       39.080       36.798     6153.187     1527.259     1354.071        0.873        0.452       91.133       35.563        0.152      348.541       28.311      866.665
06/27/2013  11:31:00      122.658       97.249       33.449       78.090       50.870       50.823     6098.092     2587.776     2582.989        1.844        0.563      156.532       28.389        0.033      348.472       28.190      866.658
06/27/2013  11:32:00      129.457       72.919       -3.291       48.536       44.001       40.580     2355.773     1936.108     1646.738        1.401        0.297      148.581       16.274        0.012      348.507       28.254      866.649
06/27/2013  11:33:00      104.644       70.375       23.754       40.508       36.828       37.872     1640.859     1356.274     1434.312        1.045        0.222      126.107       26.104        0.043      348.612       28.435      866.657
06/27/2013  11:34:00       64.663       38.126       57.424       48.885       59.270       29.804     2389.741     3512.933      888.276        0.786        0.340       75.066       22.752        0.092      348.643       28.488      866.656
06/27/2013  11:35:00       29.882      -64.430        8.698       43.942       45.771       34.991     1930.924     2094.969     1224.369        0.518        0.263       71.022       15.600        0.048      347.907       27.215      866.648
06/27/2013  11:36:00       39.884       34.321       31.866       42.711       38.829       34.479     1824.257     1507.657     1188.799        0.415        0.226       52.618       18.255        0.120      348.741       28.658      866.637
06/27/2013  11:37:00       47.019      -33.528       36.637       55.350       76.421       50.996     3063.657     5840.206     2600.572        0.809        0.575       57.749       52.296        0.820      348.361       28.001      866.631
06/27/2013  11:38:00       11.611      -57.520       -3.205       40.180       41.398       24.499     1614.408     1713.782      600.180        0.369        0.196       58.681        6.919        0.014      348.017       27.404      866.624
06/27/2013  11:39:00      -33.706       73.863        2.817       60.755       59.885       43.003     3691.171     3586.266     1849.222        0.786        0.456       81.190       25.039        0.095      348.632       28.471      866.612
06/27/2013  11:40:00       31.742       52.628       -1.629       35.548       48.531       35.426     1263.695     2355.303     1255.024        0.433        0.244       61.459       17.881        0.085      348.770       28.709      866.601
06/27/2013  11:41:00       41.090       41.470        2.686       22.585       29.896       36.839      510.061      893.783     1357.123        0.309        0.138       58.379        9.854        0.028      348.601       28.416      866.597
06/27/2013  11:42:00       38.688      -20.251      -11.824       37.331       26.701       19.252     1393.627      712.918      370.622        0.226        0.124       43.668       15.780        0.131      348.205       27.731      866.578
06/27/2013  11:43:00      -26.588      -16.279        6.401       16.319       15.236       20.397      266.319      232.135      416.031        0.096        0.046       31.176       10.457        0.113      348.730       28.639      866.569
06/27/2013  11:44:00      -16.823      -13.276       19.582       17.111       36.360       21.361      292.795     1322.049      456.311        0.146        0.104       21.430        9.978        0.217      349.101       29.283      866.553
06/27/2013  11:45:00       36.803       18.725       21.688       62.915       45.202       33.550     3958.304     2043.246     1125.608        0.465        0.356       41.293       34.370        0.693      349.567       30.091      866.546
06/27/2013  11:46:00      101.818       68.826        6.435       78.493       50.762       41.807     6161.080     2576.801     1747.807        1.281        0.524      122.898       21.257        0.030      348.825       28.804      866.536
06/27/2013  11:47:00       64.162       58.102       16.566       71.362       39.619       32.645     5092.587     1569.690     1065.713        0.775        0.386       86.560       21.627        0.062      348.927       28.980      866.529
06/27/2013  11:48:00       25.800       55.650        4.768       45.925       43.615       32.957     2109.138     1902.243     1086.176        0.444        0.255       61.339       23.303        0.144      349.380       29.767      866.530
06/27/2013  11:49:00       22.002      -55.364       -6.554       36.305       37.204       28.375     1318.038     1384.138      805.121        0.355        0.175       59.576       24.512        0.169      348.364       28.006      866.532
06/27/2013  11:50:00       27.829       -2.883       21.084       25.794       31.624       34.587      665.350     1000.095     1196.265        0.204        0.143       27.978       24.948        0.795      348.835       28.822      866.539
06/27/2013  11:51:00       70.196       58.079       47.279       44.572       61.086       26.986     1986.620     3731.467      728.254        0.849        0.322       91.108       24.113        0.070      348.672       28.540      866.534
06/27/2013  11:52:00       26.483      -10.996       19.281       42.205       32.454       32.318     1781.224     1053.261     1044.430        0.254        0.194       28.676       24.193        0.712      349.018       29.139      866.527
06/27/2013  11:53:00      -62.346       -4.436        5.094       45.198       35.250       28.422     2042.900     1242.591      807.815        0.401        0.205       62.504       26.068        0.174      349.026       29.153      866.522
06/27/2013  11:54:00      -53.498      -13.899        1.345       40.314       42.723       25.616     1625.185     1825.277      656.156        0.358        0.205       55.274       18.282        0.109      349.021       29.144      866.508
06/27/2013  11:55:00      -63.263       -1.323        4.631       36.302       31.586       25.757     1317.855      997.653      663.425        0.350        0.149       63.277       10.622        0.028      349.058       29.209      866.486
06/27/2013  11:56:00      -10.728        3.378       18.780       38.151       26.213       22.647     1455.508      687.144      512.878        0.157        0.133       11.247       18.741        2.777      349.604       30.156      866.461
06/27/2013  11:57:00        0.641      -19.918       25.038       40.565       46.362       27.481     1645.501     2149.455      755.192        0.279        0.228       19.928       29.196        2.146      349.046       29.186      866.459
06/27/2013  11:58:00      -52.732      -14.443        6.221       39.492       52.241       27.792     1559.612     2729.105      772.381        0.404        0.253       54.674       22.377        0.168      349.044       29.183      866.444
06/27/2013  11:59:00      -15.929       22.010       20.417       44.033       40.389       32.777     1938.922     1631.264     1074.320        0.290        0.232       27.170       23.948        0.777      349.664       30.259      866.446
06/27/2013  12:00:00      -47.365       32.253        4.567       41.907       31.613       35.015     1756.173      999.405     1226.025        0.364        0.199       57.303       27.315        0.227      349.634       30.208      866.442
06/27/2013  12:01:00      -33.647      -41.407       11.087       37.689       65.379       27.321     1420.446     4274.365      746.415        0.470        0.322       53.354       23.735        0.198      349.369       29.747      866.448
06/27/2013  12:02:00      -45.396      -27.857       -7.573       52.794       34.352       24.345     2787.228     1180.088      592.701        0.373        0.228       53.262       24.941        0.219      349.141       29.353      866.431
06/27/2013  12:03:00      -33.030      -18.109       -2.369       53.729       38.691       32.648     2886.832     1497.002     1065.914        0.344        0.272       37.669       18.894        0.252      349.163       29.388      866.424
06/27/2013  12:04:00     -121.405     -105.702        1.889       65.241       85.479       38.916     4256.373     7306.645     1514.418        1.949        0.654      160.973       34.739        0.047      348.976       29.063      866.409
06/27/2013  12:05:00     -102.015     -122.787        2.749       69.793       64.584       34.124     4871.108     4171.130     1164.431        1.785        0.510      159.636       31.992        0.040      348.807       28.770      866.421
06/27/2013  12:06:00      -79.773     -105.864       -3.275       97.305       50.273       37.611     9468.218     2527.371     1414.607        1.549        0.671      132.555       37.824        0.081      349.044       29.182      866.409
06/27/2013  12:07:00      -91.541     -148.958        0.051       81.642       79.307       44.604     6665.423     6289.540     1989.490        2.275        0.747      174.838       34.577        0.039      349.119       29.310      866.424
06/27/2013  12:08:00      -75.679      -72.179       17.413      118.382       70.116       55.043    14014.359     4916.283     3029.782        1.660        1.098      104.581       58.084        0.308      349.267       29.569      866.414
06/27/2013  12:09:00     -144.725     -103.378       -2.762       65.671       54.405       34.976     4312.672     2959.927     1223.309        2.007        0.425      177.855       39.270        0.049      348.893       28.920      866.423
06/27/2013  12:10:00      -61.248      -69.551        8.361       78.961       64.293       43.899     6234.761     4133.583     1927.152        1.047        0.615       92.675       42.519        0.210      349.322       29.665      866.414
06/27/2013  12:11:00      -30.803      -29.757        9.118       55.033       30.149       34.033     3028.633      908.943     1158.236        0.351        0.255       42.829       21.506        0.252      349.457       29.901      866.405
06/27/2013  12:12:00      -14.236      -33.373        5.262       36.357       27.035       19.042     1321.833      730.867      362.584        0.188        0.121       36.283       19.037        0.275      349.177       29.414      866.411
06/27/2013  12:13:00       -7.065        8.100       17.115       18.184       16.037       21.126      330.643      257.190      446.311        0.072        0.052       10.748       16.499        2.357      349.995       30.834      866.390
06/27/2013  12:14:00      -31.930      -63.789       11.518       38.968       43.032       21.239     1518.474     1851.710      451.112        0.452        0.191       71.334       26.024        0.133      349.187       29.431      866.391
06/27/2013  12:15:00      -47.839     -130.405        8.241       22.990       51.695       21.625      528.559     2672.333      467.646        1.151        0.183      138.903        8.605        0.004      348.775       28.717      866.370
06/27/2013  12:16:00       15.992       -8.824       26.283       36.258       50.027       29.548     1314.631     2502.729      873.067        0.286        0.235       18.265       30.577        2.802      349.616       30.176      866.369
06/27/2013  12:17:00       31.161        2.101       23.293       26.908       26.593       26.936      724.042      707.198      725.530        0.184        0.108       31.231       18.436        0.348      349.424       29.843      866.359
06/27/2013  12:18:00       13.627       -6.407       40.136       53.026       46.481       31.664     2811.793     2160.447     1002.619        0.391        0.299       15.058       22.003        2.135      349.519       30.007      866.358
06/27/2013  12:19:00      -58.238      -39.349       -7.352       34.809       41.318       23.034     1211.653     1707.151      530.550        0.422        0.172       70.285       13.372        0.036      349.351       29.718      866.354
06/27/2013  12:20:00      -42.487       -8.394        1.356       65.167       46.528       33.666     4246.755     2164.819     1133.402        0.471        0.377       43.308       23.341        0.290      349.595       30.139      866.340
06/27/2013  12:21:00      -35.954      -50.707        8.285       63.690       61.781       47.935     4056.416     3816.834     2297.767        0.705        0.509       62.160       42.468        0.467      349.637       30.212      866.339
06/27/2013  12:22:00      -17.380      -79.284       -6.514       63.273       63.293       43.074     4003.449     4005.972     1855.405        0.825        0.493       81.167       33.004        0.165      349.682       30.290      866.344
06/27/2013  12:23:00        0.130      -96.237      -16.594       73.670       59.324       35.818     5427.207     3519.329     1282.927        0.988        0.511       96.237       17.847        0.034      349.473       29.926      866.358
06/27/2013  12:24:00       29.641      -50.529        1.966       54.137       50.330       28.982     2930.868     2533.138      839.947        0.487        0.315       58.581       18.031        0.095      349.753       30.414      866.355
06/27/2013  12:25:00      -83.084      -39.307       -1.497       49.873       50.190       36.605     2487.285     2519.051     1339.906        0.740        0.317       91.913       32.672        0.126      349.695       30.312      866.370
06/27/2013  12:26:00      -38.601       -7.192       -3.127       49.020       41.686       25.055     2402.920     1737.744      627.759        0.316        0.238       39.266       15.158        0.149      349.703       30.326      866.375
06/27/2013  12:27:00      -58.588      -21.919        5.859       50.227       57.451       21.010     2522.788     3300.640      441.420        0.510        0.313       62.554       24.494        0.153      349.943       30.743      866.381
06/27/2013  12:28:00      -32.628      -16.527       11.988       45.201       42.244       23.950     2043.143     1784.530      573.603        0.294        0.220       36.575       19.754        0.292      349.974       30.797      866.390
06/27/2013  12:29:00       -8.067      -23.850       11.555       47.326       33.564       20.902     2239.778     1126.558      436.878        0.228        0.190       25.177       23.645        0.882      350.024       30.885      866.375
06/27/2013  12:30:00      -47.703      -52.402        4.613       40.339       39.421       25.958     1627.212     1554.006      673.822        0.445        0.193       70.863       12.374        0.030      349.542       30.048      866.386
06/27/2013  12:31:00       19.021      -55.489       11.302       53.940       38.619       34.609     2909.496     1491.431     1197.766        0.458        0.280       58.658       25.136        0.184      349.573       30.101      866.381
06/27/2013  12:32:00       54.241       -8.765       34.200       42.790       35.221       41.874     1830.982     1240.515     1753.406        0.451        0.241       54.945       28.543        0.270      349.461       29.906      866.399
06/27/2013  12:33:00       40.810       13.415       42.358       37.215       31.157       29.607     1384.932      970.754      876.545        0.344        0.162       42.959       25.982        0.366      349.323       29.667      866.400
06/27/2013  12:34:00       46.965       -3.320       28.052       30.463       25.785       25.502      927.993      664.842      650.339        0.262        0.112       47.082       21.170        0.202      349.395       29.792      866.408
06/27/2013  12:35:00       17.678        1.162       15.372       24.666       15.363       19.645      608.435      236.025      385.944        0.089        0.062       17.716        9.173        0.268      349.506       29.986      866.404
06/27/2013  12:36:00      -44.938       15.582      -10.674       73.101       44.701       24.309     5343.829     1998.185      590.945        0.515        0.397       47.563       20.137        0.179      349.267       29.570      866.405
06/27/2013  12:37:00     -161.148      -91.075      -14.634       67.747       50.420       35.671     4589.705     2542.139     1272.424        2.144        0.420      185.104       38.779        0.044      349.102       29.283      866.417
06/27/2013  12:38:00     -174.063     -101.497      -10.564       70.635       92.182       41.568     4989.259     8497.527     1727.880        2.796        0.761      201.493       31.505        0.024      349.259       29.553      866.409
06/27/2013  12:39:00      -30.746       29.891       -6.387       25.332       30.598       31.499      641.716      936.268      992.195        0.222        0.129       42.881       21.027        0.240      349.403       29.805      866.404
06/27/2013  12:40:00       -8.030       -3.198       27.627       22.831       33.776       20.067      521.263     1140.793      402.691        0.145        0.103        8.644       22.097        6.535      349.985       30.816      866.379
06/27/2013  12:41:00        7.563      -62.837       14.598       43.646       34.767       36.173     1904.955     1208.723     1308.499        0.432        0.221       63.290       17.020        0.072      349.723       30.361      866.367
06/27/2013  12:42:00        3.686       19.296       61.928       33.121       47.337       28.490     1097.028     2240.810      811.692        0.418        0.207       19.645       22.003        1.255      349.896       30.662      866.337
06/27/2013  12:43:00        2.694      -82.152        7.241       44.927       80.325       43.277     2018.451     6452.041     1872.910        0.857        0.517       82.196       23.232        0.080      349.614       30.172      866.331
06/27/2013  12:44:00       25.973        6.533       47.293       44.257       77.742       47.060     1958.639     6043.786     2214.683        0.658        0.511       26.782       47.959        3.207      349.667       30.263      866.335
06/27/2013  12:45:00       22.065       95.798        0.004       44.009       43.028       34.535     1936.831     1851.425     1192.664        0.732        0.249       98.306       26.076        0.070      349.260       29.556      866.330
06/27/2013  12:46:00        6.794       47.899        4.956       39.388       83.687       40.525     1551.445     7003.507     1642.287        0.628        0.510       48.379       39.426        0.664      349.714       30.345      866.322
06/27/2013  12:47:00       33.790      -58.291       13.728       35.280       58.070       30.513     1244.713     3372.126      931.027        0.514        0.277       67.376       26.365        0.153      349.583       30.118      866.310
06/27/2013  12:48:00       51.201      -72.352        5.208       43.440       48.659       40.712     1887.035     2367.679     1657.498        0.690        0.296       88.636       38.489        0.189      349.868       30.612      866.319
06/27/2013  12:49:00      -12.350        5.641       11.685       38.116       60.268       33.085     1452.836     3632.194     1094.640        0.325        0.309       13.577       18.709        1.899      350.292       31.350      866.306
06/27/2013  12:50:00       20.918       61.222       -3.983       47.657       34.115       32.664     2271.227     1163.850     1066.956        0.435        0.225       64.697       26.228        0.164      349.842       30.567      866.311
06/27/2013  12:51:00        7.616       55.364       30.222       40.600       59.126       39.914     1648.342     3495.869     1593.139        0.539        0.337       55.885       36.718        0.432      350.190       31.173      866.305
06/27/2013  12:52:00       19.389       48.461       28.126       33.506       33.873       40.115     1122.669     1147.406     1609.230        0.370        0.194       52.195       30.072        0.332      349.925       30.712      866.296
06/27/2013  12:53:00       13.710      130.998        7.165       36.086       66.280       46.810     1302.201     4393.028     2191.154        1.264        0.394      131.714       41.303        0.098      350.006       30.850      866.296
06/27/2013  12:54:00      134.872      129.008       12.474       57.282       66.041       60.339     3281.262     4361.438     3640.809        2.313        0.564      186.638       43.355        0.054      349.735       30.377      866.284
06/27/2013  12:55:00       14.615      144.783      -14.095       83.357       77.315       40.719     6948.435     5977.648     1658.022        1.798        0.729      145.519       42.448        0.085      349.995       30.831      866.265
06/27/2013  12:56:00      -68.532      103.092        1.145       67.565       96.426       48.569     4564.977     9297.973     2358.958        1.577        0.811      123.792       50.947        0.169      350.234       31.248      866.290
06/27/2013  12:57:00     -142.071       59.790      -23.185       55.975       84.153       38.327     3133.160     7081.790     1468.965        1.799        0.584      154.140       24.957        0.026      349.594       30.135      866.295
06/27/2013  12:58:00      -67.972       19.107       -8.243       30.326       35.593       32.064      919.693     1266.826     1028.079        0.413        0.161       70.607       28.302        0.161      349.542       30.046      866.303
06/27/2013  12:59:00       29.987       38.748       22.335       26.402       22.859       27.544      697.085      522.528      758.694        0.244        0.099       48.996       10.156        0.043      350.071       30.965      866.287
06/27/2013  13:00:00       52.390       26.589       25.495       57.280       33.695       36.645     3281.026     1135.324     1342.833        0.493        0.288       58.751       22.821        0.151      349.989       30.822      866.264
06/27/2013  13:01:00      -28.474       25.208       -8.069       46.141       56.757       30.044     2128.992     3221.365      902.652        0.388        0.313       38.029       27.845        0.536      349.988       30.821      866.264
06/27/2013  13:02:00      -93.606       11.188        0.161       56.437       60.399       40.764     3185.093     3648.027     1661.683        0.869        0.425       94.272       25.888        0.075      350.275       31.320      866.261
06/27/2013  13:03:00      -91.529       39.949       -2.420       71.880       85.226       36.449     5166.790     7263.454     1328.505        1.187        0.688       99.867       33.237        0.111      350.195       31.180      866.248
06/27/2013  13:04:00     -233.852      -28.001      -15.220       71.867       57.788       38.620     5164.871     3339.405     1491.529        3.285        0.500      235.523       39.872        0.029      349.791       30.476      866.252
06/27/2013  13:05:00      -64.463       72.872      -20.802       57.640       94.079       37.023     3322.421     8850.934     1370.730        1.172        0.677       97.292       30.098        0.096      349.865       30.606      866.251
06/27/2013  13:06:00       -7.613       80.772       29.417       44.253       58.161       41.287     1958.346     3382.743     1704.611        0.725        0.352       81.130       34.051        0.176      350.652       31.976      866.240
06/27/2013  13:07:00      -44.046      138.588       -9.678       34.006       60.563       30.573     1156.390     3667.864      934.713        1.350        0.288      145.419       26.272        0.033      349.987       30.818      866.243
06/27/2013  13:08:00     -118.752       93.896      -23.713       62.205       58.586       29.225     3869.458     3432.325      854.104        1.582        0.408      151.389       37.279        0.061      349.730       30.373      866.238
06/27/2013  13:09:00     -125.653      112.129      -28.613       39.570       37.252       22.984     1565.823     1387.675      528.247        1.633        0.174      168.409       20.447        0.015      349.825       30.537      866.240
06/27/2013  13:10:00      -32.711       56.484        8.611       51.344       48.707       35.330     2636.160     2372.361     1248.208        0.529        0.313       65.272       30.883        0.224      350.525       31.755      866.233
06/27/2013  13:11:00        8.935      174.430      -16.019       51.589       85.651       30.728     2661.471     7336.059      944.220        2.085        0.547      174.659       36.042        0.043      349.966       30.780      866.209
06/27/2013  13:12:00      -81.727       89.747      -20.842       45.446       54.779       24.666     2065.357     3000.717      608.407        1.042        0.284      121.383       22.628        0.035      349.828       30.543      866.215
06/27/2013  13:13:00        8.759      149.819       -7.243       32.576       95.132       42.446     1061.226     9050.007     1801.662        1.724        0.596      150.075       53.781        0.128      350.395       31.527      866.205
06/27/2013  13:14:00      -16.769      198.799      -27.656       41.218       59.647       26.295     1698.905     3557.771      691.439        2.326        0.297      199.505       27.676        0.019      350.031       30.892      866.204
06/27/2013  13:15:00       13.028      117.338        9.286       48.510       81.569       47.194     2353.260     6653.548     2227.283        1.263        0.562      118.059       34.459        0.085      350.289       31.343      866.192
06/27/2013  13:16:00      -22.947       79.457        0.550       38.091       47.553       26.087     1450.951     2261.271      680.523        0.562        0.220       82.704       23.782        0.083      350.350       31.450      866.192
06/27/2013  13:17:00     -134.113      136.181      -20.491       45.496       63.743       39.393     2069.842     4063.177     1551.847        2.232        0.384      191.132       25.376        0.018      350.191       31.171      866.191
06/27/2013  13:18:00     -123.303       62.787      -11.056       59.337       89.808       38.459     3520.867     8065.451     1479.127        1.616        0.653      138.368       36.440        0.069      350.030       30.893      866.194
06/27/2013  13:19:00     -141.630        3.644      -20.762       74.386       87.292       40.302     5533.281     7619.832     1624.269        1.764        0.739      141.676       26.564        0.035      350.295       31.354      866.192
06/27/2013  13:20:00     -108.232      -59.486        0.471       73.318       38.780       44.599     5375.532     1503.862     1989.099        1.206        0.443      123.502       44.278        0.129      350.098       31.012      866.172
06/27/2013  13:21:00      -42.442       52.327       21.143       45.447       77.971       40.745     2065.468     6079.481     1660.173        0.739        0.490       67.376       32.056        0.226      350.538       31.777      866.177
06/27/2013  13:22:00      -55.591       82.459        2.849       72.139       88.635       38.451     5204.038     7856.173     1478.513        1.222        0.727       99.448       56.560        0.323      350.397       31.529      866.188
06/27/2013  13:23:00        4.726       73.711       10.672       29.685       51.159       36.051      881.218     2617.205     1299.657        0.518        0.240       73.863       33.619        0.207      350.527       31.757      866.177
06/27/2013  13:24:00       66.576       50.043        9.224       37.833       29.646       34.097     1431.326      878.890     1162.607        0.525        0.174       83.287       21.831        0.069      350.148       31.099      866.167
06/27/2013  13:25:00       52.770      103.155       -6.680       53.545       56.942       36.419     2867.081     3242.371     1326.373        1.045        0.372      115.869       32.790        0.080      349.883       30.637      866.149
06/27/2013  13:26:00       -8.623       55.972        1.434       31.911       32.074       28.890     1018.282     1028.724      834.616        0.304        0.144       56.633       19.917        0.124      350.444       31.615      866.143
06/27/2013  13:27:00        4.513      -91.465      -17.873       49.947       88.604       38.882     2494.745     7850.656     1511.789        1.028        0.593       91.577       43.473        0.225      350.127       31.062      866.102
06/27/2013  13:28:00      -32.792      -58.391       -5.063       35.088       44.652       30.864     1231.140     1993.786      952.558        0.434        0.209       66.969       22.964        0.118      350.199       31.187      866.080
06/27/2013  13:29:00      -11.510      -77.469       12.866       40.915       60.073       33.319     1674.047     3608.723     1110.157        0.634        0.320       78.319       40.341        0.265      350.411       31.556      866.067
06/27/2013  13:30:00       -1.576     -134.303       -6.785       59.172       49.351       49.540     3501.336     2435.568     2454.165        1.324        0.420      134.313       33.898        0.064      350.111       31.035      866.040
06/27/2013  13:31:00       -6.222      -17.229       32.876       36.952       68.514       42.614     1365.469     4694.201     1815.956        0.464        0.394       18.319       47.557        6.740      350.432       31.592      866.021
06/27/2013  13:32:00       27.531       22.123       39.647       35.565       46.087       40.204     1264.882     2124.012     1616.371        0.391        0.250       35.318       37.646        1.136      350.142       31.088      866.012
06/27/2013  13:33:00       47.988      -24.487       27.153       37.764       51.486       39.814     1426.157     2650.777     1585.130        0.465        0.283       53.874       26.387        0.240      350.186       31.166      865.993
06/27/2013  13:34:00       52.664      -37.959       45.956       64.646       81.161       55.892     4179.060     6587.064     3123.948        1.011        0.695       64.918       56.988        0.771      350.435       31.596      865.984
06/27/2013  13:35:00      151.540       91.659       67.023       96.451       76.186       52.297     9302.755     5804.362     2734.956        2.685        0.892      177.104       23.707        0.018      350.121       31.052      865.980
06/27/2013  13:36:00      112.679       92.013       20.244       65.541       45.909       36.727     4295.631     2107.592     1348.837        1.466        0.388      145.475       14.539        0.010      350.053       30.932      865.978
06/27/2013  13:37:00       11.096      -37.130       35.118       40.945       63.926       46.726     1676.496     4086.573     2183.314        0.534        0.397       38.753       34.890        0.811      350.438       31.604      865.970
06/27/2013  13:38:00      161.317      106.643       39.988       70.334       54.390       48.559     4946.885     2958.292     2357.930        2.463        0.513      193.380       30.812        0.025      349.999       30.837      865.987
06/27/2013  13:39:00      179.533      114.440       36.187       70.399       59.161       54.836     4956.073     3500.072     3006.959        2.905        0.573      212.905       37.592        0.031      350.043       30.912      865.965
06/27/2013  13:40:00       65.348       45.021       -0.919       62.189       55.482       29.522     3867.452     3078.207      871.573        0.706        0.391       79.355       20.694        0.068      350.016       30.868      865.949
06/27/2013  13:41:00       25.615      154.356       -6.952       76.061       64.892       37.346     5785.287     4211.034     1394.739        1.796        0.570      156.466       43.155        0.076      349.938       30.732      865.935
06/27/2013  13:42:00      -24.488      112.198       -4.099       33.939       46.321       32.324     1151.841     2145.647     1044.855        0.877        0.217      114.839       26.051        0.051      350.301       31.364      865.915
06/27/2013  13:43:00       40.285       79.308       10.612       49.970       53.923       46.035     2497.042     2907.658     2119.203        0.777        0.376       88.953       35.125        0.156      350.547       31.793      865.910
06/27/2013  13:44:00      154.853      109.242       13.477       92.611       64.908       54.588     8576.873     4213.075     2979.808        2.593        0.788      189.508       34.538        0.033      350.462       31.642      865.907
06/27/2013  13:45:00      142.381      110.426       19.839       92.522       61.249       57.427     8560.369     3751.483     3297.871        2.423        0.780      180.185       43.938        0.059      350.292       31.346      865.914
06/27/2013  13:46:00       33.409       17.077       14.593       53.753       46.460       21.643     2889.377     2158.573      468.402        0.357        0.276       37.520       21.858        0.339      350.260       31.295      865.925
06/27/2013  13:47:00       57.970       29.156        8.424       43.868       32.794       34.839     1924.396     1075.470     1213.739        0.425        0.211       64.889       13.706        0.045      350.357       31.462      865.928
06/27/2013  13:48:00       71.443       69.057       21.654       49.994       36.823       39.148     2499.408     1355.945     1532.587        0.786        0.269       99.363       22.476        0.051      350.107       31.028      865.932
06/27/2013  13:49:00       12.823       12.308       45.002       40.813       42.222       24.177     1665.715     1782.685      584.533        0.319        0.202       17.774       26.694        2.255      350.771       32.181      865.925
06/27/2013  13:50:00      -41.964        9.698       17.342       45.569       19.991       25.021     2076.511      399.642      626.034        0.263        0.155       43.070       25.657        0.355      350.825       32.276      865.922
06/27/2013  13:51:00      -59.004      -40.644        9.799       59.724       51.938       31.461     3566.906     2697.528      989.815        0.624        0.363       71.648       34.878        0.237      350.810       32.249      865.917
06/27/2013  13:52:00      -88.998      -44.163       -3.758       55.386       39.127       36.133     3067.662     1530.957     1305.589        0.789        0.295       99.353       28.206        0.081      350.276       31.322      865.909
06/27/2013  13:53:00      -56.361       58.148        5.481       49.743       36.315       28.583     2474.388     1318.775      816.994        0.560        0.231       80.980       27.579        0.116      350.530       31.763      865.889
06/27/2013  13:54:00      -88.870       21.056       -6.591       54.017       26.131       28.540     2917.823      682.847      814.519        0.640        0.221       91.331       30.316        0.110      350.451       31.625      865.869
06/27/2013  13:55:00      -54.784       16.786        4.273       31.217       29.512       21.625      974.503      870.986      467.641        0.281        0.116       57.297       16.162        0.080      350.573       31.839      865.869
06/27/2013  13:56:00      -60.367       12.346       -5.125       24.580       29.581       16.098      604.171      875.036      259.140        0.278        0.087       61.617       10.289        0.028      350.345       31.441      865.870
06/27/2013  13:57:00      -13.557        7.506       -4.622       23.439       18.219       23.984      549.410      331.920      575.220        0.086        0.073       15.496        9.129        0.347      350.871       32.358      865.861
06/27/2013  13:58:00      -15.035       10.169       11.920       21.318       29.434       20.543      454.451      866.374      422.026        0.111        0.087       18.151       12.481        0.473      351.024       32.623      865.863
06/27/2013  13:59:00       17.118       40.973       16.564       38.372       35.928       36.160     1472.408     1290.815     1307.525        0.316        0.204       44.405       25.731        0.336      350.966       32.521      865.854
06/27/2013  14:00:00      -40.420       29.800       27.947       46.560       37.088       35.459     2167.854     1375.497     1257.331        0.405        0.240       50.218       32.683        0.424      351.221       32.967      865.842
06/27/2013  14:01:00       68.556       70.586       30.547       86.683       62.377       47.027     7513.879     3890.933     2211.503        1.211        0.681       98.399       24.710        0.063      350.834       32.292      865.847
06/27/2013  14:02:00      -41.248      -59.267        2.457      109.878       68.610       40.021    12073.276     4707.367     1601.651        1.180        0.919       72.208       39.231        0.295      350.859       32.335      865.892
06/27/2013  14:03:00      -58.193     -120.973        7.121       82.513       92.117       50.443     6808.407     8485.510     2544.511        1.795        0.892      134.242       51.064        0.145      350.484       31.680      865.906
06/27/2013  14:04:00      -47.230      -82.145       -1.397       41.888       44.968       23.924     1754.603     2022.155      572.342        0.666        0.217       94.755       14.345        0.023      350.241       31.262      865.879
06/27/2013  14:05:00      -54.570      -41.892        2.980       20.024       34.641       29.351      400.973     1199.996      861.480        0.360        0.123       68.796       17.659        0.066      350.285       31.337      865.840
06/27/2013  14:06:00        1.606        3.048       11.336       28.513       15.857       25.578      812.994      251.445      654.238        0.093        0.086        3.445       19.409       31.737      350.720       32.094      865.811
06/27/2013  14:07:00       29.876       24.504       37.711       36.818       32.499       46.800     1355.584     1056.165     2190.252        0.376        0.230       38.640       33.352        0.745      350.134       31.076      865.811
06/27/2013  14:08:00       85.266       50.985       46.868       52.171       52.942       45.227     2721.835     2802.858     2045.517        0.982        0.379       99.347       35.825        0.130      350.077       30.975      865.794
06/27/2013  14:09:00       45.140       26.366       13.055       49.245       28.686       32.340     2425.112      822.882     1045.857        0.360        0.215       52.276       25.513        0.238      350.709       32.073      865.783
06/27/2013  14:10:00       65.592       96.089       -1.197       79.636       63.402       45.668     6341.814     4019.783     2085.551        1.299        0.622      116.342       33.657        0.084      350.626       31.929      865.765
06/27/2013  14:11:00       65.250       45.970       16.956       66.668       48.844       44.760     4444.602     2385.780     2003.467        0.774        0.442       79.818       38.569        0.233      350.709       32.075      865.739
06/27/2013  14:12:00       82.559       55.753       12.181       56.574       55.681       42.498     3200.565     3100.378     1806.072        0.909        0.405       99.622       22.270        0.050      350.595       31.876      865.727
06/27/2013  14:13:00       82.830       46.623       18.333       77.854       59.377       36.909     6061.245     3525.622     1362.271        1.016        0.547       95.050       26.507        0.078      350.644       31.960      865.719
06/27/2013  14:14:00        0.246        0.421       56.428       48.296       59.478       48.319     2332.537     3537.661     2334.706        0.569        0.410        0.487       49.541    10331.314      350.524       31.753      865.734
06/27/2013  14:15:00       -0.056      -22.582       -6.457       44.020       31.949       29.492     1937.756     1020.758      869.786        0.219        0.191       22.582       10.374        0.211      350.552       31.801      865.749
06/27/2013  14:16:00      -47.794      -83.070        7.035       67.362       55.491       35.011     4537.615     3079.287     1225.767        0.904        0.442       95.837       42.428        0.196      350.732       32.115      865.734
06/27/2013  14:17:00      -29.481      -21.098       24.728       35.526       39.063       26.236     1262.106     1525.896      688.311        0.270        0.174       36.253       24.057        0.440      350.939       32.475      865.737
06/27/2013  14:18:00       24.882       46.754       13.802       48.626       28.267       35.529     2364.488      799.035     1262.330        0.371        0.221       52.963       21.857        0.170      350.293       31.351      865.728
06/27/2013  14:19:00      -22.057      -23.580       -7.632       44.675       41.394       31.176     1995.899     1713.449      971.946        0.289        0.234       32.288       29.941        0.860      351.181       32.897      865.710
06/27/2013  14:20:00       39.161       -7.999       24.527       43.274       41.028       31.776     1872.606     1683.303     1009.742        0.338        0.228       39.969       14.219        0.127      351.287       33.081      865.700
06/27/2013  14:21:00       50.501       87.947       -7.511       80.946       80.598       42.602     6552.231     6496.060     1814.912        1.260        0.743      101.415       25.297        0.062      351.155       32.850      865.684
06/27/2013  14:22:00       65.892       64.814       -1.103       61.700       78.411       38.935     3806.881     6148.331     1515.917        1.001        0.574       92.427       31.399        0.115      351.062       32.690      865.694
06/27/2013  14:23:00        4.678       20.530       -0.065       58.437       45.552       33.127     3414.831     2074.962     1097.366        0.351        0.329       21.056       22.755        1.168      351.383       33.249      865.686
06/27/2013  14:24:00       41.821       -5.643       19.328       57.510       28.033       36.674     3307.365      785.834     1345.010        0.380        0.272       42.200       27.503        0.425      351.179       32.895      865.680
06/27/2013  14:25:00       51.287       56.583       65.671       57.960       78.422       45.999     3359.316     6149.989     2115.886        1.088        0.581       76.368       43.076        0.318      350.531       31.763      865.642
06/27/2013  14:26:00       50.320       17.378       59.920       77.617       62.415       48.131     6024.358     3895.651     2316.619        0.933        0.612       53.237       44.937        0.713      351.072       32.706      865.640
06/27/2013  14:27:00       38.738      -15.058       18.624       38.323       32.859       27.955     1468.678     1079.719      781.470        0.270        0.166       41.562       22.444        0.292      350.509       31.725      865.622
06/27/2013  14:28:00       -5.614      -99.377        7.659       72.637       91.317       42.826     5276.165     8338.727     1834.048        1.270        0.772       99.535       47.462        0.227      350.565       31.822      865.612
06/27/2013  14:29:00        6.909     -111.302       -7.822       59.805       41.281       25.895     3576.598     1704.119      670.525        0.922        0.298      111.517       25.162        0.051      350.518       31.741      865.598
06/27/2013  14:30:00       42.269      -17.229       30.666       42.059       52.745       38.517     1768.972     2781.988     1483.571        0.453        0.302       45.645       28.660        0.394      350.933       32.465      865.585
06/27/2013  14:31:00       55.155      -35.359       26.396       48.984       84.429       41.392     2399.422     7128.201     1713.314        0.811        0.562       65.516       42.220        0.415      350.693       32.047      865.583
06/27/2013  14:32:00      100.198       23.240       27.658       54.807       33.246       43.094     3003.840     1105.301     1857.051        0.865        0.298      102.858       26.502        0.066      350.169       31.135      865.562
06/27/2013  14:33:00       84.241      -11.228        1.385       42.627       27.902       35.583     1817.080      778.545     1266.145        0.554        0.193       84.986       19.892        0.055      350.153       31.107      865.566
06/27/2013  14:34:00       59.745      -73.748       -4.021       42.292       45.574       33.997     1788.632     2077.030     1155.769        0.702        0.251       94.912       25.461        0.072      349.997       30.838      865.568
06/27/2013  14:35:00       61.962       36.405       46.229       88.033       61.535       39.948     7749.771     3786.540     1595.811        1.021        0.657       71.865       43.359        0.364      350.697       32.051      865.562
06/27/2013  14:36:00      107.594       46.845       36.662       64.169       44.774       34.757     4117.641     2004.735     1208.064        1.122        0.367      117.349       30.285        0.067      350.267       31.305      865.561
06/27/2013  14:37:00       -2.615      -48.821       -0.297       27.592       39.632       25.623      761.318     1570.707      656.532        0.269        0.149       48.891        9.306        0.036      350.394       31.527      865.557
06/27/2013  14:38:00      -13.783        5.351        4.069       40.537       32.466       32.006     1643.248     1054.023     1024.414        0.198        0.186       14.785       26.009        3.095      351.071       32.705      865.547
06/27/2013  14:39:00       45.161      -11.647       33.672       33.568       39.518       29.185     1126.831     1561.660      851.740        0.342        0.177       46.638       16.475        0.125      350.779       32.196      865.536
06/27/2013  14:40:00       27.552      -10.687       43.389       40.926       42.634       36.033     1674.937     1817.674     1298.370        0.377        0.240       29.553       27.078        0.840      350.694       32.048      865.531
06/27/2013  14:41:00       31.917      -75.086       13.449       50.998       87.897       35.843     2600.807     7725.832     1284.729        0.922        0.581       81.588       42.919        0.277      351.204       32.936      865.529
06/27/2013  14:42:00      -14.227      -11.534       18.772       49.564       27.587       37.635     2456.548      761.058     1416.374        0.266        0.232       18.315       34.718        3.593      351.448       33.364      865.517
06/27/2013  14:43:00      -23.435      -59.873        3.243       38.437       43.035       27.825     1477.423     1852.022      774.204        0.412        0.205       64.296       19.792        0.095      351.009       32.598      865.507
06/27/2013  14:44:00       13.078      -65.125       13.868       32.306       49.247       27.414     1043.645     2425.301      751.541        0.441        0.211       66.425       27.800        0.175      351.364       33.216      865.497
06/27/2013  14:45:00      -14.158      -35.655       12.623       27.443       33.196       27.834      753.101     1101.984      774.745        0.213        0.131       38.363       11.198        0.085      351.289       33.084      865.479
06/27/2013  14:46:00       39.325      -50.574       24.429       59.696       41.469       41.131     3563.559     1719.663     1691.757        0.584        0.349       64.063       21.605        0.114      351.151       32.845      865.484
06/27/2013  14:47:00       64.825        6.881       38.952       53.620       35.913       41.591     2875.141     1289.720     1729.791        0.583        0.295       65.189       29.618        0.206      350.998       32.578      865.484
06/27/2013  14:48:00       43.792       15.623       33.278       44.918       45.284       30.646     2017.667     2050.600      939.199        0.414        0.250       46.495       26.185        0.317      351.129       32.807      865.476
06/27/2013  14:49:00      171.424      105.199       13.455       86.469       84.854       58.372     7476.862     7200.217     3407.315        2.936        0.904      201.129       40.563        0.041      350.935       32.466      865.468
06/27/2013  14:50:00       88.944       51.955       23.008       40.356       44.857       31.327     1628.627     2012.186      981.368        0.788        0.231      103.007       16.212        0.025      351.144       32.832      865.468
06/27/2013  14:51:00      -27.317       24.841        5.771       65.149       64.693       34.820     4244.397     4185.160     1212.400        0.552        0.482       36.923       20.231        0.300      351.235       32.991      865.459
06/27/2013  14:52:00      -67.495      -69.027        5.241       88.563      104.731       36.506     7843.390    10968.508     1332.711        1.474        1.007       96.542       36.987        0.147      351.156       32.851      865.439
06/27/2013  14:53:00      -18.502      -80.365      -11.346       46.553       68.101       33.400     2167.143     4637.766     1115.566        0.742        0.396       82.467       31.994        0.151      350.995       32.573      865.429
06/27/2013  14:54:00       22.801      -74.303       -2.934       47.963       60.372       26.827     2300.407     3644.800      719.670        0.636        0.333       77.723       16.862        0.047      351.091       32.740      865.434
06/27/2013  14:55:00      -50.438      -22.491       19.006       69.017       35.176       27.936     4763.355     1237.324      780.411        0.509        0.339       55.226       30.073        0.297      351.495       33.446      865.441
06/27/2013  14:56:00     -170.251      -60.983       -7.100       91.504       72.343       42.792     8373.047     5233.531     1831.159        2.409        0.772      180.844       29.366        0.026      351.192       32.913      865.440
06/27/2013  14:57:00      -88.833       -0.796        7.965       87.337       64.722       48.310     7627.824     4188.926     2333.822        1.105        0.708       88.837       50.607        0.325      351.336       33.164      865.434
06/27/2013  14:58:00      -91.130      -22.048       27.976       92.624       69.985       52.552     8579.161     4897.877     2761.758        1.290        0.812       93.759       49.925        0.284      351.434       33.336      865.423
06/27/2013  14:59:00     -104.330      -90.481        7.769       69.235       83.202       32.780     4793.554     6922.553     1074.517        1.596        0.640      138.099       29.228        0.045      351.242       33.001      865.409
06/27/2013  15:00:00      -46.682      -95.937       -1.257       52.983       56.122       39.137     2807.148     3149.706     1531.687        0.944        0.374      106.691       14.470        0.018      351.170       32.876      865.398
06/27/2013  15:01:00     -101.707       -2.946       -9.414       63.776       42.334       29.893     4067.434     1792.170      893.602        0.860        0.338      101.749       33.726        0.110      351.302       33.108      865.404
06/27/2013  15:02:00      -84.831      -37.830        9.734       69.379       66.675       35.200     4813.446     4445.512     1239.015        0.961        0.525       92.884       37.883        0.166      351.440       33.348      865.403
06/27/2013  15:03:00      -20.076       72.543       12.018       89.608       64.613       51.398     8029.585     4174.823     2641.778        1.033        0.742       75.270       33.975        0.204      351.309       33.120      865.400
06/27/2013  15:04:00       17.473      -15.878       13.301       38.385       56.545       23.097     1473.386     3197.315      533.453        0.297        0.260       23.610       27.845        1.391      351.085       32.730      865.408
06/27/2013  15:05:00       31.253      -48.307      -18.553       43.638       52.477       30.769     1904.236     2753.827      946.729        0.463        0.280       57.535       24.987        0.189      350.397       31.532      865.376
06/27/2013  15:06:00       12.356       -3.915        8.566       29.810       54.722       25.352      888.610     2994.538      642.712        0.238        0.226       12.962       13.154        1.030      350.723       32.099      865.376
06/27/2013  15:07:00      -17.199      196.148      -19.154       41.902       61.796       31.898     1755.802     3818.700     1017.486        2.286        0.330      196.901       31.672        0.026      350.912       32.426      865.376
06/27/2013  15:08:00       -5.457      144.193       -3.502       32.182       65.014       37.390     1035.672     4226.763     1398.048        1.375        0.333      144.296       36.095        0.063      351.019       32.614      865.379
06/27/2013  15:09:00       68.881       45.498       38.656       61.130       39.206       25.576     3736.935     1537.121      654.135        0.712        0.296       82.550       21.080        0.065      351.255       33.026      865.378
06/27/2013  15:10:00       42.803       32.683       16.056       52.119       30.400       28.049     2716.414      924.131      786.730        0.379        0.221       53.854       15.665        0.085      350.787       32.209      865.360
06/27/2013  15:11:00       16.321      -17.316       12.354       59.247       52.072       31.352     3510.226     2711.462      982.944        0.396        0.360       23.795       25.377        1.137      350.777       32.193      865.351
06/27/2013  15:12:00       -4.111      -57.094       11.689       48.123       67.439       25.055     2315.834     4547.953      627.761        0.545        0.375       57.242       35.085        0.376      351.201       32.931      865.358
06/27/2013  15:13:00       -4.050       28.163       25.929       45.607       33.529       28.856     2080.026     1124.176      832.680        0.276        0.202       28.452       20.251        0.507      351.318       33.135      865.357
06/27/2013  15:14:00       32.412       35.000       19.000       39.426       32.429       34.737     1554.380     1051.644     1206.682        0.322        0.191       47.702       20.839        0.191      351.080       32.721      865.350
06/27/2013  15:15:00       -1.602       87.177       -0.575       46.921       68.169       30.748     2201.559     4646.992      945.416        0.770        0.390       87.191       32.326        0.137      351.245       33.009      865.354
06/27/2013  15:16:00      -29.771       58.884      -26.258       28.928       54.624       30.730      836.849     2983.794      944.302        0.490        0.238       65.982       16.337        0.061      351.224       32.973      865.366
06/27/2013  15:17:00      -61.549        6.286      -16.640       30.701       32.869       24.325      942.547     1080.392      591.709        0.336        0.131       61.870       17.377        0.079      351.240       32.999      865.369
06/27/2013  15:18:00     -129.503      -17.132        3.232      134.757       92.614       51.828    18159.479     8577.314     2686.139        2.324        1.471      130.631       59.871        0.210      351.509       33.468      865.377
06/27/2013  15:19:00     -200.697      -88.738      -20.655       97.930      106.202       55.295     9590.353    11278.955     3057.567        3.625        1.196      219.440       57.590        0.069      351.415       33.301      865.406
06/27/2013  15:20:00      -64.449       14.744       15.980       56.759       53.899       34.888     3221.629     2905.061     1217.173        0.598        0.367       66.114       29.937        0.205      351.431       33.333      865.392
06/27/2013  15:21:00      -78.137        3.985        6.959       55.613       55.702       31.031     3092.831     3102.756      962.916        0.666        0.358       78.238       30.595        0.153      351.281       33.070      865.365
06/27/2013  15:22:00     -123.837      -71.014       -0.550      147.916       76.284       37.920    21879.205     5819.174     1437.919        2.475        1.457      142.754       36.551        0.066      351.468       33.395      865.367
06/27/2013  15:23:00     -129.694       -5.461       33.995      106.082      122.942       63.097    11253.348    15114.730     3981.231        2.417        1.517      129.809       57.986        0.200      351.549       33.537      865.355
06/27/2013  15:24:00     -116.823      -87.277        7.494      112.528      118.698       48.427    12662.546    14089.209     2345.131        2.520        1.455      145.825       44.291        0.092      351.563       33.560      865.335
06/27/2013  15:25:00     -255.302      -25.560      -13.944      128.843       81.598       52.044    16600.516     6658.274     2708.532        4.599        1.298      256.578       55.018        0.046      351.580       33.589      865.336
06/27/2013  15:26:00     -204.388       35.123        5.417      129.837       85.802       49.278    16857.745     7361.900     2428.350        3.484        1.332      207.384       47.864        0.053      351.635       33.684      865.327
06/27/2013  15:27:00     -227.420      -72.680       -7.481       84.443       74.683       49.841     7130.613     5577.484     2484.119        3.612        0.760      238.751       47.389        0.039      351.570       33.572      865.301
06/27/2013  15:28:00     -222.607      -23.309        0.390      211.544      106.873       70.220    44750.729    11421.779     4930.896        5.559        3.055      223.824       92.378        0.170      351.938       34.214      865.297
06/27/2013  15:29:00     -263.123      -14.434      -11.041      168.211      188.709       81.383    28294.957    35610.998     6623.234        7.003        3.526      263.519       90.926        0.119      351.511       33.469      865.289
06/27/2013  15:30:00     -349.967      -43.168       -8.807      138.002      174.577       77.419    19044.561    30477.299     5993.699        8.996        2.776      352.619       65.266        0.034      351.569       33.568      865.318
06/27/2013  15:31:00     -316.514     -137.579       12.339      216.213      123.691       80.232    46748.083    15299.370     6437.211        9.386        3.424      345.122       78.396        0.052      351.349       33.186      865.325
06/27/2013  15:32:00     -220.196       12.070        5.938      129.770      103.887       65.706    16840.176    10792.529     4317.224        4.030        1.597      220.527       63.660        0.083      351.542       33.524      865.348
06/27/2013  15:33:00     -135.312      -87.382       -3.865      114.456       72.488       50.582    13100.120     5254.571     2558.583        2.343        1.046      161.075       50.252        0.097      351.353       33.196      865.363
06/27/2013  15:34:00      -82.938      -73.313       -5.449       94.053       78.828       38.801     8845.991     6213.903     1505.503        1.442        0.828      110.696       35.930        0.105      351.176       32.888      865.354
06/27/2013  15:35:00     -178.925      -64.260       -2.734       75.765       60.504       38.556     5740.290     3660.755     1486.575        2.352        0.544      190.115       25.159        0.018      351.469       33.396      865.349
06/27/2013  15:36:00      -85.366       76.064      -19.651       47.469       61.102       32.337     2253.273     3733.480     1045.685        1.024        0.352      114.337       23.030        0.041      351.658       33.729      865.344
06/27/2013  15:37:00      -78.269        5.261       -3.357       63.082       72.045       27.021     3979.380     5190.463      730.124        0.803        0.495       78.445       28.668        0.134      351.789       33.957      865.334
06/27/2013  15:38:00      -93.861       73.002        1.436       48.215       51.380       36.093     2324.724     2639.881     1302.712        1.020        0.313      118.908       33.898        0.081      351.673       33.755      865.336
06/27/2013  15:39:00     -168.154      -48.923       -5.025      132.548       92.088       46.357    17568.872     8480.145     2148.976        2.944        1.410      175.126       53.922        0.095      351.833       34.033      865.336
06/27/2013  15:40:00     -192.654      -57.341       -3.226      103.486       99.812       53.116    10709.331     9962.527     2821.339        3.195        1.175      201.006       53.486        0.071      351.388       33.255      865.334
06/27/2013  15:41:00     -331.576     -115.387      -23.152      117.237       91.732       55.358    13744.493     8414.702     3064.478        7.450        1.261      351.080       31.785        0.008      351.467       33.391      865.319
06/27/2013  15:42:00     -192.884      -75.442        1.826      112.990      101.137       61.498    12766.831    10228.750     3781.972        3.483        1.339      207.112       24.131        0.014      351.487       33.428      865.315
06/27/2013  15:43:00     -208.255     -100.125       -3.134       74.227       66.235       40.747     5509.604     4387.029     1660.357        3.248        0.578      231.074       43.420        0.035      350.916       32.430      865.325
06/27/2013  15:44:00     -193.885      -41.739      -17.065       81.450       49.632       29.928     6634.047     2463.334      895.683        2.481        0.500      198.327       42.139        0.045      351.070       32.701      865.306
06/27/2013  15:45:00     -171.265      -41.519        6.865      122.326      111.067       46.275    14963.741    12335.809     2141.358        3.027        1.472      176.226       47.372        0.072      351.598       33.621      865.306
06/27/2013  15:46:00      -10.818       36.026       27.272      110.833       72.744       49.561    12284.005     5291.733     2456.246        1.109        1.002       37.615       35.309        0.881      351.711       33.822      865.294
06/27/2013  15:47:00      -80.275       32.142       -5.274       68.555       52.277       37.317     4699.825     2732.878     1392.535        0.816        0.441       86.471       46.921        0.294      351.662       33.735      865.299
06/27/2013  15:48:00     -113.744       86.380      -14.562       69.862      109.408       44.653     4880.631    11970.152     1993.847        1.972        0.942      142.826       30.096        0.044      351.387       33.253      865.291
06/27/2013  15:49:00     -186.116      -15.907      -27.055       92.673       75.922       41.327     8588.375     5764.143     1707.889        2.584        0.803      186.794       40.575        0.047      351.373       33.228      865.271
06/27/2013  15:50:00     -235.020       23.735      -26.822       64.438       85.288       39.298     4152.301     7274.081     1544.371        3.474        0.649      236.216       36.482        0.024      351.671       33.747      865.267
06/27/2013  15:51:00     -278.999      -21.518      -18.410      175.933      119.114       64.089    30952.447    14188.125     4107.396        6.394        2.462      279.827       80.727        0.083      351.668       33.741      865.274
06/27/2013  15:52:00     -249.494      -15.870        7.908      142.685      113.967       63.568    20359.082    12988.470     4040.933        4.997        1.869      249.999       71.824        0.083      351.700       33.799      865.261
06/27/2013  15:53:00     -141.271      -94.103       -0.580      115.834      106.532       57.663    13417.433    11349.085     3325.031        2.845        1.405      169.743       57.522        0.115      351.406       33.286      865.246
06/27/2013  15:54:00     -432.017      -89.340        1.617      183.313      124.647       82.894    33603.794    15536.809     6871.372       12.531        2.801      441.158       87.525        0.039      351.664       33.735      865.233
06/27/2013  15:55:00     -303.748     -151.088        0.084      201.485      188.608       87.950    40596.396    35572.888     7735.193        9.948        4.195      339.250       77.297        0.052      351.382       33.244      865.252
06/27/2013  15:56:00     -266.487       -6.561        7.087      217.385      141.324       68.206    47256.200    19972.478     4652.101        7.148        3.594      266.568      100.955        0.143      351.448       33.361      865.263
06/27/2013  15:57:00     -251.389      -94.025       -5.381       95.965       97.329       62.998     9209.290     9472.863     3968.695        4.735        1.133      268.397       29.000        0.012      351.419       33.308      865.236
06/27/2013  15:58:00     -284.240      -58.396        3.185      180.224       91.065       62.291    32480.631     8292.826     3880.218        6.442        2.233      290.177       75.989        0.069      351.641       33.697      865.229
06/27/2013  15:59:00     -305.409     -146.558       -4.088      189.049      180.198       97.734    35739.671    32471.163     9551.881        9.625        3.888      338.753      105.042        0.096      351.424       33.317      865.234
06/27/2013  16:00:00     -399.990      -37.814      -10.702      158.554      129.469       74.202    25139.304    16762.337     5505.926       10.446        2.370      401.774       81.542        0.041      351.406       33.286      865.228
06/27/2013  16:01:00     -163.993      -82.624        5.132      142.676      141.789       72.694    20356.521    20104.172     5284.369        3.974        2.287      183.632       74.624        0.165      351.641       33.699      865.235
06/27/2013  16:02:00     -254.189     -237.590       -2.574      128.260       87.865       63.475    16450.564     7720.204     4029.083        7.463        1.410      347.939       65.334        0.035      351.142       32.824      865.219
06/27/2013  16:03:00     -172.362      -61.008        4.731       94.691       84.526       41.813     8966.321     7144.641     1748.359        2.565        0.893      182.841       46.536        0.065      351.371       33.224      865.203
06/27/2013  16:04:00     -138.925       26.890        8.992      109.534      117.747       56.164    11997.616    13864.335     3154.388        2.455        1.451      141.503       58.691        0.172      351.634       33.686      865.200
06/27/2013  16:05:00     -277.421      -99.104      -13.698      128.475      122.094       56.039    16505.730    14906.934     3140.336        6.076        1.728      294.591       52.617        0.032      351.627       33.672      865.161
06/27/2013  16:06:00     -154.295      -46.315        7.672      125.638      110.110       55.791    15784.926    12124.188     3112.622        2.851        1.551      161.096       57.191        0.126      351.757       33.899      865.133
06/27/2013  16:07:00     -275.700      -21.560      -11.107      134.691       88.524       52.047    18141.556     7836.503     2708.854        5.264        1.434      276.541       46.486        0.028      351.780       33.937      865.133
06/27/2013  16:08:00     -168.411      -43.532        7.616       90.253       97.066       50.071     8145.618     9421.763     2507.071        2.519        1.004      173.946       47.295        0.074      351.711       33.819      865.139
06/27/2013  16:09:00     -237.345     -144.141       -2.744      109.164      104.207       50.789    11916.673    10859.154     2579.561        5.123        1.268      277.685       38.840        0.020      351.715       33.823      865.124
06/27/2013  16:10:00     -278.387     -133.668       -2.082      144.647      146.722       79.007    20922.798    21527.356     6242.051        7.202        2.435      308.815       61.402        0.040      351.666       33.739      865.123
06/27/2013  16:11:00     -302.368       88.910      -13.907      189.702      130.990       61.827    35986.672    17158.496     3822.575        7.823        2.848      315.169       73.236        0.054      351.622       33.665      865.133
06/27/2013  16:12:00     -379.584      -32.861      -20.587      197.976      125.601       73.558    39194.512    15775.719     5410.805       10.297        3.019      381.004       92.192        0.059      351.527       33.496      865.100
06/27/2013  16:13:00     -213.113      -97.852       25.834      154.280      141.549       75.522    23802.343    20036.217     5703.556        5.259        2.477      234.504       83.032        0.125      351.811       33.992      865.101
06/27/2013  16:14:00     -341.785     -201.203       -0.998      241.956      155.914       89.092    58542.906    24309.152     7937.435       12.403        4.539      396.611      113.302        0.082      351.542       33.523      865.099
06/27/2013  16:15:00     -433.699     -159.928      -10.628      231.456      227.936      109.795    53571.779    51954.908    12054.911       16.566        5.879      462.246      114.943        0.062      351.422       33.314      865.110
06/27/2013  16:16:00     -468.811     -216.044      -23.149      215.189       99.016       78.048    46306.354     9804.267     6091.494       16.459        3.110      516.196       90.903        0.031      351.193       32.913      865.145
06/27/2013  16:17:00     -220.560      -92.565      -13.546      182.231      101.086       57.594    33207.989    10218.285     3317.044        5.206        2.337      239.197       69.824        0.085      351.527       33.499      865.144
06/27/2013  16:18:00     -346.946     -115.012      -22.888      144.075      125.451       66.174    20757.686    15737.832     4379.038        8.749        2.044      365.512       66.567        0.033      351.413       33.298      865.142
06/27/2013  16:19:00     -315.671        3.496      -16.990      142.627      135.658       58.006    20342.541    18403.123     3364.713        7.102        2.106      315.690       57.805        0.034      351.462       33.384      865.131
06/27/2013  16:20:00     -190.466      -38.555       -6.915      165.624      109.626       80.376    27431.221    12017.933     6460.263        4.185        2.295      194.329       67.673        0.121      351.596       33.617      865.122
06/27/2013  16:21:00     -242.880     -121.143      -10.281      219.479      128.111       63.141    48171.102    16412.501     3986.805        7.116        3.429      271.416       83.980        0.096      351.559       33.554      865.143
06/27/2013  16:22:00     -310.100        3.965        7.685      140.125      113.093       70.021    19635.049    12789.952     4902.943        6.677        1.866      310.125       78.101        0.063      351.581       33.590      865.120
06/27/2013  16:23:00     -304.939     -248.788       12.777      153.069      145.768       77.850    23430.092    21248.209     6060.655       10.288        2.537      393.552       75.730        0.037      351.449       33.360      865.130
06/27/2013  16:24:00     -314.147     -239.181       -1.228      170.264      139.599       91.450    28989.768    19487.941     8363.047       10.636        2.842      394.836      109.441        0.077      351.292       33.086      865.123
06/27/2013  16:25:00     -339.136     -274.310       14.805      205.747      187.656      105.883    42331.976    35214.641    11211.247       13.960        4.438      436.187      120.250        0.076      351.372       33.226      865.194
06/27/2013  16:26:00     -367.905     -111.840      -23.695      134.659      144.266       72.817    18132.998    20812.624     5302.282        9.633        2.212      384.529       61.650        0.026      351.157       32.850      865.164
06/27/2013  16:27:00     -353.398      -97.509       -1.936      146.804       66.276       46.048    21551.415     4392.454     2120.382        8.123        1.403      366.603       53.761        0.022      351.252       33.017      865.128
06/27/2013  16:28:00     -211.861     -156.883       -5.599       83.589       71.751       52.880     6987.096     5148.245     2796.322        4.223        0.747      263.624       43.333        0.027      351.294       33.089      865.105
06/27/2013  16:29:00     -264.272      -47.950        5.031      184.790      103.350       63.007    34147.360    10681.318     3969.888        6.047        2.440      268.587       69.866        0.068      351.602       33.630      865.093
06/27/2013  16:30:00     -257.513      -89.831       -4.013      204.617       95.983       70.412    41867.994     9212.757     4957.827        6.521        2.802      272.732       97.764        0.128      351.731       33.853      865.117
06/27/2013  16:31:00     -146.565      -69.936       22.364      119.889      111.327       58.908    14373.401    12393.785     3470.193        2.855        1.512      162.396       68.572        0.178      351.852       34.065      865.110
06/27/2013  16:32:00     -103.478      -49.072       25.057      115.458       94.343       59.930    13330.605     8900.570     3591.587        1.978        1.291      114.524       70.714        0.381      351.775       33.933      865.087
06/27/2013  16:33:00     -130.001      -62.448        7.345      113.652       91.800       60.129    12916.666     8427.196     3615.439        2.290        1.248      144.222       59.217        0.169      351.847       34.055      865.084
06/27/2013  16:34:00     -216.254     -163.069        2.549      167.447      140.006       79.313    28038.545    19601.662     6290.602        6.364        2.697      270.845       95.235        0.124      351.648       33.707      865.093
06/27/2013  16:35:00     -252.352     -265.951      -12.161      122.523       95.815       64.912    15011.782     9180.488     4213.555        8.148        1.420      366.622       63.410        0.030      351.416       33.302      865.082
06/27/2013  16:36:00     -344.741     -208.233       -9.482      216.621      119.659       91.353    46924.545    14318.306     8345.368       11.593        3.479      402.750       99.596        0.061      351.363       33.209      865.079
06/27/2013  16:37:00     -377.070     -312.681       -3.669      242.635      167.244      120.640    58871.683    27970.496    14553.903       17.066        5.070      489.848      125.949        0.066      351.474       33.405      865.126
06/27/2013  16:38:00     -267.780     -106.390      -35.488      126.099      135.676       59.026    15900.922    18407.897     3484.017        6.103        1.890      288.141       64.115        0.050      351.865       34.087      865.078
06/27/2013  16:39:00     -334.580     -135.781      -21.378      153.924      104.279       52.017    23692.667    10874.185     2705.737        8.405        1.864      361.082       34.616        0.009      351.798       33.968      865.094
06/27/2013  16:40:00     -410.127       -5.122      -20.487      218.165      171.883       79.212    47596.002    29543.616     6274.562       12.602        4.171      410.159       97.522        0.057      351.688       33.777      865.107
06/27/2013  16:41:00     -469.284        2.157      -31.264      166.697      157.367       74.048    27787.744    24764.501     5483.040       13.961        2.902      469.289       73.916        0.025      351.517       33.479      865.078
06/27/2013  16:42:00     -459.692     -151.774      -15.023      187.432      159.038       79.748    35130.817    25293.085     6359.716       15.067        3.339      484.099       76.303        0.025      351.416       33.303      865.099
06/27/2013  16:43:00     -392.548     -160.240       -7.596      173.061       99.857       70.288    29950.112     9971.387     4940.336       11.234        2.243      423.993       82.436        0.038      351.290       33.083      865.098
06/27/2013  16:44:00     -208.135      -47.682       -1.991      146.374       98.511       51.596    21425.466     9704.508     2662.197        3.969        1.690      213.527       42.120        0.039      351.506       33.461      865.073
06/27/2013  16:45:00     -234.804      -71.618        3.301      146.463      123.775       67.995    21451.436    15320.371     4623.352        5.083        2.070      245.484       69.591        0.080      351.652       33.715      865.075
06/27/2013  16:46:00     -280.933     -197.938       -0.360      178.915      149.256       84.071    32010.498    22277.390     7068.016        8.972        3.068      343.661       88.783        0.067      351.447       33.356      865.082
06/27/2013  16:47:00     -166.388      -53.150        2.184      175.112      152.277       99.352    30664.246    23188.335     9870.880        4.711        3.186      174.671       91.459        0.274      351.641       33.697      865.086
06/27/2013  16:48:00     -307.348     -158.326      -14.087      140.505       99.244       70.714    19741.737     9849.329     5000.438        7.715        1.730      345.731       69.048        0.040      351.481       33.417      865.100
06/27/2013  16:49:00     -372.223     -156.688       -0.992      155.752      124.434       67.860    24258.565    15483.815     4605.012       10.372        2.217      403.858       70.351        0.030      351.490       33.433      865.117
06/27/2013  16:50:00     -289.841     -116.368      -17.654      162.791      130.958       67.734    26500.784    17149.931     4587.827        7.304        2.412      312.329       70.259        0.051      351.468       33.394      865.109
06/27/2013  16:51:00     -379.740     -201.263      -12.390      235.987      141.550       86.868    55689.752    20036.420     7546.044       13.405        4.164      429.778      100.295        0.054      351.399       33.275      865.113
06/27/2013  16:52:00     -244.280      -90.174       12.795      222.385      135.389       78.720    49454.983    18330.144     6196.872        7.096        3.699      260.392       99.327        0.146      351.555       33.547      865.110
06/27/2013  16:53:00     -341.414     -135.286       -4.211      198.975      157.395       84.873    39591.133    24773.270     7203.470       10.321        3.578      367.241       96.747        0.069      351.420       33.311      865.135
06/27/2013  16:54:00     -346.280     -195.262      -12.766      189.557      177.499       85.161    35931.690    31505.948     7252.400       11.643        3.735      397.539       91.688        0.053      351.360       33.204      865.141
06/27/2013  16:55:00     -274.016     -234.408        1.850      201.393      127.592       86.855    40559.029    16279.682     7543.842        9.720        3.219      360.600       80.920        0.050      351.284       33.073      865.138
06/27/2013  16:56:00     -291.845     -109.801       -5.367      158.351      158.709       73.109    25075.084    25188.605     5344.880        7.642        2.780      311.817       89.940        0.083      351.364       33.211      865.127
06/27/2013  16:57:00     -310.045     -146.442       -9.119      180.434      122.670       67.444    32556.386    15047.837     4548.659        8.489        2.608      342.890       86.790        0.064      351.504       33.457      865.143
06/27/2013  16:58:00     -192.344        4.136      -11.052       79.971      105.399       46.724     6395.365    11109.042     2183.098        2.841        0.984      192.389       41.498        0.047      351.576       33.582      865.160
06/27/2013  16:59:00     -300.461       15.909      -23.741       94.894       90.090       48.147     9004.903     8116.280     2318.087        5.526        0.972      300.882       47.345        0.025      351.539       33.516      865.163
06/27/2013  17:00:00     -155.567      -22.167       -1.406      145.714       68.419       45.482    21232.632     4681.194     2068.622        2.633        1.399      157.138       63.365        0.163      351.161       32.859      865.126
06/27/2013  17:01:00      -24.683       31.779       31.332       83.813       69.147       54.482     7024.589     4781.263     2968.293        0.868        0.739       40.239       40.135        0.995      351.191       32.913      865.107
06/27/2013  17:02:00     -305.458        3.840      -41.561      150.538      118.868       60.791    22661.712    14129.597     3695.538        6.776        2.024      305.482       70.740        0.054      351.434       33.333      865.109
06/27/2013  17:03:00      -73.414        7.744       13.111       76.353       80.098       42.294     5829.820     6415.705     1788.757        0.983        0.702       73.821       36.241        0.241      351.568       33.572      865.096
06/27/2013  17:04:00      -35.913      -20.607       17.423       91.826       56.539       52.202     8431.929     3196.654     2725.078        0.818        0.718       41.406       55.091        1.770      351.771       33.925      865.100
06/27/2013  17:05:00     -303.229     -121.963        3.847      193.680      125.150       70.312    37511.991    15662.469     4943.735        8.247        2.906      326.837       86.582        0.070      351.463       33.386      865.104
06/27/2013  17:06:00     -163.729      -36.115       19.254      151.703      147.811       73.684    23013.855    21848.173     5429.287        3.938        2.515      167.665       89.905        0.288      351.682       33.768      865.111
06/27/2013  17:07:00     -283.798      -71.723       12.961      185.501      138.970       85.450    34410.496    19312.670     7301.690        7.343        3.051      292.720       94.265        0.104      351.450       33.363      865.120
06/27/2013  17:08:00     -330.316       -7.772      -16.257      139.819      156.903       75.525    19549.422    24618.519     5704.085        7.964        2.494      330.407       69.009        0.044      351.504       33.457      865.142
06/27/2013  17:09:00     -252.465       32.707      -32.782       74.693       88.959       51.429     5579.112     7913.697     2644.900        4.101        0.807      254.575       41.687        0.027      351.446       33.355      865.109
06/27/2013  17:10:00     -400.139     -105.934      -29.350      121.282       84.264       52.068    14709.215     7100.395     2711.071        9.835        1.226      413.924       32.351        0.006      351.319       33.132      865.085
06/27/2013  17:11:00     -219.146     -106.553       -2.070      126.408       93.752       51.905    15978.901     8789.370     2694.166        4.342        1.373      243.678       51.743        0.045      351.492       33.436      865.077
06/27/2013  17:12:00     -281.456     -104.744        0.007      114.003       90.038       57.069    12996.620     8106.922     3256.831        5.727        1.218      300.314       54.486        0.033      351.532       33.505      865.092
06/27/2013  17:13:00     -320.772     -148.610      -22.921      155.946      115.358       74.610    24319.078    13307.390     5566.601        8.434        2.160      353.525       82.316        0.054      351.619       33.658      865.117
06/27/2013  17:14:00     -201.827      -39.871        1.473      121.910      109.664       60.773    14862.068    12026.269     3693.400        3.645        1.529      205.728       69.911        0.115      351.668       33.743      865.117
06/27/2013  17:15:00     -361.529      -60.914       -9.602      134.284      143.029       65.489    18032.154    20457.301     4288.854        8.863        2.139      366.625       53.270        0.021      351.443       33.349      865.130
06/27/2013  17:16:00     -343.469      -86.511      -17.447      199.347      163.352       80.780    39739.197    26683.854     6525.446        9.934        3.647      354.196       78.537        0.049      351.358       33.202      865.109
06/27/2013  17:17:00      -84.835       62.640        7.349      107.455      109.986       47.913    11546.517    12096.841     2295.610        1.855        1.297      105.455       46.595        0.195      351.520       33.485      865.100
06/27/2013  17:18:00     -213.762       -3.393       -5.910      115.517       87.717       52.657    13344.283     7694.327     2772.721        3.477        1.191      213.789       49.258        0.053      351.490       33.433      865.093
06/27/2013  17:19:00     -321.378      103.150      -25.692      134.246       65.786       47.358    18021.983     4327.821     2242.779        6.958        1.230      337.526       35.104        0.011      351.297       33.096      865.064
06/27/2013  17:20:00     -203.021     -115.438      -16.406      135.761      131.006       58.253    18431.081    17162.530     3393.448        4.689        1.949      233.545       69.424        0.088      351.406       33.285      865.094
06/27/2013  17:21:00     -212.343      -66.274      -11.607      152.832      125.704       60.703    23357.574    15801.390     3684.878        4.622        2.142      222.445       58.824        0.070      351.680       33.763      865.094
06/27/2013  17:22:00     -189.305     -129.419       -7.087      185.483      133.028       70.069    34404.009    17696.507     4909.602        5.481        2.851      229.316       84.125        0.135      351.434       33.336      865.110
06/27/2013  17:23:00     -260.923      -87.802      -23.483      161.609      107.431       60.187    26117.595    11541.490     3622.514        5.880        2.064      275.299       38.819        0.020      351.456       33.372      865.098
06/27/2013  17:24:00     -328.624       44.233      -28.413      146.595      134.400       63.952    21490.117    18063.240     4089.836        7.719        2.182      331.588       59.488        0.032      351.293       33.087      865.098
06/27/2013  17:25:00     -210.534      -34.101      -13.667      123.367      120.105       62.482    15219.538    14425.140     3903.941        3.960        1.677      213.277       64.888        0.093      351.519       33.483      865.073
06/27/2013  17:26:00     -451.304      -74.573      -36.097      246.676      129.005       82.656    60848.838    16642.353     6832.086       14.741        4.216      457.423      102.982        0.051      351.409       33.291      865.063
06/27/2013  17:27:00     -479.370      -63.471      -41.411      139.949      154.897       63.100    19585.749    23993.189     3981.651       14.154        2.378      483.554       59.976        0.015      351.235       32.986      865.054
06/27/2013  17:28:00     -326.855       13.000      -14.067      177.313      155.096       80.081    31439.779    24054.650     6412.910        8.454        3.095      327.114       93.385        0.082      351.506       33.459      865.027
06/27/2013  17:29:00     -293.895      -44.385      -11.496      124.090      115.647       60.456    15398.212    13374.300     3654.966        6.045        1.621      297.228       62.473        0.044      351.519       33.483      865.053
06/27/2013  17:30:00     -304.414     -131.078      -11.833      158.882      101.048       59.919    25243.470    10210.715     3590.344        7.451        1.952      331.435       57.563        0.030      351.479       33.413      865.085
06/27/2013  17:31:00     -159.644      -75.355       -5.427      129.350       85.251       64.823    16731.386     7267.812     4202.027        2.969        1.410      176.535       72.259        0.168      351.244       33.004      865.074
06/27/2013  17:32:00     -232.546      -18.643       -7.139       87.724       78.203       44.042     7695.584     6115.696     1939.715        3.511        0.788      233.292       45.721        0.038      351.351       33.189      865.043
06/27/2013  17:33:00     -313.759       -9.404      -14.608      132.928       72.506       53.070    17669.764     5257.179     2816.374        6.224        1.287      313.900       58.552        0.035      351.536       33.512      865.047
06/27/2013  17:34:00     -226.220      -34.789      -19.099      173.835       90.895       52.257    30218.518     8261.922     2730.838        4.697        2.061      228.880       72.242        0.100      351.414       33.301      865.045
06/27/2013  17:35:00      -16.352      -38.982        0.645       47.374       37.465       37.507     2244.267     1403.641     1406.755        0.342        0.253       42.273       17.541        0.172      351.179       32.894      865.028
06/27/2013  17:36:00      -28.978      -39.868       21.419       85.216       48.664       32.577     7261.733     2368.231     1061.287        0.679        0.535       49.286       32.949        0.447      351.368       33.222      865.014
06/27/2013  17:37:00     -242.163     -197.282       -7.726      156.065      123.364       59.741    24356.285    15218.662     3569.044        7.037        2.157      312.351       59.022        0.036      351.411       33.294      865.026
06/27/2013  17:38:00     -193.936      -95.891       -9.501      149.452      112.836       70.555    22335.841    12731.959     4978.030        4.346        2.002      216.347       84.304        0.152      351.511       33.470      865.016
06/27/2013  17:39:00     -239.862      -97.861       -9.650      123.516       87.611       56.106    15256.316     7675.694     3147.860        4.664        1.304      259.057       64.788        0.063      351.524       33.494      864.996
06/27/2013  17:40:00     -258.115      -48.013       -2.772      141.512       62.779       48.427    20025.685     3941.217     2345.139        4.762        1.316      262.542       49.755        0.036      351.577       33.584      864.989
06/27/2013  17:41:00     -215.052       -7.226      -13.640      149.964       84.043       59.743    22489.202     7063.166     3569.261        3.980        1.656      215.173       78.925        0.135      351.617       33.657      864.989
06/27/2013  17:42:00     -387.700      -25.346      -14.819      154.975      114.717       75.087    24017.275    13159.888     5638.037        9.699        2.141      388.528       80.404        0.043      351.636       33.686      865.005
06/27/2013  17:43:00     -375.747     -135.232       -5.281      209.009      112.047       77.892    43684.767    12554.610     6067.146       11.089        3.115      399.342       90.902        0.052      351.349       33.187      865.025
06/27/2013  17:44:00     -240.371     -102.822       19.889      177.746      106.456       72.750    31593.780    11332.838     5292.507        5.847        2.411      261.440       90.079        0.119      351.307       33.113      865.028
06/27/2013  17:45:00     -156.738      -14.280      -18.590      126.915       77.753       45.920    16107.297     6045.461     2108.646        2.468        1.213      157.387       54.518        0.120      351.484       33.423      865.008
06/27/2013  17:46:00     -355.410       -4.954      -26.670      175.739      131.906       70.159    30884.288    17399.102     4922.230        9.012        2.660      355.444       82.419        0.054      351.328       33.149      864.978
06/27/2013  17:47:00     -484.245      -93.507      -22.900      203.031      123.357       68.182    41221.786    15216.931     4648.754       15.241        3.054      493.190       82.129        0.028      351.264       33.037      864.999
06/27/2013  17:48:00     -157.984      -50.552       12.512      159.494      145.358       68.895    25438.367    21128.891     4746.487        3.948        2.566      165.875       78.292        0.223      351.300       33.102      865.005
06/27/2013  17:49:00     -281.405      -21.631      -14.922      180.727      117.980       60.284    32662.084    13919.349     3634.178        6.504        2.511      282.235       70.097        0.062      351.399       33.274      864.991
06/27/2013  17:50:00     -292.905       96.860      -35.098      139.857      104.238       68.477    19559.885    10865.501     4689.103        6.575        1.756      308.505       65.997        0.046      351.174       32.880      864.950
06/27/2013  17:51:00     -161.537     -103.346       -1.656      112.146       80.201       52.109    12576.828     6432.234     2715.399        2.925        1.086      191.767       52.009        0.074      351.516       33.478      864.975
06/27/2013  17:52:00     -314.810     -225.091        2.694      239.841      217.355       95.956    57523.802    47243.295     9207.565       13.185        5.699      387.003      106.342        0.076      351.331       33.155      865.010
06/27/2013  17:53:00     -273.661     -139.658        4.140      166.015      117.795       81.193    27560.917    13875.642     6592.271        7.121        2.401      307.237       87.416        0.081      351.313       33.124      865.036
06/27/2013  17:54:00     -360.859     -128.994       -8.774      157.827      174.869       79.264    24909.443    30579.102     6282.768       10.434        3.089      383.222       86.638        0.051      351.198       32.921      865.039
06/27/2013  17:55:00     -249.683     -170.954        7.982      164.254      123.289       75.012    26979.345    15200.225     5626.735        6.971        2.390      302.600       78.322        0.067      351.268       33.043      865.037
06/27/2013  17:56:00      -60.874      -22.452       22.910      127.229       99.911       67.953    16187.248     9982.292     4617.616        1.775        1.539       64.883       66.604        1.054      351.281       33.069      865.063
06/27/2013  17:57:00     -187.432      -72.015        9.378      135.629       92.736       64.140    18395.357     8599.977     4113.991        3.575        1.555      200.791       69.404        0.119      351.218       32.958      865.048
06/27/2013  17:58:00     -263.584     -109.730      -11.229      102.876       76.967       52.703    10583.508     5923.897     2777.605        5.046        0.964      285.512       46.555        0.027      351.178       32.886      865.036
06/27/2013  17:59:00     -213.694      -84.388        0.756      205.277      135.627       71.155    42138.492    18394.683     5063.034        5.918        3.280      229.753       89.244        0.151      351.230       32.979      865.034
06/27/2013  18:00:00     -279.741     -123.536       -8.466      211.171      127.487       70.478    44593.375    16252.984     4967.122        7.969        3.291      305.805       79.815        0.068      351.121       32.788      865.048
06/27/2013  18:01:00     -316.198       -4.550      -25.685      135.766       84.049       52.003    18432.458     7064.163     2704.306        6.443        1.410      316.231       58.612        0.034      351.279       33.064      865.043
06/27/2013  18:02:00     -186.369     -102.118        1.522      135.242      124.259       65.788    18290.392    15440.408     4328.096        4.160        1.903      212.512       70.434        0.110      351.316       33.128      865.041
06/27/2013  18:03:00     -216.714      -49.921       12.594      119.138      103.298       64.904    14193.911    10670.534     4212.489        3.934        1.454      222.389       63.348        0.081      351.366       33.217      865.055
06/27/2013  18:04:00     -327.360      -57.896      -20.069      138.880      106.981       66.819    19287.611    11444.862     4464.812        7.305        1.760      332.440       71.329        0.046      351.445       33.354      865.049
06/27/2013  18:05:00     -254.049     -168.310        9.484      172.086      166.075       80.259    29613.625    27580.937     6441.512        7.828        3.182      304.744       95.432        0.098      351.286       33.077      865.078
06/27/2013  18:06:00     -121.834      -32.559        6.708      142.407       93.546       75.355    20279.659     8750.802     5678.413        2.532        1.735      126.110       81.284        0.415      351.349       33.187      865.089
06/27/2013  18:07:00     -141.306      -47.850       -2.815      121.813       84.977       59.671    14838.431     7221.115     3560.678        2.394        1.281      149.188       64.307        0.186      351.348       33.185      865.093
06/27/2013  18:08:00     -296.586     -126.771       -2.790      179.807      129.426       76.904    32330.597    16751.037     5914.281        7.951        2.750      322.543       93.022        0.083      351.175       32.883      865.105
06/27/2013  18:09:00     -236.552      -27.716      -27.068      125.629       69.460       48.060    15782.584     4824.709     2309.759        4.018        1.146      238.170       49.866        0.044      351.183       32.897      865.062
06/27/2013  18:10:00     -280.007     -131.072      -14.877      170.267      114.257       60.340    28990.986    13054.645     3640.955        7.074        2.284      309.167       78.561        0.065      351.208       32.939      865.069
06/27/2013  18:11:00     -344.994     -100.653       -6.494      162.398       95.989       59.765    26372.953     9213.855     3571.833        8.417        1.958      359.377       68.259        0.036      351.215       32.951      865.071
06/27/2013  18:12:00     -232.019      -82.849       -2.008      160.921       95.355       64.478    25895.633     9092.609     4157.377        4.992        1.957      246.367       70.491        0.082      351.268       33.044      865.068
06/27/2013  18:13:00     -398.142      -92.412      -21.815      140.592      128.129       63.371    19766.023    16417.058     4015.828       10.386        2.010      408.726       65.096        0.025      351.190       32.909      865.067
06/27/2013  18:14:00     -153.092      -42.742       18.764      162.748      102.058       63.543    26486.887    10415.783     4037.721        3.327        2.047      158.947       69.876        0.193      351.214       32.952      865.063
06/27/2013  18:15:00     -145.761      -46.723       12.720      159.686      123.608       72.079    25499.656    15278.970     5195.346        3.477        2.299      153.066       83.492        0.298      351.203       32.933      865.063
06/27/2013  18:16:00     -280.033      -99.088      -17.547      192.889      114.629       79.551    37206.279    13139.896     6328.409        7.260        2.834      297.047       94.237        0.101      351.183       32.895      865.084
06/27/2013  18:17:00     -231.140      -72.671        8.268      171.947      117.084       72.653    29565.908    13708.636     5278.481        5.365        2.428      242.295       83.215        0.118      351.144       32.828      865.067
06/27/2013  18:18:00     -391.785      -82.746       -9.865      170.767      133.324       68.559    29161.309    17775.286     4700.355       10.603        2.582      400.428       63.084        0.025      351.117       32.781      865.078
06/27/2013  18:19:00     -138.271      -83.797        0.441      167.217       99.418       58.271    27961.405     9883.995     3395.549        3.368        2.062      161.681       64.027        0.157      351.187       32.904      865.085
06/27/2013  18:20:00     -115.191      -36.275       12.757      105.768       81.237       47.801    11186.945     6599.380     2284.903        1.741        1.004      120.767       47.120        0.152      351.259       33.032      865.089
06/27/2013  18:21:00     -297.285     -108.503      -22.482      124.029      144.531       59.864    15383.135    20889.321     3583.683        7.025        1.993      316.467       60.688        0.037      351.207       32.939      865.103
06/27/2013  18:22:00     -230.886     -115.004        2.996      129.591      101.033       54.871    16793.878    10207.694     3010.823        4.827        1.501      257.942       52.166        0.041      351.199       32.925      865.084
06/27/2013  18:23:00     -261.072      -80.759       -4.435      131.904      104.804       57.904    17398.690    10983.971     3352.891        5.321        1.587      273.277       70.927        0.067      351.220       32.961      865.099
06/27/2013  18:24:00     -223.125      -53.711       -4.024      135.369       89.965       59.037    18324.816     8093.669     3485.400        4.129        1.495      229.499       53.363        0.054      351.359       33.203      865.109
06/27/2013  18:25:00     -349.729      -64.766      -24.395      143.049      141.743       54.634    20463.141    20090.995     2984.897        8.531        2.177      355.676       56.088        0.025      351.248       33.008      865.119
06/27/2013  18:26:00     -317.072      -65.521      -19.759      164.374      131.501       66.037    27018.853    17292.461     4360.900        7.694        2.434      323.771       74.174        0.052      351.205       32.933      865.120
06/27/2013  18:27:00     -248.080        9.746      -19.657      102.412       95.109       58.560    10488.312     9045.756     3429.285        4.249        1.148      248.272       50.510        0.041      351.322       33.140      865.122
06/27/2013  18:28:00     -264.306      -87.028      -12.280      117.291      104.757       58.978    13757.230    10974.091     3478.451        5.289        1.410      278.265       64.625        0.054      351.344       33.176      865.123
06/27/2013  18:29:00      -57.927      -83.754       22.745      131.855      130.972       60.713    17385.758    17153.783     3686.015        2.455        1.911      101.835       60.490        0.353      351.188       32.906      865.147
06/27/2013  18:30:00     -214.460      -26.841       -7.628      149.256      108.784       62.020    22277.301    11833.987     3846.423        4.236        1.898      216.133       70.670        0.107      351.136       32.816      865.157
06/27/2013  18:31:00     -271.830      -34.477       -1.502      124.085       82.516       46.498    15397.045     6808.951     2162.091        4.972        1.218      274.007       56.214        0.042      351.203       32.930      865.161
06/27/2013  18:32:00     -331.844      -85.262      -21.421      149.871       87.850       50.826    22461.224     7717.710     2583.310        7.530        1.638      342.623       60.528        0.031      351.145       32.829      865.169
06/27/2013  18:33:00     -232.516     -110.081       -8.213      137.295       93.025       58.092    18849.997     8653.695     3374.635        4.856        1.544      257.258       69.382        0.073      351.149       32.837      865.157
06/27/2013  18:34:00     -195.054      -66.085      -13.416      118.124       80.592       62.929    13953.200     6495.080     3960.104        3.350        1.220      205.945       60.011        0.085      351.123       32.792      865.167
06/27/2013  18:35:00     -113.176      -14.797       -2.105       87.475       52.234       29.625     7651.887     2728.403      877.633        1.214        0.563      114.139       29.099        0.065      351.190       32.911      865.179
06/27/2013  18:36:00      -92.463        5.727      -12.391       39.731       59.314       33.671     1578.560     3518.145     1133.734        0.748        0.312       92.640       20.571        0.049      351.243       33.004      865.164
06/27/2013  18:37:00     -181.782      -80.743      -18.621       85.857       57.403       38.316     7371.397     3295.105     1468.140        2.602        0.607      198.907       29.536        0.022      351.253       33.019      865.156
06/27/2013  18:38:00      -76.153      -15.786        1.637      130.597       73.933       46.945    17055.533     5466.059     2203.809        1.538        1.236       77.772       31.867        0.168      351.126       32.800      865.156
06/27/2013  18:39:00     -152.428       -6.170       -7.657      125.936       99.693       54.677    15859.849     9938.720     2989.552        2.605        1.439      152.553       61.271        0.161      351.035       32.640      865.161
06/27/2013  18:40:00     -234.913      -26.120      -27.448      126.281      105.283       54.341    15946.815    11084.433     2952.907        4.330        1.499      236.361       57.160        0.058      351.099       32.752      865.155
06/27/2013  18:41:00     -238.237       17.094      -10.332      120.521      105.413       56.883    14525.340    11111.940     3235.714        4.301        1.444      238.850       62.276        0.068      351.082       32.719      865.157
06/27/2013  18:42:00     -207.053      -83.145      -17.779      111.644       94.501       59.140    12464.288     8930.479     3497.502        3.749        1.245      223.123       62.279        0.078      351.089       32.733      865.171
06/27/2013  18:43:00     -216.562      -61.341       -2.886      113.370       80.642       56.654    12852.851     6503.167     3209.681        3.661        1.128      225.082       34.417        0.023      351.149       32.838      865.162
06/27/2013  18:44:00     -123.150       -9.105       14.045       77.506       65.240       45.593     6007.230     4256.271     2078.752        1.389        0.617      123.486       44.420        0.129      351.253       33.020      865.185
06/27/2013  18:45:00     -135.475       37.292      -21.825       73.189      111.481       55.388     5356.609    12428.068     3067.802        2.053        1.043      140.514       45.924        0.107      351.072       32.704      865.220
06/27/2013  18:46:00     -122.526       95.405      -22.175       87.524      107.171       53.718     7660.536    11485.646     2885.651        2.331        1.102      155.289       52.173        0.113      350.938       32.471      865.232
06/27/2013  18:47:00     -155.720       56.625      -16.725       99.746       81.708       56.333     9949.340     6676.142     3173.428        2.376        0.990      165.696       54.255        0.107      350.970       32.526      865.240
06/27/2013  18:48:00     -167.274       -4.332        0.450       80.318       84.933       36.618     6450.949     7213.606     1340.913        2.150        0.750      167.330       37.272        0.050      350.979       32.541      865.226
06/27/2013  18:49:00     -152.080       82.835      -26.120       78.769       94.288       43.668     6204.501     8890.258     1906.888        2.383        0.850      173.177       30.039        0.030      350.877       32.366      865.217
06/27/2013  18:50:00      -39.264       72.478        6.938       40.761       36.769       30.463     1661.470     1351.936      927.993        0.539        0.197       82.430       27.845        0.114      350.917       32.437      865.205
06/27/2013  18:51:00      -72.721       46.752        0.352       58.699       72.588       38.919     3445.597     5269.090     1514.697        0.885        0.511       86.453       34.637        0.161      350.930       32.459      865.213
06/27/2013  18:52:00     -109.652       78.070       -9.237       91.744       72.182       54.706     8416.906     5210.173     2992.757        1.741        0.831      134.605       54.124        0.162      350.955       32.504      865.215
06/27/2013  18:53:00     -210.738       45.172      -28.988       73.387       83.910       49.629     5385.646     7040.850     2463.016        3.109        0.744      215.525       33.800        0.025      350.957       32.503      865.194
06/27/2013  18:54:00     -142.119      -30.761       15.025       95.539       81.161       44.317     9127.745     6587.176     1964.006        1.952        0.884      145.410       47.916        0.109      351.078       32.716      865.196
06/27/2013  18:55:00     -189.642       38.365      -19.054       88.450      112.944       53.554     7823.469    12756.459     2868.055        3.062        1.172      193.483       48.798        0.064      351.024       32.621      865.200
06/27/2013  18:56:00     -297.261       18.579      -25.851       96.048       97.317       52.520     9225.298     9470.634     2758.339        5.541        1.073      297.841       39.953        0.018      351.080       32.717      865.205
06/27/2013  18:57:00     -267.602      -30.647      -26.052      123.119      118.723       57.726    15158.192    14095.267     3332.333        5.290        1.629      269.352       34.264        0.016      350.966       32.519      865.225
06/27/2013  18:58:00     -254.109      -91.876      -29.762      108.901      107.661       57.979    11859.474    11590.888     3361.536        5.035        1.341      270.208       41.931        0.024      350.866       32.344      865.212
06/27/2013  18:59:00     -247.818       64.418      -42.199      128.895      112.237       65.061    16613.825    12597.104     4232.935        5.039        1.672      256.054       42.116        0.027      350.832       32.285      865.230
06/27/2013  19:00:00      -91.953      108.483      -14.992      119.756       91.997       65.002    14341.429     8463.493     4225.199        2.373        1.352      142.211       50.873        0.128      350.867       32.348      865.259
06/27/2013  19:01:00     -138.992      162.965      -12.933      108.543       89.947       63.642    11781.646     8090.463     4050.363        3.498        1.196      214.188       60.213        0.079      350.701       32.057      865.282
06/27/2013  19:02:00     -265.390      358.984      -65.919      115.657      148.374       77.169    13376.446    22014.969     5955.027       12.249        2.067      446.432       85.877        0.037      350.602       31.883      865.276
06/27/2013  19:03:00     -260.259      307.676      -59.468      185.869      144.593       95.234    34547.273    20907.277     9069.503       11.522        3.226      402.988      102.323        0.064      350.596       31.874      865.266
06/27/2013  19:04:00     -145.377      173.669       -5.671      101.241      117.872       71.995    10249.658    13893.835     5183.235        4.032        1.466      226.484       66.710        0.087      350.657       31.981      865.253
06/27/2013  19:05:00     -115.136      331.149      -38.418      110.195      187.907       62.569    12142.908    35308.981     3914.906        8.787        2.568      350.593       67.877        0.037      350.560       31.811      865.264
06/27/2013  19:06:00      -64.626      477.618      -50.888       95.265      183.549       71.366     9075.406    33690.364     5093.100       14.136        2.393      481.970       80.769        0.028      350.454       31.627      865.252
06/27/2013  19:07:00     -133.866      457.725      -71.663      118.518      120.563       61.153    14046.626    14535.437     3739.723       13.244        1.616      476.899       50.992        0.011      350.468       31.650      865.268
06/27/2013  19:08:00     -146.704      448.545      -53.445      123.220      182.854       62.703    15183.102    33435.475     3931.690       13.905        2.628      471.927       62.152        0.017      350.491       31.689      865.291
06/27/2013  19:09:00     -208.051      391.297      -55.287      147.972      163.263       76.459    21895.601    26654.871     5845.998       12.691        2.720      443.168       60.482        0.019      350.452       31.623      865.308
06/27/2013  19:10:00      -65.230      388.073      -44.501       81.228      134.219       52.456     6598.021    18014.735     2751.677        9.209        1.368      393.517       45.399        0.013      350.428       31.583      865.293
06/27/2013  19:11:00     -173.549      404.832      -47.728      118.404      135.008       66.695    14019.565    18227.171     4448.261       11.648        1.835      440.464       60.960        0.019      350.420       31.567      865.303
06/27/2013  19:12:00     -154.657      380.383      -41.437       88.219      123.250       56.206     7782.538    15190.480     3159.115        9.822        1.307      410.621       51.377        0.016      350.419       31.565      865.325
06/27/2013  19:13:00     -195.612      355.815      -47.989      113.217      124.277       66.599    12818.125    15444.868     4435.415        9.993        1.635      406.040       62.253        0.024      350.458       31.633      865.333
06/27/2013  19:14:00     -166.771      146.411      -20.408      101.010      151.096       66.295    10203.008    22830.138     4395.009        4.354        1.871      221.921       74.591        0.113      350.526       31.753      865.347
06/27/2013  19:15:00     -143.823      137.957      -16.418       84.983      132.921       53.250     7222.068    17668.031     2835.571        3.385        1.386      199.291       31.792        0.025      350.610       31.900      865.334
06/27/2013  19:16:00      -90.211      244.113      -32.807       87.485       86.062       51.411     7653.687     7406.613     2643.089        4.325        0.885      260.249       47.179        0.033      350.518       31.735      865.326
06/27/2013  19:17:00     -142.526       88.799      -10.035       68.135       96.730       39.764     4642.368     9356.650     1581.176        2.194        0.779      167.925       43.698        0.068      350.682       32.025      865.324
06/27/2013  19:18:00     -177.666      313.700      -39.623      102.564      164.496       68.897    10519.362    27058.778     4746.757        8.693        2.116      360.518       67.110        0.035      350.455       31.628      865.310
06/27/2013  19:19:00      -77.457      100.492        3.731       77.025      129.031       65.538     5932.841    16648.903     4295.201        2.149        1.344      126.879       65.530        0.267      350.516       31.737      865.287
06/27/2013  19:20:00     -189.354      205.045      -46.913       82.267       71.627       46.623     6767.869     5130.441     2173.699        4.708        0.704      279.102       42.236        0.023      350.539       31.772      865.278
06/27/2013  19:21:00     -162.143      188.524      -17.953       95.690      147.238       64.148     9156.565    21679.102     4114.907        4.855        1.748      248.660       44.547        0.032      350.489       31.689      865.271
06/27/2013  19:22:00     -244.202      255.076      -49.835      126.754      138.723       68.368    16066.523    19244.165     4674.173        8.358        1.999      353.126       64.046        0.033      350.406       31.543      865.301
06/27/2013  19:23:00     -154.866      238.159      -24.316      107.400      134.888       66.812    11534.670    18194.656     4463.853        5.774        1.710      284.083       68.723        0.059      350.308       31.375      865.297
06/27/2013  19:24:00     -226.000      287.365      -51.694      153.666      185.955       78.046    23613.390    34579.331     6091.198       10.029        3.214      365.588       95.672        0.068      350.307       31.373      865.304
06/27/2013  19:25:00     -146.817      344.161      -32.123      115.623      152.501       82.326    13368.659    23256.540     6777.511        9.221        2.170      374.169       83.201        0.049      350.297       31.354      865.297
06/27/2013  19:26:00     -241.828      251.004      -49.841      130.945      165.243       75.518    17146.541    27305.092     5703.000        8.705        2.508      348.545       71.355        0.042      350.349       31.445      865.299
06/27/2013  19:27:00     -326.802      334.982      -62.662      156.536      164.976       85.972    24503.638    27216.985     7391.242       14.101        2.956      467.987       98.108        0.044      350.319       31.392      865.305
06/27/2013  19:28:00     -225.374      299.132      -60.538      108.317      112.018       57.160    11732.594    12548.139     3267.235        8.574        1.377      374.531       53.389        0.020      350.332       31.415      865.317
06/27/2013  19:29:00     -159.229      292.494      -43.586      101.586      123.117       61.453    10319.616    15157.715     3776.429        7.102        1.463      333.026       59.799        0.032      350.297       31.354      865.342
06/27/2013  19:30:00     -251.285      419.363      -71.193      165.725      129.353       81.804    27464.822    16732.245     6691.973       14.747        2.544      488.885       93.821        0.037      350.228       31.235      865.354
06/27/2013  19:31:00     -186.436      261.267      -41.829      113.551      118.927       78.488    12893.717    14143.748     6160.433        6.898        1.660      320.965       63.800        0.040      350.187       31.164      865.354
06/27/2013  19:32:00     -224.038      280.746      -36.750      147.642      152.027       78.108    21798.093    23112.254     6100.913        9.068        2.551      359.182       67.199        0.035      350.175       31.140      865.367
06/27/2013  19:33:00     -248.057      257.846      -42.940      156.325      157.777       86.698    24437.638    24893.626     7516.563        9.334        2.842      357.794       85.782        0.057      350.184       31.156      865.376
06/27/2013  19:34:00     -239.359      171.130       -8.967      144.075      101.901       71.279    20757.628    10383.831     5080.635        6.143        1.811      294.242       62.681        0.045      350.157       31.109      865.401
06/27/2013  19:35:00     -166.500      207.722      -25.981      135.905      101.723       69.456    18470.060    10347.646     4824.092        5.259        1.682      266.215       65.018        0.060      350.131       31.065      865.404
06/27/2013  19:36:00     -136.406      185.676      -11.515       96.049      114.108       66.903     9225.432    13020.616     4476.010        3.996        1.336      230.396       65.417        0.081      350.145       31.091      865.407
06/27/2013  19:37:00     -236.055      265.274      -46.250      104.968      126.437       65.507    11018.295    15986.225     4291.227        7.976        1.565      355.095       66.312        0.035      350.125       31.056      865.423
06/27/2013  19:38:00     -193.369      382.124      -48.739      115.168      142.361       64.439    13263.782    20266.523     4152.410       11.173        1.884      428.264       67.325        0.025      350.101       31.012      865.443
06/27/2013  19:39:00     -195.151      258.573      -38.824       90.644      116.697       66.962     8216.303    13618.240     4483.912        6.638        1.316      323.950       57.638        0.032      350.157       31.111      865.440
06/27/2013  19:40:00     -189.018      188.586       -3.863      153.656      177.873       74.939    23610.115    31638.683     5615.869        6.607        3.043      267.006       64.793        0.059      350.096       31.004      865.455
06/27/2013  19:41:00     -213.057      203.609      -26.644      108.408      145.566       71.810    11752.353    21189.334     5156.641        6.282        1.905      294.703       77.696        0.070      350.146       31.092      865.479
06/27/2013  19:42:00     -192.978      231.053      -32.720      102.162      149.132       68.820    10436.974    22240.256     4736.198        6.455        1.871      301.041       74.917        0.062      350.138       31.077      865.484
06/27/2013  19:43:00     -211.276      224.663      -26.699      139.925      123.405       69.141    19579.127    15228.909     4780.492        6.770        1.979      308.400       71.748        0.054      350.103       31.016      865.468
06/27/2013  19:44:00     -249.833      214.903      -53.096      117.977      124.469       67.562    13918.543    15492.532     4564.574        7.269        1.699      329.545       56.738        0.030      350.090       30.992      865.476
06/27/2013  19:45:00     -212.892      281.034      -50.083      109.649      128.307       66.606    12022.825    16462.751     4436.324        7.986        1.646      352.566       57.374        0.026      350.059       30.940      865.475
06/27/2013  19:46:00     -274.314      179.540      -65.151      127.633      102.327       60.920    16290.224    10470.794     3711.268        7.109        1.524      327.845       36.882        0.013      350.108       31.023      865.473
06/27/2013  19:47:00     -221.587      294.019      -39.852      119.651      135.361       72.621    14316.379    18322.590     5273.828        8.752        1.896      368.168       57.854        0.025      350.036       30.899      865.510
06/27/2013  19:48:00     -172.302       70.046      -32.387       72.917       90.249       52.406     5316.912     8144.856     2746.341        2.592        0.810      185.996       37.574        0.041      350.103       31.017      865.512
06/27/2013  19:49:00     -192.148       32.801      -16.790      112.514       93.515       62.186    12659.392     8745.073     3867.148        3.177        1.264      194.928       44.566        0.052      350.071       30.961      865.496
06/27/2013  19:50:00     -128.045      171.606      -26.134       71.631       95.295       56.437     5130.951     9081.138     3185.157        3.196        0.870      214.113       35.081        0.027      350.042       30.911      865.493
06/27/2013  19:51:00     -170.353      147.731      -22.027       96.147       86.046       50.161     9244.210     7403.929     2516.114        3.524        0.958      225.487       38.439        0.029      350.033       30.894      865.507
06/27/2013  19:52:00     -133.398       31.461      -23.441       67.012      114.351       45.205     4490.602    13076.265     2043.488        1.947        0.981      137.058       44.114        0.104      350.102       31.018      865.502
06/27/2013  19:53:00     -199.974      110.024      -30.226       95.964      172.697       69.349     9209.121    29824.246     4809.340        4.842        2.192      228.242       87.296        0.146      350.003       30.845      865.508
06/27/2013  19:54:00     -232.464       91.614      -25.576      161.351      101.287       68.697    26034.289    10258.962     4719.213        5.204        2.051      249.866       81.146        0.105      349.999       30.838      865.510
06/27/2013  19:55:00     -252.984      135.228      -44.253      118.380      103.967       60.738    14013.732    10809.209     3689.069        5.637        1.426      286.858       50.589        0.031      349.948       30.748      865.522
06/27/2013  19:56:00     -215.131       49.106      -30.904      100.582      102.670       55.950    10116.774    10541.175     3130.412        3.671        1.189      220.665       42.660        0.037      349.952       30.754      865.511
06/27/2013  19:57:00     -148.982       91.671      -11.368       88.978       96.936       57.952     7917.052     9396.591     3358.424        2.570        1.034      174.927       51.787        0.088      349.918       30.698      865.512
06/27/2013  19:58:00     -220.782       96.052      -39.535       83.652      103.373       50.252     6997.636    10686.001     2525.258        3.987        1.010      240.771       45.613        0.036      349.869       30.612      865.501
06/27/2013  19:59:00     -304.885       60.682      -37.168      129.013      109.130       57.612    16644.348    11909.455     3319.085        6.494        1.594      310.865       53.659        0.030      349.850       30.577      865.514
06/27/2013  20:00:00     -169.782       46.209      -23.005      125.232      125.899       60.725    15683.085    15850.630     3687.501        3.335        1.761      175.958       60.137        0.117      349.822       30.528      865.507
06/27/2013  20:01:00     -188.581       76.783      -23.604       81.659       88.528       54.526     6668.217     7837.200     2973.033        2.974        0.874      203.614       29.209        0.021      349.798       30.488      865.506
06/27/2013  20:02:00     -218.221       81.747       -8.337      121.969      103.205       69.332    14876.366    10651.305     4806.979        4.235        1.517      233.030       68.208        0.086      349.768       30.434      865.519
06/27/2013  20:03:00     -225.964       18.547      -21.601       93.445      104.592       51.726     8731.881    10939.513     2675.579        3.710        1.117      226.724       37.579        0.027      349.779       30.454      865.541
06/27/2013  20:04:00     -193.509       98.566      -19.286       95.811       95.039       54.160     9179.842     9032.406     2933.271        3.434        1.057      217.166       49.399        0.052      349.784       30.463      865.550
06/27/2013  20:05:00     -237.573       84.576      -33.654      116.203       95.009       58.323    13503.130     9026.778     3401.581        4.532        1.297      252.178       61.075        0.059      349.724       30.358      865.566
06/27/2013  20:06:00     -319.686       35.885      -34.778      124.498       99.224       54.760    15499.772     9845.493     2998.643        6.651        1.417      321.694       59.831        0.035      349.720       30.349      865.575
06/27/2013  20:07:00     -176.906      -25.453      -11.640       94.948       84.176       42.598     9015.174     7085.641     1814.570        2.499        0.896      178.727       42.154        0.056      349.687       30.296      865.572
06/27/2013  20:08:00     -239.241       33.606      -27.983      100.893      106.222       47.499    10179.349    11283.044     2256.159        4.143        1.186      241.590       46.351        0.037      349.613       30.166      865.579
06/27/2013  20:09:00     -150.428       30.046      -32.039       70.069       97.325       53.649     4909.641     9472.249     2878.237        2.091        0.863      153.399       43.146        0.079      349.621       30.179      865.582
06/27/2013  20:10:00     -193.710      -23.831      -18.300      122.901      102.183       58.507    15104.655    10441.303     3423.043        3.369        1.448      195.171       60.939        0.097      349.602       30.149      865.588
06/27/2013  20:11:00     -206.932       65.370      -26.624       95.097       77.707       60.060     9043.533     6038.448     3607.249        3.324        0.934      217.012       58.659        0.073      349.608       30.158      865.598
06/27/2013  20:12:00     -194.941       70.952      -18.812      123.633      115.537       89.740    15285.004    13348.703     8053.192        4.003        1.834      207.451       80.270        0.150      349.600       30.141      865.616
06/27/2013  20:13:00     -265.069      125.836      -28.545      119.617      130.021       63.974    14308.205    16905.442     4092.677        6.110        1.765      293.421       51.873        0.031      349.580       30.110      865.613
06/27/2013  20:14:00     -195.584      203.162      -44.889      111.409       88.197       51.652    12412.066     7778.714     2667.957        5.220        1.143      282.007       54.632        0.038      349.536       30.032      865.628
06/27/2013  20:15:00     -173.526      254.133      -29.935       96.293      141.040       66.760     9272.430    19892.160     4456.834        6.460        1.681      307.725       63.383        0.042      349.521       30.007      865.650
06/27/2013  20:16:00     -165.728      141.947      -24.619      104.567      165.828       68.551    10934.165    27499.028     4699.298        4.567        2.157      218.208       74.167        0.116      349.491       29.954      865.675
06/27/2013  20:17:00     -145.971      151.301      -24.207       83.435       97.004       49.649     6961.341     9409.714     2465.034        3.181        0.942      210.237       42.771        0.041      349.497       29.966      865.701
06/27/2013  20:18:00     -137.216      150.120      -19.905       87.541      107.504       53.315     7663.368    11557.114     2842.522        3.191        1.103      203.382       42.521        0.044      349.518       30.002      865.725
06/27/2013  20:19:00     -127.623      223.797      -29.665       79.929       74.949       46.283     6388.659     5617.412     2142.122        4.070        0.707      257.629       38.891        0.023      349.470       29.917      865.749
06/27/2013  20:20:00      -55.116      138.182       16.747       65.658       68.579       49.260     4310.991     4703.100     2426.517        1.692        0.572      148.768       42.983        0.083      349.379       29.762      865.765
06/27/2013  20:21:00     -115.170       85.032      -16.394       66.244       64.388       36.673     4388.212     4145.823     1344.902        1.532        0.494      143.159       33.959        0.056      349.373       29.754      865.806
06/27/2013  20:22:00      -76.415       76.615       -4.051       45.144       52.185       42.376     2038.019     2723.283     1795.767        0.914        0.328      108.209       29.042        0.072      349.395       29.792      865.824
06/27/2013  20:23:00      -62.079       99.574       -8.287       55.881       69.212       38.181     3122.690     4790.247     1457.752        1.160        0.469      117.340       36.017        0.094      349.355       29.721      865.845
06/27/2013  20:24:00     -143.952      171.116      -27.319       92.782      102.465       49.223     8608.496    10499.069     2422.883        3.614        1.077      223.613       65.247        0.085      349.305       29.633      865.856
06/27/2013  20:25:00     -158.994      186.779      -36.048       57.986       67.791       37.461     3362.353     4595.590     1403.331        3.541        0.468      245.286       33.224        0.018      349.393       29.785      865.875
06/27/2013  20:26:00     -119.694      140.603      -26.455       57.018       79.856       32.373     3251.098     6377.032     1047.986        2.273        0.534      184.650       31.702        0.029      349.315       29.650      865.892
06/27/2013  20:27:00      -76.094      273.112      -24.372       55.424       86.544       50.858     3071.793     7489.940     2586.513        4.706        0.657      283.514       47.183        0.028      349.271       29.571      865.908
06/27/2013  20:28:00     -123.912      174.335      -20.394       71.329       98.286       42.904     5087.807     9660.234     1840.775        3.137        0.829      213.885       47.468        0.049      349.184       29.423      865.918
06/27/2013  20:29:00     -117.882      249.991      -29.529       70.424       90.037       49.816     4959.598     8106.728     2481.600        4.640        0.777      276.390       48.058        0.030      349.234       29.508      865.940
06/27/2013  20:30:00      -78.650      215.416      -16.165       78.467       83.219       47.908     6157.043     6925.425     2295.163        3.411        0.769      229.325       40.195        0.031      349.208       29.464      865.953
06/27/2013  20:31:00      -88.203      225.704      -17.609       71.806       76.210       38.394     5156.151     5807.989     1474.086        3.573        0.622      242.326       29.749        0.015      349.179       29.413      865.963
06/27/2013  20:32:00      -97.597      166.808      -16.043       79.374      125.843       38.969     6300.270    15836.517     1518.597        3.063        1.183      193.262       47.692        0.061      349.185       29.426      865.980
06/27/2013  20:33:00     -103.777      129.770      -25.667       58.611       99.165       40.561     3435.195     9833.723     1645.191        2.159        0.746      166.162       45.606        0.075      349.147       29.360      865.998
06/27/2013  20:34:00      -88.748      157.532       -7.303       94.833      132.063       62.794     8993.297    17440.661     3943.079        3.156        1.519      180.811       78.120        0.187      349.168       29.395      866.009
06/27/2013  20:35:00     -125.045      211.510      -27.853       67.946       90.188       58.577     4616.638     8133.899     3431.225        3.866        0.809      245.709       54.218        0.049      349.175       29.408      866.011
06/27/2013  20:36:00     -121.631       98.310      -11.110       84.857       58.987       40.629     7200.627     3479.500     1650.741        1.845        0.617      156.393       26.117        0.028      349.137       29.342      866.024
06/27/2013  20:37:00      -86.733      153.666      -12.906       58.458       89.457       43.964     3417.367     8002.585     1932.856        2.233        0.668      176.454       41.832        0.056      349.079       29.242      866.040
06/27/2013  20:38:00     -131.443      131.332      -33.345       53.263       84.121       30.724     2836.896     7076.300      943.965        2.325        0.543      185.810       25.706        0.019      349.155       29.374      866.050
06/27/2013  20:39:00     -163.081      228.509      -38.196       96.428      108.834       57.594     9298.287    11844.938     3317.026        5.236        1.223      280.734       57.394        0.042      349.142       29.350      866.052
06/27/2013  20:40:00     -163.547      136.065      -34.109       63.292       68.885       38.222     4005.876     4745.197     1460.953        2.832        0.511      212.747       33.183        0.024      349.130       29.330      866.060
06/27/2013  20:41:00     -179.299      152.740      -24.215       79.878      121.153       49.740     6380.565    14677.997     2474.041        3.979        1.177      235.537       49.933        0.045      349.118       29.309      866.069
06/27/2013  20:42:00     -153.336      181.307      -25.914       94.168      113.385       53.260     8867.693    12856.108     2836.644        4.080        1.228      237.454       35.085        0.022      349.104       29.285      866.053
06/27/2013  20:43:00     -193.072      218.719      -44.395      114.627      111.370       57.251    13139.307    12403.197     3277.705        5.795        1.441      291.744       71.356        0.060      349.107       29.288      866.061
06/27/2013  20:44:00     -224.865      242.859      -51.111      121.231       86.991       67.194    14696.863     7567.403     4515.031        6.946        1.339      330.975       73.077        0.049      349.088       29.254      866.062
06/27/2013  20:45:00     -199.779      272.273      -28.057      100.152      154.622       63.660    10030.523    23908.028     4052.641        7.640        1.900      337.704       55.106        0.027      349.031       29.156      866.063
06/27/2013  20:46:00     -135.035      190.591      -21.055       68.576       91.795       50.467     4702.613     8426.305     2546.959        3.534        0.784      233.579       47.066        0.041      348.978       29.066      866.080
06/27/2013  20:47:00     -170.978      157.726      -23.813      104.680       93.211       57.286    10957.866     8688.290     3281.739        3.880        1.146      232.617       55.181        0.056      348.993       29.090      866.087
06/27/2013  20:48:00     -191.352      247.445      -41.327      114.069      125.715       72.042    13011.789    15804.294     5190.054        6.677        1.700      312.801       67.014        0.046      348.970       29.051      866.089
06/27/2013  20:49:00     -187.108      235.859      -41.212       87.942      166.829       55.313     7733.709    27831.881     3059.516        6.547        1.931      301.063       63.677        0.045      349.002       29.108      866.110
06/27/2013  20:50:00     -246.250      281.781      -58.522      111.626      113.024       69.414    12460.274    12774.327     4818.268        8.675        1.503      374.218       69.746        0.035      348.950       29.018      866.111
06/27/2013  20:51:00     -151.578      179.141      -25.299      112.196      124.390       55.501    12587.839    15472.785     3080.350        4.342        1.557      234.665       44.851        0.037      348.923       28.970      866.106
06/27/2013  20:52:00     -155.909      178.181      -16.016      119.484       91.876       58.161    14276.536     8441.141     3382.749        4.120        1.305      236.762       65.206        0.076      348.924       28.973      866.116
06/27/2013  20:53:00     -219.363       92.825      -26.800       88.306       71.168       45.471     7797.887     5064.884     2067.568        3.619        0.747      238.195       45.216        0.036      348.964       29.042      866.130
06/27/2013  20:54:00     -170.978      197.519      -37.455      117.032      114.448       63.301    13696.375    13098.422     4006.995        5.022        1.540      261.242       74.233        0.081      349.010       29.122      866.154
06/27/2013  20:55:00     -169.131      192.352      -22.063      105.693      133.959       66.923    11170.910    17944.997     4478.660        4.984        1.680      256.134       68.183        0.071      348.992       29.090      866.176
06/27/2013  20:56:00      -95.937      276.629      -29.541       75.318      135.534       47.768     5672.744    18369.535     2281.739        5.646        1.316      292.792       43.431        0.022      348.927       28.978      866.194
06/27/2013  20:57:00     -104.288      292.932      -31.189       78.040      175.173       56.052     6090.199    30685.579     3141.862        6.878        1.996      310.942       53.816        0.030      348.921       28.968      866.199
06/27/2013  20:58:00     -111.902      303.068      -30.957       86.334      100.632       53.897     7453.486    10126.887     2904.917        6.290        1.024      323.067       49.107        0.023      348.843       28.833      866.208
06/27/2013  20:59:00     -127.260      343.844      -38.160      101.836      124.148       70.803    10370.605    15412.697     5013.132        8.333        1.540      366.638       70.241        0.037      348.875       28.885      866.245
06/27/2013  21:00:00     -164.170      296.636      -40.721       89.653      128.478       57.064     8037.737    16506.719     3256.319        7.220        1.390      339.035       55.858        0.027      348.887       28.908      866.290
06/27/2013  21:01:00      -84.453      249.874      -20.978       66.057      105.115       55.690     4363.462    11049.111     3101.402        4.426        0.926      263.760       60.847        0.053      348.826       28.803      866.309
06/27/2013  21:02:00     -136.402      306.611      -37.310       66.653       92.577       54.667     4442.575     8570.539     2988.472        6.500        0.800      335.582       53.219        0.025      348.781       28.723      866.299
06/27/2013  21:03:00      -96.780      360.378      -49.488      115.507      108.220       56.582    13341.767    11711.485     3201.500        8.497        1.413      373.147       42.635        0.013      348.774       28.712      866.319
06/27/2013  21:04:00     -114.538      294.184      -33.013       75.144       89.066       48.121     5646.563     7932.668     2315.618        5.832        0.795      315.695       45.307        0.021      348.706       28.595      866.329
06/27/2013  21:05:00      -73.578      218.989      -23.205       71.711      103.488       52.044     5142.398    10709.685     2708.547        3.623        0.928      231.019       46.964        0.041      348.636       28.473      866.342
06/27/2013  21:06:00     -148.788      346.549      -47.288       86.235      142.068       57.312     7436.494    20183.384     3284.615        8.768        1.545      377.140       55.760        0.022      348.637       28.475      866.361
06/27/2013  21:07:00     -106.003      160.624      -27.682       72.351       72.747       44.309     5234.610     5292.110     1963.300        2.514        0.625      192.449       35.393        0.034      348.619       28.444      866.374
06/27/2013  21:08:00     -223.116      282.970      -43.522      100.744      142.564       62.759    10149.254    20324.555     3938.675        8.307        1.721      360.351       58.807        0.027      348.615       28.436      866.396
06/27/2013  21:09:00     -190.246      197.439      -35.128      100.793      104.864       57.162    10159.310    10996.523     3267.519        5.041        1.221      274.182       59.162        0.047      348.592       28.398      866.393
06/27/2013  21:10:00     -122.485      278.926      -26.746       88.827      117.118       66.424     7890.317    13716.593     4412.198        5.976        1.301      304.635       63.719        0.044      348.613       28.433      866.405
06/27/2013  21:11:00     -125.274      164.600      -16.939       86.300      101.847       58.083     7447.684    10372.785     3373.690        3.213        1.060      206.850       60.485        0.086      348.540       28.310      866.408
06/27/2013  21:12:00     -154.652      285.588      -32.230      134.649      126.642       62.505    18130.435    16038.133     3906.872        7.229        1.904      324.774       64.913        0.040      348.587       28.389      866.419
06/27/2013  21:13:00     -170.555      314.280      -48.983      106.426       97.108       52.238    11326.449     9430.035     2728.813        7.687        1.174      357.577       39.539        0.012      348.591       28.393      866.423
06/27/2013  21:14:00     -204.568      251.928      -48.822      110.037      115.444       55.687    12108.201    13327.217     3101.005        6.811        1.427      324.524       62.408        0.037      348.534       28.296      866.425
06/27/2013  21:15:00     -137.275      217.290      -32.893       99.928      119.343       54.807     9985.618    14242.795     3003.819        4.718        1.362      257.020       70.850        0.076      348.536       28.300      866.442
06/27/2013  21:16:00      -83.302      204.292      -21.772       78.801       97.284       44.765     6209.539     9464.242     2003.923        3.341        0.884      220.622       38.299        0.030      348.538       28.305      866.431
06/27/2013  21:17:00     -194.383      113.597      -35.900      101.457       86.066       58.388    10293.623     7407.303     3409.172        3.654        1.056      225.143       45.233        0.040      348.606       28.421      866.454
06/27/2013  21:18:00     -129.869      199.498      -20.669       73.847       90.777       51.618     5453.363     8240.416     2664.434        3.672        0.818      238.045       42.704        0.032      348.585       28.386      866.475
06/27/2013  21:19:00     -207.185       20.026      -15.263       62.519       92.658       44.904     3908.587     8585.562     2016.413        2.903        0.726      208.150       32.125        0.024      348.616       28.439      866.496
06/27/2013  21:20:00     -123.941       96.985      -22.155       94.826       78.785       56.142     8992.005     6207.118     3151.967        2.180        0.918      157.377       50.360        0.102      348.595       28.404      866.512
06/27/2013  21:21:00     -156.719       83.814      -14.867      114.138      173.996       64.986    13027.488    30274.542     4223.121        3.966        2.376      177.724       61.318        0.119      348.547       28.321      866.502
06/27/2013  21:22:00     -215.390       97.543      -12.929       96.007      100.070       52.106     9217.311    10014.086     2715.067        3.901        1.097      236.448       56.871        0.058      348.548       28.320      866.513
06/27/2013  21:23:00     -145.198      -29.713       -7.659       90.572       79.955       56.672     8203.209     6392.745     3211.697        1.991        0.890      148.207       56.320        0.144      348.519       28.274      866.521
06/27/2013  21:24:00     -181.027        3.872      -15.242       66.262       64.733       37.531     4390.670     4190.304     1408.561        2.150        0.499      181.069       25.687        0.020      348.500       28.241      866.514
06/27/2013  21:25:00     -121.157       67.267      -23.380       70.172       72.240       43.180     4924.118     5218.549     1864.506        1.588        0.600      138.578       41.161        0.088      348.407       28.081      866.535
06/27/2013  21:26:00     -158.314       72.372      -30.299      101.100       88.797       42.015    10221.233     7884.952     1765.249        2.554        0.994      174.072       45.482        0.068      348.433       28.125      866.518
06/27/2013  21:27:00     -127.327      115.065      -17.734       79.247       81.196       42.255     6280.146     6592.867     1785.499        2.221        0.733      171.616       44.407        0.067      348.386       28.041      866.539
06/27/2013  21:28:00     -119.771      186.004      -29.319       86.043      132.223       54.765     7403.409    17482.960     2999.208        3.884        1.394      221.230       60.006        0.074      348.460       28.170      866.544
06/27/2013  21:29:00     -175.705      126.702      -18.166      112.540       67.867       52.358    12665.205     4605.881     2741.365        3.363        1.001      216.623       44.771        0.043      348.466       28.180      866.545
06/27/2013  21:30:00     -183.996      165.844      -35.281       63.638      100.865       42.260     4049.809    10173.679     1785.888        3.930        0.800      247.706       43.537        0.031      348.523       28.277      866.563
06/27/2013  21:31:00     -145.101      218.090      -26.821       76.060      146.297       57.927     5785.130    21402.905     3355.538        4.993        1.527      261.950       50.423        0.037      348.469       28.184      866.581
06/27/2013  21:32:00     -165.825      273.622      -35.880       74.413      133.463       57.914     5537.296    17812.344     3354.081        6.517        1.335      319.948       58.159        0.033      348.449       28.150      866.606
06/27/2013  21:33:00      -95.807      240.783      -20.799       68.609       98.334       54.895     4707.199     9669.671     3013.487        4.249        0.870      259.143       51.868        0.040      348.352       27.981      866.637
06/27/2013  21:34:00     -105.477      241.925      -19.888      107.819      122.784       61.499    11625.042    15075.921     3782.120        5.026        1.524      263.919       63.461        0.058      348.276       27.849      866.664
06/27/2013  21:35:00     -151.609      250.430      -42.108       87.788      137.739       57.948     7706.695    18972.125     3357.991        5.875        1.502      292.746       58.021        0.039      348.191       27.703      866.702
06/27/2013  21:36:00     -111.425      234.017      -27.681       90.928      100.822       62.365     8267.973    10165.087     3889.333        4.513        1.116      259.190       57.001        0.048      348.142       27.618      866.695
06/27/2013  21:37:00     -202.659      191.819      -37.470       87.512      152.480       63.515     7658.402    23250.111     4034.209        5.710        1.747      279.043       66.111        0.056      348.179       27.684      866.683
06/27/2013  21:38:00     -275.307      275.641      -57.228      120.494      161.929       67.832    14518.702    26221.089     4601.222       10.019        2.267      389.579       78.570        0.041      348.174       27.675      866.669
06/27/2013  21:39:00     -261.453      172.239      -31.789       96.833      126.409       62.973     9376.701    15979.319     3965.588        6.417        1.466      313.088       54.145        0.030      348.188       27.698      866.639
06/27/2013  21:40:00     -252.250      192.104      -39.420      149.194      170.701       94.937    22258.761    29138.810     9013.063        8.124        3.021      317.072       75.649        0.057      348.216       27.746      866.617
06/27/2013  21:41:00     -288.169      261.726      -62.990      114.556      114.786       67.177    13123.138    13175.816     4512.752        9.315        1.541      389.283       63.280        0.026      348.186       27.694      866.619
06/27/2013  21:42:00     -158.437      185.620      -37.208       87.169      115.307       71.402     7598.456    13295.599     5098.266        4.346        1.300      244.043       70.270        0.083      348.110       27.565      866.632
06/27/2013  21:43:00     -231.739      245.967      -54.382      115.921      136.692       65.288    13437.764    18684.833     4262.579        7.677        1.819      337.939       70.024        0.043      348.048       27.456      866.646
06/27/2013  21:44:00     -229.377      225.727      -59.661      106.349       93.780       65.286    11310.155     8794.705     4262.318        6.574        1.218      321.818       68.706        0.046      347.986       27.350      866.680
06/27/2013  21:45:00     -212.238      165.838      -45.265      121.883      126.806       68.927    14855.521    16079.666     4750.936        5.513        1.784      269.346       85.904        0.102      347.942       27.275      866.675
06/27/2013  21:46:00     -202.329      192.827      -53.182       98.415       94.149       50.360     9685.539     8864.035     2536.103        5.101        1.054      279.498       49.833        0.032      347.902       27.204      866.682
06/27/2013  21:47:00     -176.353      200.711      -21.827       93.522      102.649       59.366     8746.451    10536.865     3524.268        4.733        1.140      267.181       54.264        0.041      347.843       27.102      866.680
06/27/2013  21:48:00     -166.481      165.955      -31.793       82.865       96.918       58.883     6866.528     9393.064     3467.240        3.799        0.986      235.067       47.763        0.041      347.861       27.134      866.710
06/27/2013  21:49:00     -166.949      191.852      -33.920      104.013       81.743       56.702    10818.682     6681.845     3215.149        4.327        1.036      254.321       55.400        0.047      347.908       27.216      866.733
06/27/2013  21:50:00      -99.018      120.249       -4.468       98.242       78.315       46.348     9651.536     6133.222     2148.120        2.110        0.897      155.770       43.917        0.079      347.886       27.178      866.754
06/27/2013  21:51:00      -91.109      166.558       -8.722       61.394       72.434       51.639     3769.250     5246.689     2666.551        2.390        0.584      189.849       43.519        0.053      347.857       27.127      866.771
06/27/2013  21:52:00     -113.670      191.376      -27.883       73.660      120.658       46.918     5425.863    14558.292     2201.294        3.625        1.109      222.589       53.679        0.058      347.898       27.199      866.812
06/27/2013  21:53:00      -98.037      228.908      -12.603       62.570       78.084       48.587     3915.059     6097.175     2360.649        3.727        0.619      249.019       41.964        0.028      347.871       27.151      866.835
06/27/2013  21:54:00     -112.206      208.310      -26.270       70.067       90.949       43.198     4909.370     8271.683     1866.069        3.586        0.752      236.608       36.632        0.024      347.903       27.206      866.880
06/27/2013  21:55:00     -129.416      187.891      -25.883       74.777       99.656       48.968     5591.656     9931.413     2397.888        3.532        0.896      228.148       44.642        0.038      347.917       27.230      866.915
06/27/2013  21:56:00     -184.939      178.935      -35.711      123.041      143.566       69.525    15138.981    20611.301     4833.763        5.403        2.029      257.333       80.877        0.099      347.975       27.330      866.952
06/27/2013  21:57:00     -200.549      234.525      -51.044       82.244       73.429       50.127     6764.029     5391.792     2512.703        5.625        0.733      308.580       47.101        0.023      347.998       27.368      866.986
06/27/2013  21:58:00     -191.056      195.393      -46.374       95.350       77.667       45.463     9091.590     6032.218     2066.916        4.701        0.860      273.278       43.062        0.025      347.960       27.306      866.999
06/27/2013  21:59:00     -146.717      153.100      -19.078      106.360      110.760       51.375    11312.422    12267.869     2639.384        3.577        1.311      212.051       44.723        0.044      347.872       27.154      867.013
06/27/2013  22:00:00     -108.887       87.884      -21.224       52.364       81.705       42.051     2741.939     6675.746     1768.292        1.561        0.559      139.928       23.610        0.028      347.922       27.238      867.005
06/27/2013  22:01:00     -208.304      -23.909      -25.181      101.097      111.989       56.121    10220.581    12541.504     3149.526        3.525        1.296      209.672       46.524        0.049      348.024       27.415      867.027
06/27/2013  22:02:00     -213.456       71.878      -24.341       89.912       80.026       47.805     8084.187     6404.102     2285.315        3.404        0.839      225.233       35.560        0.025      347.960       27.306      867.027
06/27/2013  22:03:00     -216.565      111.922      -40.370      101.223       76.198       54.791    10246.083     5806.107     3002.055        4.005        0.953      243.776       46.370        0.036      347.961       27.305      867.048
06/27/2013  22:04:00     -195.022      115.250      -21.184      140.719      105.001       66.767    19801.725    11025.247     4457.773        4.352        1.764      226.531       64.864        0.082      347.882       27.169      867.055
06/27/2013  22:05:00     -202.455       67.592      -11.177      104.404       70.209       55.504    10900.126     4929.356     3080.740        3.229        0.946      213.440       42.335        0.039      347.911       27.221      867.053
06/27/2013  22:06:00     -123.365       95.519       -5.243       84.636      113.361       55.232     7163.255    12850.807     3050.590        2.371        1.153      156.022       42.137        0.073      347.837       27.094      867.050
06/27/2013  22:07:00     -164.824      126.479      -38.413       78.262       88.120       37.283     6124.927     7765.159     1390.008        2.996        0.764      207.760       38.898        0.035      347.916       27.229      867.048
06/27/2013  22:08:00     -115.016       95.753      -28.578       59.470       57.395       37.215     3536.675     3294.188     1384.930        1.571        0.411      149.658       36.048        0.058      347.772       26.981      867.029
06/27/2013  22:09:00      -89.130       79.400      -14.304       63.540       84.554       41.768     4037.321     7149.432     1744.527        1.369        0.647      119.367       27.044        0.051      347.812       27.052      867.022
06/27/2013  22:10:00     -109.469      104.349      -26.565       49.000       66.713       39.944     2400.999     4450.674     1595.563        1.601        0.422      151.236       21.116        0.019      347.934       27.263      867.029
06/27/2013  22:11:00     -220.984      203.642      -49.805      101.420       86.362       54.246    10286.075     7458.424     2942.640        5.673        1.034      300.506       56.478        0.035      348.043       27.446      867.031
06/27/2013  22:12:00     -133.235      141.044      -11.457       61.000       89.682       40.786     3721.033     8042.875     1663.488        2.560        0.671      194.023       39.006        0.040      348.021       27.410      867.016
06/27/2013  22:13:00     -136.596       30.787      -19.806       73.173       57.241       41.133     5354.270     3276.477     1691.934        1.516        0.516      140.022       41.052        0.086      348.048       27.459      867.012
06/27/2013  22:14:00     -180.290      106.452      -32.927      112.182       85.137       54.305    12584.769     7248.367     2949.040        3.385        1.139      209.371       51.998        0.062      348.073       27.499      867.004
06/27/2013  22:15:00     -246.313       59.684      -33.588       69.205       72.339       43.150     4789.349     5232.979     1861.943        3.862        0.594      253.441       22.260        0.008      348.087       27.524      867.024
06/27/2013  22:16:00     -200.582       90.778      -30.434      134.461      106.446       72.258    18079.717    11330.706     5221.212        4.201        1.732      220.167       72.788        0.109      348.154       27.639      867.017
06/27/2013  22:17:00     -142.887       20.842        4.463       82.857       97.125       42.134     6865.301     9433.171     1775.306        1.947        0.904      144.399       35.824        0.062      348.032       27.431      867.001
06/27/2013  22:18:00     -102.429       17.337        7.231       72.106       89.001       43.468     5199.336     7921.224     1889.436        1.292        0.750      103.886       41.850        0.162      347.965       27.316      867.020
06/27/2013  22:19:00     -159.944       59.611      -10.534      142.544       89.642       61.469    20318.839     8035.765     3778.442        3.068        1.607      170.691       74.523        0.191      348.090       27.531      867.015
06/27/2013  22:20:00     -165.532       31.000      -31.269       82.196       70.987       47.481     6756.264     5039.183     2254.490        2.169        0.702      168.410       37.570        0.050      348.076       27.507      867.005
06/27/2013  22:21:00     -114.861      -15.456       -8.575       71.090       77.622       35.569     5053.730     6025.173     1265.178        1.292        0.617      115.896       23.677        0.042      348.091       27.533      867.008
06/27/2013  22:22:00     -169.364       32.891      -39.777       71.474       85.915       45.211     5108.465     7381.423     2044.015        2.294        0.727      172.528       48.010        0.077      348.123       27.587      867.005
06/27/2013  22:23:00     -105.497       69.687      -14.806       43.475       58.327       36.124     1890.088     3402.071     1304.956        1.140        0.330      126.435       14.568        0.013      348.084       27.522      866.993
06/27/2013  22:24:00     -106.166       74.498      -18.547       98.086       86.658       48.132     9620.768     7509.596     2316.706        1.830        0.972      129.696       55.889        0.186      348.093       27.537      866.994
06/27/2013  22:25:00     -159.147      169.515      -45.339       76.369       79.305       43.865     5832.256     6289.266     1924.164        3.508        0.702      232.515       48.088        0.043      348.183       27.688      866.979
06/27/2013  22:26:00     -145.359      133.872      -26.026       71.826       73.800       48.648     5159.029     5446.437     2366.587        2.635        0.649      197.613       48.234        0.060      348.134       27.605      866.964
06/27/2013  22:27:00     -171.429      159.187      -28.930       88.062      110.674       64.245     7754.854    12248.691     4127.429        3.984        1.207      233.941       60.986        0.068      348.185       27.693      866.940
06/27/2013  22:28:00     -244.191      252.153      -62.046      104.463      115.540       59.938    10912.495    13349.584     3592.585        7.745        1.393      351.014       62.532        0.032      348.262       27.824      866.922
06/27/2013  22:29:00     -289.278      175.499      -31.624      118.645       91.492       61.699    14076.726     8370.828     3806.771        7.086        1.313      338.352       64.106        0.036      348.288       27.870      866.879
06/27/2013  22:30:00     -145.759      125.020      -18.820       73.999      112.650       44.319     5475.841    12689.933     1964.155        2.868        1.006      192.030       30.383        0.025      348.185       27.695      866.841
06/27/2013  22:31:00     -145.001       47.653      -18.549      112.819       73.500       47.781    12728.173     5402.226     2283.026        2.202        1.021      152.631       60.936        0.159      348.123       27.587      866.817
06/27/2013  22:32:00     -276.208       70.125      -26.687      121.041      115.285       56.239    14650.951    13290.656     3162.840        5.651        1.555      284.971       36.826        0.017      348.207       27.731      866.800
06/27/2013  22:33:00     -193.929      -42.576      -20.433       94.679       90.877       46.657     8964.124     8258.640     2176.871        2.962        0.970      198.548       46.353        0.055      348.131       27.600      866.759
06/27/2013  22:34:00     -246.218      -55.340      -30.442       71.690       81.938       47.036     5139.495     6713.901     2212.396        3.934        0.703      252.360       31.760        0.016      348.078       27.508      866.744
06/27/2013  22:35:00     -200.604       13.715      -34.463      120.912      128.889       69.320    14619.616    16612.308     4805.283        3.882        1.802      201.072       56.642        0.079      348.136       27.608      866.734
06/27/2013  22:36:00     -130.486      -17.952       -6.017      107.500      109.761       61.847    11556.260    12047.424     3825.066        2.240        1.371      131.715       31.480        0.057      348.061       27.479      866.736
06/27/2013  22:37:00     -163.126        6.291      -21.546       79.278       91.488       58.570     6284.964     8370.116     3430.387        2.260        0.904      163.247       41.793        0.066      348.097       27.543      866.739
06/27/2013  22:38:00     -183.838       62.470      -31.634      104.569       96.486       57.389    10934.704     9309.631     3293.467        3.111        1.177      194.162       58.745        0.092      348.268       27.838      866.751
06/27/2013  22:39:00     -195.832       19.031      -24.240       70.983       73.158       45.558     5038.542     5352.156     2075.491        2.588        0.623      196.754       35.424        0.032      348.154       27.640      866.757
06/27/2013  22:40:00     -209.043       79.312      -25.153      157.568      108.849       67.644    24827.656    11848.206     4575.659        4.593        2.063      223.583       72.114        0.104      348.197       27.713      866.782
06/27/2013  22:41:00      -55.232       32.242       11.861       66.697       70.989       47.092     4448.555     5039.450     2217.667        0.797        0.585       63.954       33.928        0.281      348.110       27.567      866.799
06/27/2013  22:42:00     -113.104      -42.008       13.640      109.396      102.942       49.305    11967.567    10597.145     2430.973        1.986        1.250      120.654       41.264        0.117      348.057       27.473      866.806
06/27/2013  22:43:00     -105.611       39.635       -7.212       74.747      110.914       49.487     5587.063    12301.837     2448.960        1.655        1.017      112.804       40.381        0.128      348.071       27.499      866.830
06/27/2013  22:44:00     -155.229      123.095      -30.487      102.675      103.857       50.367    10542.105    10786.214     2536.785        3.202        1.193      198.112       53.705        0.073      348.085       27.520      866.858
06/27/2013  22:45:00      -91.478       72.214      -15.448       67.711      129.158       38.084     4584.745    16681.886     1450.367        1.826        1.136      116.547       35.704        0.094      348.001       27.376      866.877
06/27/2013  22:46:00      -55.671      101.124        4.450       83.029       78.547       52.669     6893.748     6169.601     2773.989        1.459        0.792      115.435       48.641        0.178      348.024       27.418      866.881
06/27/2013  22:47:00     -145.975       69.121      -22.529      103.808       69.393       43.014    10776.096     4815.415     1850.175        2.201        0.872      161.513       49.044        0.092      348.092       27.534      866.899
06/27/2013  22:48:00     -152.938      113.862      -33.555       63.055       61.990       42.356     3975.979     3842.794     1794.062        2.354        0.481      190.669       35.860        0.035      348.122       27.585      866.915
06/27/2013  22:49:00     -132.828       84.063      -17.178       52.626       64.040       40.404     2769.530     4101.110     1632.479        1.675        0.425      157.194       21.720        0.019      348.134       27.608      866.927
06/27/2013  22:50:00     -139.130      114.608      -29.841       77.151       80.647       37.021     5952.227     6503.910     1370.529        2.360        0.691      180.256       47.354        0.069      348.161       27.655      866.941
06/27/2013  22:51:00     -136.140      123.314      -26.114       71.642       59.920       35.146     5132.593     3590.349     1235.232        2.219        0.498      183.686       32.486        0.031      348.188       27.700      866.961
06/27/2013  22:52:00      -89.891       90.565      -15.761       55.664       60.271       30.066     3098.463     3632.644      903.956        1.208        0.382      127.603       26.734        0.044      348.107       27.563      866.975
06/27/2013  22:53:00     -121.121      100.620      -34.687       44.235       37.612       32.764     1956.759     1414.631     1073.483        1.522        0.222      157.463       26.703        0.029      348.160       27.653      866.993
06/27/2013  22:54:00      -70.854       35.291      -13.591       40.538       44.735       24.323     1643.369     2001.188      591.613        0.534        0.212       79.156       24.096        0.093      348.031       27.431      866.999
06/27/2013  22:55:00      -93.913      102.634      -16.941       48.360       71.201       39.541     2338.712     5069.590     1563.466        1.430        0.449      139.116       21.521        0.024      348.035       27.437      867.011
06/27/2013  22:56:00     -169.091       91.220      -24.253       94.811       52.597       41.236     8989.123     2766.471     1700.440        2.548        0.673      192.127       30.891        0.026      348.071       27.497      867.012
06/27/2013  22:57:00      -95.190      -16.925        0.485       74.029       61.586       39.435     5480.295     3792.866     1555.093        1.009        0.541       96.683       38.318        0.157      347.940       27.273      867.006
06/27/2013  22:58:00     -243.426       37.709      -41.917       78.996      143.401       48.606     6240.394    20563.945     2362.497        4.580        1.458      246.329       50.296        0.042      348.093       27.535      867.002
06/27/2013  22:59:00     -195.391       58.625      -35.389       83.659       97.873       50.331     6998.802     9579.117     2533.227        3.099        0.956      203.996       36.032        0.031      348.011       27.392      866.996
06/27/2013  23:00:00     -209.667      -20.096      -11.276       95.419       83.207       42.762     9104.752     6923.368     1828.566        3.117        0.893      210.628       44.080        0.044      347.906       27.212      866.995
06/27/2013  23:01:00     -311.201       32.846      -12.392      120.386      118.259       58.232    14492.871    13985.147     3390.984        6.497        1.593      312.930       56.942        0.033      347.905       27.209      866.993
06/27/2013  23:02:00     -280.320      -32.868      -12.887      100.729       87.170       53.963    10146.384     7598.648     2912.049        5.024        1.033      282.241       49.785        0.031      347.865       27.139      866.997
06/27/2013  23:03:00     -252.960      -42.793      -19.593      121.723      115.000       50.496    14816.385    13225.059     2549.827        4.839        1.530      256.554       47.994        0.035      347.840       27.097      866.982
06/27/2013  23:04:00     -238.375      -19.155       -7.704      109.119       76.294       49.382    11906.921     5820.702     2438.538        3.870        1.008      239.143       53.082        0.049      347.833       27.085      866.979
06/27/2013  23:05:00     -251.596      -41.901      -16.593      100.651      104.208       46.468    10130.581    10859.386     2159.246        4.424        1.157      255.061       39.985        0.025      347.847       27.109      866.959
06/27/2013  23:06:00     -291.110      -97.564      -16.646      121.577       90.638       49.767    14780.901     8215.186     2476.765        6.000        1.274      307.023       44.852        0.021      347.822       27.065      866.962
06/27/2013  23:07:00     -156.086      -39.769       -1.287       92.880       77.593       37.807     8626.764     6020.720     1429.366        2.101        0.804      161.073       47.670        0.088      347.725       26.899      866.967
06/27/2013  23:08:00     -230.105      -54.071      -12.972       97.976       59.026       33.901     9599.353     3484.113     1149.288        3.513        0.712      236.373       39.023        0.027      347.777       26.990      866.963
06/27/2013  23:09:00     -197.812      -59.704       -8.214       98.977       82.078       43.954     9796.465     6736.811     1931.934        3.061        0.923      206.626       45.085        0.048      347.797       27.023      866.957
06/27/2013  23:10:00     -213.770      -65.548        0.758       83.034       56.574       43.362     6894.614     3200.631     1880.284        3.098        0.599      223.594       47.571        0.045      347.759       26.957      866.955
06/27/2013  23:11:00     -192.182      -44.573        5.239      105.671       92.810       51.739    11166.416     8613.772     2676.909        3.070        1.123      197.283       60.313        0.093      347.755       26.950      866.947
06/27/2013  23:12:00     -221.279      -87.060      -10.188      110.392       90.329       59.392    12186.435     8159.400     3527.367        4.026        1.194      237.790       56.461        0.056      347.910       27.218      866.943
06/27/2013  23:13:00     -114.294      -17.721        6.344       97.814       64.536       43.518     9567.609     4164.862     1893.825        1.452        0.781      115.660       44.048        0.145      347.783       27.002      866.941
06/27/2013  23:14:00     -170.231      -30.467      -17.459       79.066       59.214       39.670     6251.486     3506.242     1573.680        2.077        0.567      172.936       37.692        0.048      347.762       26.965      866.933
06/27/2013  23:15:00     -215.639      -19.419       -9.464       88.547       71.079       37.401     7840.553     5052.175     1398.807        3.063        0.715      216.511       35.780        0.027      347.762       26.963      866.927
06/27/2013  23:16:00     -248.083      -18.296       -1.423      112.171       65.893       53.624    12582.408     4341.852     2875.544        4.084        0.990      248.756       57.507        0.053      347.874       27.156      866.925
06/27/2013  23:17:00     -201.521      -97.616       -2.164      138.835      113.411       67.324    19275.139    12862.099     4532.527        4.340        1.833      223.918       75.307        0.113      347.912       27.222      866.926
06/27/2013  23:18:00     -162.442      -81.046       -2.536      104.379       84.483       52.082    10895.025     7137.359     2712.565        2.685        1.037      181.538       49.060        0.073      348.004       27.382      866.920
06/27/2013  23:19:00     -116.302      -76.000        7.697       80.578       78.861       40.807     6492.845     6219.046     1665.231        1.687        0.719      138.932       41.594        0.090      348.017       27.404      866.913
06/27/2013  23:20:00     -192.455      -40.086       -9.306       55.237       80.000       41.024     3051.179     6399.925     1682.944        2.493        0.557      196.586       36.468        0.034      348.096       27.540      866.922
06/27/2013  23:21:00     -246.241      -26.235      -17.896       99.502       60.809       37.713     9900.697     3697.775     1422.294        3.833        0.751      247.635       46.948        0.036      348.063       27.485      866.944
06/27/2013  23:22:00     -138.637      -19.704        9.237       89.263       64.100       40.797     7967.801     4108.805     1664.398        1.671        0.687      140.031       48.898        0.122      347.873       27.155      866.946
06/27/2013  23:23:00     -191.910      -54.219       -7.182      124.915       66.952       44.455    15603.753     4482.579     1976.236        3.094        1.103      199.422       43.460        0.047      347.868       27.145      866.950
06/27/2013  23:24:00     -287.760      -70.482      -19.119       88.380       82.524       42.747     7811.095     6810.201     1827.297        5.229        0.822      296.266       40.334        0.019      347.904       27.207      866.953
06/27/2013  23:25:00     -112.316      -50.275        4.932       72.496       53.586       33.768     5255.631     2871.485     1140.297        1.222        0.463      123.055       33.962        0.076      347.862       27.138      866.945
06/27/2013  23:26:00     -134.340      -46.360       -5.594       72.336       45.585       44.032     5232.531     2078.014     1938.824        1.474        0.462      142.114       46.463        0.107      347.875       27.159      866.950
06/27/2013  23:27:00     -246.781      -45.030       -1.694       87.894       82.285       48.573     7725.421     6770.827     2359.327        3.989        0.843      250.856       45.442        0.033      347.916       27.228      866.952
06/27/2013  23:28:00     -224.452      -77.251      -12.995      116.091       73.369       38.299    13477.190     5383.050     1466.834        3.842        1.016      237.374       48.190        0.041      347.972       27.325      866.952
06/27/2013  23:29:00     -197.579      -59.365      -15.253       72.981       56.531       30.588     5326.244     3195.803      935.656        2.612        0.473      206.305       17.766        0.007      347.992       27.361      866.951
06/27/2013  23:30:00     -119.893       -6.335      -14.632       41.694       45.372       25.673     1738.382     2058.614      659.116        0.954        0.223      120.060       22.151        0.034      347.820       27.066      866.962
06/27/2013  23:31:00     -224.731       -3.912      -10.831       82.259       56.706       35.693     6766.522     3215.517     1273.959        3.094        0.563      224.765       36.069        0.026      347.922       27.240      866.978
06/27/2013  23:32:00     -158.052     -104.535       -7.300       71.191       63.385       36.207     5068.145     4017.701     1310.956        2.318        0.520      189.494       34.107        0.032      347.992       27.360      866.995
06/27/2013  23:33:00     -109.937      -30.622       17.994      125.280       61.688       55.802    15695.116     3805.417     3113.877        1.798        1.131      114.122       71.312        0.390      348.020       27.409      866.991
06/27/2013  23:34:00     -138.623      -60.963       -4.383       73.204       44.438       34.736     5358.887     1974.714     1206.571        1.574        0.427      151.436       38.698        0.065      347.966       27.315      866.997
06/27/2013  23:35:00      -79.048      -25.929        4.957       64.763       51.798       33.396     4194.185     2683.068     1115.284        0.747        0.400       83.192       33.568        0.163      348.031       27.430      866.995
06/27/2013  23:36:00      -81.488      -24.969        6.715       58.246       48.735       33.445     3392.646     2375.118     1118.562        0.710        0.344       85.227       28.399        0.111      348.004       27.384      867.014
06/27/2013  23:37:00      -45.832     -108.875        7.624       52.683       60.167       25.315     2775.470     3620.113      640.851        1.052        0.352      118.129       22.314        0.036      348.031       27.430      867.037
06/27/2013  23:38:00      -55.445      -15.203        6.101       54.148       32.993       20.425     2932.030     1088.524      417.189        0.389        0.222       57.491       25.066        0.190      347.936       27.266      867.056
06/27/2013  23:39:00      -57.498      -38.010      -13.481       32.282       26.246       12.470     1042.142      688.868      155.509        0.341        0.094       68.926       16.260        0.056      348.015       27.404      867.080
06/27/2013  23:40:00      -11.724        1.060        2.001       21.282       12.703       10.918      452.939      161.355      119.209        0.044        0.037       11.772        4.877        0.172      347.846       27.113      867.094
06/27/2013  23:41:00       -1.181       -6.216       -8.358       22.193       15.045        9.275      492.511      226.351       86.027        0.046        0.040        6.327        3.345        0.279      347.798       27.028      867.096
06/27/2013  23:42:00       11.438       24.221        3.609       19.680       21.808       17.833      387.316      475.581      318.015        0.096        0.059       26.786       15.183        0.321      347.698       26.853      867.095
06/27/2013  23:43:00       59.485       40.649       18.784       30.059       22.976       23.975      903.559      527.900      574.807        0.377        0.100       72.048       17.709        0.060      347.454       26.435      867.102
06/27/2013  23:44:00       85.092       34.606        7.365       24.746       21.262       25.052      612.357      452.072      627.606        0.509        0.085       91.860       11.179        0.015      347.304       26.176      867.121
06/27/2013  23:45:00       65.180       23.521       15.526       42.833       23.813       25.052     1834.658      567.050      627.609        0.404        0.151       69.294       15.842        0.052      347.202       26.001      867.141
06/27/2013  23:46:00       23.789       33.951       30.166       35.278       22.399       23.763     1244.553      501.700      564.702        0.247        0.116       41.455       17.409        0.176      347.194       25.987      867.143
06/27/2013  23:47:00       -1.176       14.601       34.470       13.309       24.165       14.908      177.137      583.928      222.259        0.119        0.049       14.648       15.473        1.116      347.218       26.027      867.146
06/27/2013  23:48:00       15.949       -6.178       10.652       29.746       44.981       22.820      884.809     2023.250      520.745        0.192        0.171       17.103       28.220        2.722      347.259       26.097      867.151
06/27/2013  23:49:00       60.776      -75.630      -14.523       24.379       20.512       11.165      594.359      420.734      124.661        0.538        0.057       97.024       13.314        0.019      347.281       26.136      867.143
06/27/2013  23:50:00       34.089      -36.965        1.197       32.959       30.271       24.515     1086.281      916.318      600.970        0.257        0.130       50.284       28.749        0.327      347.160       25.928      867.142
06/27/2013  23:51:00        8.211      -29.861       13.060       18.165       26.335       21.057      329.962      693.555      443.391        0.130        0.073       30.970       16.294        0.277      347.187       25.973      867.138
06/27/2013  23:52:00      -12.746      -69.600       -5.445       18.544       20.399       16.668      343.867      416.132      277.836        0.304        0.052       70.758        5.786        0.007      347.507       26.525      867.136
06/27/2013  23:53:00      -96.101      -18.444       -8.476       50.010       28.979       22.688     2500.997      839.810      514.757        0.675        0.193       97.855       28.050        0.082      347.456       26.436      867.123
06/27/2013  23:54:00     -158.650      -71.978        0.448      104.433       65.107       41.416    10906.206     4238.883     1715.271        2.360        0.843      174.215       53.029        0.093      347.314       26.191      867.113
06/27/2013  23:55:00     -328.592      -42.763      -29.966      105.386      114.539       47.400    11106.280    13119.263     2246.768        6.858        1.324      331.363       38.560        0.014      347.496       26.503      867.112
06/27/2013  23:56:00     -132.453        0.992       -1.266      112.264       85.681       48.706    12603.124     7341.241     2372.302        1.993        1.116      132.456       56.314        0.181      347.428       26.388      867.117
06/27/2013  23:57:00     -134.663       62.301      -13.478       80.713       71.380       37.596     6514.632     5095.127     1413.465        1.761        0.651      148.376       26.768        0.033      347.574       26.640      867.127
06/27/2013  23:58:00     -163.782       80.343      -28.758       56.688       76.931       29.363     3213.524     5918.342      862.197        2.205        0.500      182.427       31.307        0.029      347.567       26.630      867.125
06/27/2013  23:59:00      -62.712       74.711       -6.826       31.209       43.881       22.654      973.984     1925.517      513.209        0.649        0.171       97.542       19.883        0.042      347.507       26.526      867.136
